GFSNGP_500_spd_000.txt.gz
Wind_Speed
37 40 44 44 39 36 45 42 53 53 54 55 60 62 64 64 63 68 68 71 70 72 75 76 80 82 77 72 68 63 58 57 59 58 59 60 61 62 67 73 73 74 78 81
44 42 47 47 39 41 43 45 51 55 58 58 62 64 65 65 69 72 72 72 74 76 76 80 83 81 74 70 66 60 56 56 56 57 58 61 62 68 72 72 74 79 77 72
46 47 52 51 45 48 54 57 57 61 63 61 62 65 69 68 72 72 73 74 73 76 79 82 82 76 72 70 63 58 56 55 55 58 60 61 68 70 71 74 75 72 61 50
50 52 58 58 51 57 60 59 58 62 63 61 67 72 74 71 75 75 74 74 78 79 82 82 79 74 72 66 59 56 54 54 57 59 61 67 68 69 72 71 66 52 41 34
54 58 62 63 55 60 62 63 64 64 68 71 73 74 72 73 76 74 73 79 80 83 84 79 75 72 66 59 55 52 53 56 58 61 65 65 67 70 68 61 46 36 29 26
56 60 65 62 59 61 65 68 67 69 72 74 75 78 76 73 72 73 77 81 83 84 81 76 73 66 59 54 52 53 55 57 60 63 63 66 68 64 57 44 34 25 23 23
55 61 67 64 66 67 68 70 73 74 74 73 73 73 74 70 71 76 79 82 84 80 75 72 66 61 54 51 51 53 55 60 61 60 64 65 62 55 43 33 24 21 20 22
58 61 64 63 64 65 69 71 71 70 69 70 71 73 71 73 75 78 82 83 82 75 70 65 62 54 51 51 51 55 59 58 58 62 63 60 53 42 33 28 17 19 20 23
57 64 61 62 66 69 68 68 70 70 71 69 69 71 73 74 76 80 80 83 75 67 66 61 53 50 50 51 54 58 58 56 60 61 57 52 42 33 31 20 17 17 21 24
64 63 66 68 68 67 66 67 69 69 70 70 72 72 74 76 79 81 80 71 66 66 59 52 49 49 51 53 57 56 55 57 59 56 49 41 37 30 25 17 15 17 22 22
67 65 66 65 65 65 66 66 66 68 70 70 71 73 75 78 79 76 67 66 64 57 52 49 49 50 52 56 54 53 55 56 55 49 41 36 31 29 22 15 13 15 17 20
64 63 66 65 65 64 64 64 67 68 68 70 71 73 76 75 70 65 66 62 55 50 49 48 49 50 54 53 51 53 55 53 48 41 35 33 26 25 22 9 12 14 17 15
67 67 68 66 64 64 65 66 67 69 68 68 71 72 71 66 65 65 58 52 48 48 48 48 50 53 52 50 52 53 52 48 42 33 30 31 25 20 16 19 10 13 15 14
65 66 65 61 63 62 63 64 64 65 66 67 67 67 64 63 58 52 49 47 47 47 47 49 52 50 49 51 53 52 49 42 34 28 29 27 23 15 13 13 12 13 12 13
60 58 59 60 59 61 61 64 65 64 65 64 62 59 57 53 49 47 46 46 46 46 48 52 49 49 50 52 52 50 44 36 28 25 25 27 17 11 11 11 6 10 10 10
59 56 58 61 61 62 66 65 63 62 60 58 57 56 53 49 46 46 46 45 45 48 51 49 49 50 52 52 50 45 37 30 24 22 24 23 14 10 10 6 4 5 8 5
62 61 63 63 65 66 66 62 59 58 56 55 54 50 48 46 45 44 44 44 48 50 48 48 50 52 53 51 47 39 32 26 22 19 23 18 14 10 9 5 3 3 6 2
66 66 69 70 69 69 64 60 57 54 53 52 48 46 44 43 42 42 44 48 49 48 49 51 53 54 52 47 40 33 28 23 20 17 20 16 13 10 10 6 4 3 3 3
66 69 71 68 66 62 60 55 51 51 50 45 44 43 41 39 41 45 48 47 49 51 53 54 55 52 48 39 33 29 24 20 19 16 18 14 12 11 10 7 6 5 5 4
69 74 71 69 62 58 53 48 47 47 46 43 41 38 38 40 46 46 47 49 52 54 56 55 52 47 38 31 28 26 21 18 17 15 17 13 11 9 10 8 7 6 7 7
71 68 64 60 53 48 44 43 45 45 43 40 38 38 41 47 46 47 49 52 55 56 55 52 46 36 29 25 24 22 17 16 15 13 15 12 10 8 9 7 6 7 8 9
58 56 52 48 44 42 43 42 42 42 39 37 37 41 45 45 47 49 52 55 55 54 50 42 36 28 22 21 21 18 15 16 13 12 13 10 8 8 8 9 6 4 4 7
48 44 41 39 40 40 39 41 40 38 35 36 41 43 44 45 48 51 53 53 51 45 39 33 27 21 17 17 18 15 14 14 11 9 10 8 7 7 7 9 8 6 4 3
35 37 36 39 38 37 40 39 36 33 36 41 41 42 43 46 49 51 51 47 42 36 31 26 21 16 13 15 16 13 13 11 10 8 7 6 7 7 7 8 9 9 7 6
36 35 33 33 35 37 36 33 30 35 37 38 38 40 43 47 48 47 43 39 34 30 26 22 16 12 11 15 16 11 12 11 10 6 6 5 6 8 6 8 9 10 9 7
35 31 31 33 32 30 28 29 34 33 34 35 37 41 43 44 44 41 36 32 28 25 21 17 13 12 13 17 16 8 10 10 9 6 5 5 4 7 8 8 8 9 6 4
27 27 28 27 25 27 30 31 30 30 31 33 37 39 40 41 39 35 31 27 23 19 16 14 14 16 18 17 9 6 10 9 9 6 5 4 3 4 7 8 10 10 9 8

GFSNGP_500_spd_003.txt.gz
Wind_Speed
38 42 47 46 38 31 39 43 50 54 55 53 56 56 59 62 59 63 62 64 66 67 69 69 71 75 79 82 84 80 73 69 64 60 55 54 52 54 56 59 64 70 71 71
43 42 48 50 40 41 48 48 51 54 56 54 55 61 62 65 63 65 65 66 67 70 71 73 76 79 83 84 83 75 70 65 60 57 52 51 53 56 59 66 70 69 71 74
53 47 53 53 56 52 55 57 59 62 62 62 64 64 67 66 66 66 69 71 68 69 74 77 80 83 82 87 80 70 66 63 57 51 51 53 56 60 66 67 68 70 72 71
55 53 56 59 54 58 60 62 58 62 64 64 64 68 68 65 69 69 72 71 71 75 77 80 82 83 87 82 69 67 63 56 52 51 52 55 61 64 64 67 69 69 65 58
57 59 63 63 59 62 63 64 65 64 64 68 66 66 68 66 69 73 73 75 77 78 80 82 83 86 80 69 69 64 57 52 51 52 55 61 62 62 65 67 64 59 51 41
57 60 65 59 55 62 66 66 68 67 68 70 70 71 72 72 72 72 76 79 79 80 81 84 84 79 69 69 64 57 52 50 51 55 60 59 60 63 64 62 55 45 38 33
51 56 62 56 62 63 67 68 68 68 67 71 72 73 74 73 73 78 79 77 80 82 84 85 78 70 69 64 56 52 50 51 55 59 58 59 61 62 60 53 43 34 28 27
59 62 66 64 63 58 64 68 69 69 70 72 74 75 75 75 77 80 80 80 81 84 85 77 71 68 62 55 52 50 51 54 58 56 57 60 60 58 51 45 31 25 24 25
59 63 61 61 60 64 65 66 64 68 70 73 74 75 76 76 77 77 79 80 83 82 75 72 66 59 54 51 50 51 54 57 55 56 59 59 56 51 43 33 24 21 22 24
55 57 59 61 61 62 63 66 67 70 73 74 75 75 75 74 76 78 81 82 80 75 69 62 56 52 50 50 50 53 56 54 54 57 58 55 50 44 38 26 17 17 22 26
60 59 62 62 60 64 65 69 71 72 74 75 74 72 74 75 77 78 78 77 71 65 58 55 51 50 49 49 52 55 53 53 56 57 54 48 42 39 34 24 11 13 20 19
56 59 61 63 65 67 70 71 73 74 73 70 75 74 75 77 76 74 71 66 62 57 53 50 49 48 48 51 55 53 53 55 56 53 47 41 34 31 29 20 11 15 17 19
61 61 64 68 70 73 77 75 73 72 71 73 72 75 76 73 70 68 63 59 54 51 48 48 47 48 51 54 52 53 55 56 54 48 40 33 28 29 21 17 12 12 17 17
64 66 69 70 74 74 72 68 67 68 71 71 73 73 71 67 64 60 55 50 48 47 47 46 48 52 53 52 53 55 57 54 48 41 34 26 24 26 15 12 15 13 14 12
68 70 71 71 69 65 63 65 65 68 69 69 70 68 62 58 55 52 48 46 46 45 45 48 52 52 53 54 56 57 54 49 41 34 27 21 22 22 14 12 13 11 11 7
73 65 60 58 62 61 62 64 66 70 69 66 63 58 54 52 48 46 45 45 43 44 47 51 51 53 55 57 57 54 48 40 35 29 23 19 21 20 14 11 11 9 7 2
62 59 61 64 65 66 68 71 72 71 66 61 55 50 49 48 46 45 42 41 43 47 50 52 54 55 57 57 54 48 41 35 30 25 20 18 19 18 14 11 9 7 5 4
65 65 68 72 74 74 74 72 70 63 57 51 47 48 48 46 43 40 40 42 48 49 51 54 57 58 56 52 46 39 34 30 26 22 19 17 18 15 13 12 9 8 6 6
69 71 75 78 76 73 70 66 59 53 50 46 47 46 45 42 39 39 43 47 49 51 53 56 58 55 51 44 38 31 28 26 22 18 18 17 17 14 12 11 10 9 9 7
75 77 75 72 69 64 59 54 50 45 45 45 45 45 41 38 39 44 46 48 50 53 56 56 54 48 43 37 30 25 25 23 19 18 18 16 17 11 11 10 10 9 9 9
69 68 64 62 57 52 49 46 42 42 43 42 44 41 37 38 43 45 46 49 52 55 54 51 45 41 36 29 22 22 23 20 18 18 16 15 14 9 9 9 8 8 7 9
58 55 53 53 48 45 43 40 41 42 42 43 40 36 38 41 43 44 47 50 52 52 48 42 38 33 28 21 18 20 21 18 18 16 14 13 10 7 7 9 7 6 5 6
53 51 47 44 39 36 37 38 39 40 41 38 34 36 39 40 41 44 47 49 49 45 39 35 31 27 21 17 15 19 17 16 15 14 12 10 8 6 7 9 9 7 5 2
45 43 41 33 33 36 35 37 39 38 34 31 35 36 37 38 41 44 45 45 42 36 32 29 26 22 17 14 14 19 14 14 13 12 10 8 8 6 5 8 10 9 7 6
38 37 30 31 34 32 31 35 35 30 30 33 32 34 34 37 40 40 40 37 33 30 27 24 21 17 15 15 17 19 12 12 12 11 9 8 7 6 5 6 9 11 11 10
34 29 30 32 28 28 31 30 27 29 31 30 31 31 33 36 37 36 35 31 29 27 23 20 18 17 19 20 19 15 9 11 10 10 9 7 7 6 6 6 7 9 11 10
29 29 27 25 26 26 28 28 28 30 28 30 28 29 32 34 34 34 33 29 28 27 23 19 17 18 20 19 13 7 10 11 9 9 8 8 7 6 6 7 7 8 9 9

GFSNGP_500_spd_006.txt.gz
Wind_Speed
35 38 44 47 45 41 40 41 50 53 54 53 56 59 64 62 63 64 65 62 61 64 66 67 69 71 75 77 79 79 82 84 80 69 65 59 54 50 49 50 52 56 62 67
42 38 47 52 46 49 52 52 53 55 57 54 58 63 66 62 64 65 63 65 66 67 68 69 74 76 77 82 82 83 86 81 71 67 62 54 50 50 50 53 58 64 65 67
53 49 51 51 56 51 56 57 55 57 58 62 66 66 65 65 64 64 66 68 71 72 74 76 79 81 81 83 84 85 80 73 68 62 54 51 50 52 55 59 62 63 65 69
57 56 59 60 50 50 54 55 56 61 62 62 60 63 63 66 68 69 71 73 74 75 77 80 82 82 83 84 85 80 73 67 59 54 51 50 51 55 59 60 62 65 68 68
55 55 59 58 50 53 58 59 58 62 58 56 66 66 63 66 68 72 76 77 78 80 83 83 83 84 84 85 81 75 66 59 54 51 50 51 55 58 59 61 64 67 65 59
51 53 55 52 49 56 57 59 53 59 61 61 66 67 68 72 74 76 78 81 83 82 81 83 83 85 85 81 74 63 57 52 50 50 51 55 57 57 59 63 65 63 54 47
49 52 56 52 56 58 48 43 56 65 59 64 68 69 71 73 75 77 79 81 80 82 84 83 85 84 81 72 63 56 52 50 50 51 55 56 56 58 61 63 61 52 42 33
55 57 57 56 56 52 55 60 65 64 67 64 69 73 75 78 78 79 79 80 81 83 83 85 83 78 70 63 56 52 51 49 50 55 55 55 57 60 62 61 53 43 29 26
53 57 50 51 56 59 56 58 63 68 63 69 73 78 78 77 77 79 80 81 82 82 82 78 75 67 61 56 52 50 49 49 53 55 54 56 59 60 59 54 43 31 23 20
58 53 57 59 58 58 58 63 65 64 70 76 81 79 77 78 79 81 81 80 80 78 76 73 66 59 55 52 51 50 50 53 54 54 55 58 60 58 53 44 33 21 15 17
65 64 64 61 61 61 62 62 70 70 76 80 78 76 79 80 81 81 83 82 77 72 68 63 59 55 52 51 49 50 54 54 54 56 58 59 56 52 43 34 29 14 13 15
69 67 70 68 66 68 68 68 73 79 81 78 75 78 79 81 81 81 80 73 68 64 60 56 54 52 50 48 50 54 54 55 57 59 59 55 49 41 33 29 26 13 12 13
67 67 66 67 66 67 70 74 79 78 75 76 75 76 77 78 79 80 73 65 60 56 53 51 51 50 48 50 54 54 56 57 60 59 55 49 42 32 23 25 21 11 11 12
64 69 71 71 75 74 73 69 63 68 72 74 74 76 77 78 76 70 62 55 53 52 50 49 48 47 51 54 54 55 58 61 59 54 48 41 32 26 21 21 14 14 8 9
71 73 74 74 71 68 64 56 59 64 73 78 82 81 77 71 65 56 51 50 50 48 47 46 47 51 54 54 56 59 60 57 52 46 40 31 26 22 19 18 12 9 6 6
75 74 72 73 71 66 64 62 65 70 79 82 80 74 66 58 50 48 47 48 47 45 43 47 51 53 54 57 60 60 56 51 44 37 30 26 23 19 17 16 10 7 7 7
75 72 66 66 63 65 65 66 71 81 82 74 67 61 53 47 45 45 46 44 42 42 47 50 52 54 58 61 59 54 48 43 35 29 26 23 20 17 16 14 9 7 7 9
74 70 66 64 67 72 76 80 80 76 71 64 55 51 46 44 44 46 43 40 41 46 49 50 53 57 59 57 51 46 41 33 27 26 24 20 19 15 15 12 9 7 7 10
68 65 65 69 75 77 76 74 69 63 59 54 48 44 43 42 45 43 39 41 45 47 49 52 56 57 54 48 43 38 30 25 26 26 22 20 17 14 15 10 8 7 7 12
70 71 71 71 71 70 65 61 57 54 51 44 41 41 41 44 42 39 40 44 45 48 52 54 55 51 43 40 36 29 23 24 26 24 20 19 15 15 13 9 7 7 7 10
67 69 68 64 60 58 57 53 50 48 39 39 39 41 43 40 37 39 41 43 46 49 52 53 47 40 37 33 28 22 22 25 24 21 19 16 14 15 9 7 8 7 5 6
61 61 59 56 54 53 50 47 41 35 39 39 39 41 37 34 37 38 40 43 47 49 50 43 37 34 31 27 22 18 21 24 21 19 18 15 13 13 7 6 8 7 5 5
56 55 52 49 47 48 44 38 33 38 36 34 37 35 32 34 34 36 40 43 44 44 37 33 31 28 26 22 19 18 23 22 18 18 17 13 12 11 6 6 8 8 7 6
54 51 48 45 44 39 35 31 35 33 32 34 31 31 31 30 33 34 38 39 39 36 32 31 28 24 23 22 21 22 23 19 17 17 15 13 12 10 5 5 6 8 9 8
52 48 44 42 38 31 30 32 30 30 30 30 30 30 28 29 30 32 36 36 37 35 31 31 27 23 22 24 26 23 19 13 15 15 14 12 12 10 5 5 5 7 8 9
50 45 40 36 33 32 30 28 27 27 30 29 28 26 28 28 27 30 33 35 36 36 32 30 27 23 22 22 26 20 12 13 14 13 13 12 12 11 8 5 4 4 6 7
41 38 33 29 28 27 27 27 30 31 30 26 25 27 28 27 26 28 30 33 35 35 34 31 27 25 22 21 21 18 12 14 14 13 13 13 12 12 10 8 6 4 5 6

GFSNGP_500_spd_009.txt.gz
Wind_Speed
31 36 40 42 40 39 43 45 47 46 44 41 46 54 54 56 56 53 57 56 57 61 63 64 66 69 73 75 76 77 79 80 80 78 76 71 61 54 51 49 48 49 51 54
35 35 40 45 40 44 44 43 41 43 46 48 51 52 52 51 54 55 57 61 64 66 69 72 74 76 78 79 79 82 82 82 80 78 69 60 55 50 49 49 50 52 56 57
46 44 48 44 37 39 42 42 43 47 53 54 49 46 54 62 61 59 68 68 69 73 75 77 78 79 80 81 82 82 82 80 75 66 58 52 48 48 49 49 52 54 55 58
50 49 51 43 39 41 45 46 47 47 49 44 48 56 54 68 58 70 67 70 73 76 78 79 80 81 82 82 81 80 78 75 67 58 51 48 48 48 48 53 53 54 57 60
46 48 50 43 49 53 54 51 48 48 50 52 53 56 61 64 69 70 72 76 78 81 82 81 82 84 82 81 79 76 74 64 57 51 48 48 47 48 52 52 54 56 60 61
44 49 52 47 51 52 50 52 54 57 56 58 58 63 64 64 67 72 77 83 86 85 82 83 83 82 82 80 75 71 63 57 51 48 48 47 48 52 52 54 56 59 60 58
43 47 52 50 52 51 54 59 57 59 61 61 63 65 69 68 70 74 81 85 83 82 83 84 83 82 81 77 70 64 57 51 49 48 47 49 53 53 54 55 58 59 56 49
52 55 55 51 54 53 55 57 59 62 62 61 61 65 69 74 78 81 81 78 80 83 83 83 83 82 77 69 63 57 51 50 48 47 50 53 53 54 56 58 58 56 48 39
51 57 51 53 59 58 60 61 63 64 62 64 69 70 76 79 83 81 77 80 83 83 85 83 83 76 66 61 56 52 50 49 47 50 54 54 54 56 58 58 55 48 38 30
59 56 55 61 60 60 62 63 62 64 63 67 72 73 70 74 81 77 78 84 82 89 85 81 75 63 57 54 53 52 50 48 51 54 55 55 57 58 57 54 49 40 29 19
62 61 65 62 65 66 64 65 69 69 73 74 73 71 73 76 76 78 82 84 86 91 80 71 59 54 52 52 53 50 48 51 55 56 56 58 59 58 53 49 43 30 21 14
63 63 66 65 64 66 69 72 74 74 75 75 75 73 75 76 76 79 83 83 92 79 66 57 54 53 53 51 49 48 52 56 56 57 59 59 57 52 48 42 33 22 15 10
65 64 66 67 68 70 73 72 73 74 71 72 73 75 73 75 77 80 84 89 74 62 53 51 52 52 50 48 49 53 56 56 58 60 58 55 51 46 37 30 26 19 12 10
63 67 69 70 68 69 69 67 69 70 70 75 74 71 71 76 84 86 78 65 55 50 49 50 50 48 46 49 53 55 57 59 59 57 53 48 43 37 29 23 17 19 12 9
68 69 69 68 69 71 69 69 65 68 73 73 73 75 80 86 79 68 56 51 48 47 49 47 46 47 50 53 55 58 58 57 53 48 43 38 33 28 23 17 14 13 12 10
70 68 70 71 71 64 69 68 69 70 72 75 77 79 81 71 63 54 47 45 46 48 46 43 46 50 52 55 58 58 56 51 45 38 32 28 27 22 18 13 12 10 10 10
69 72 68 72 69 69 69 70 71 75 78 78 76 73 63 59 52 43 43 44 46 44 42 45 48 51 55 57 57 51 45 40 35 28 26 26 23 19 16 11 11 9 8 10
67 67 64 63 67 69 71 73 78 75 73 67 65 63 56 51 40 41 43 45 41 41 43 46 49 53 55 54 46 41 36 32 26 24 27 24 19 18 13 11 10 9 7 9
66 66 69 68 69 72 72 72 69 65 63 61 59 52 45 38 40 42 43 38 39 40 44 48 51 53 51 44 40 36 31 25 24 27 25 22 20 15 11 12 8 8 6 8
66 69 69 70 69 69 67 64 61 59 58 54 47 38 37 40 39 41 36 37 37 40 44 47 50 47 41 38 35 31 26 21 27 25 23 21 17 14 13 10 7 8 6 6
68 67 67 66 64 63 61 61 57 55 53 46 36 36 39 36 37 33 34 33 36 40 43 45 45 38 36 32 28 27 21 23 28 23 22 20 17 13 13 9 6 7 6 5
67 68 65 63 62 59 58 55 53 49 45 38 34 36 34 34 30 31 29 31 35 38 40 42 41 36 34 29 26 26 26 26 26 22 21 20 16 14 12 8 7 7 7 5
65 63 62 61 61 58 52 50 46 40 35 32 33 31 31 28 30 26 28 30 32 35 38 40 41 36 33 29 26 29 29 25 21 19 19 18 16 14 10 8 7 7 7 7
64 64 64 63 62 58 50 44 39 31 30 30 29 28 29 29 26 24 25 29 31 34 36 38 41 37 33 30 27 28 29 21 16 17 18 17 16 14 10 8 8 7 6 7
65 65 62 59 54 47 38 36 31 27 27 27 26 28 28 25 24 25 26 29 31 34 36 38 40 39 35 31 29 24 26 18 18 17 15 16 15 14 12 8 7 6 5 6
61 58 52 47 40 29 27 26 24 25 25 26 28 29 25 24 25 25 28 30 32 34 36 38 39 38 36 32 30 27 22 18 17 18 15 15 15 13 12 11 7 6 5 6
45 41 36 28 21 20 19 19 20 20 23 27 30 27 24 25 26 27 29 31 33 35 36 38 37 38 35 33 30 28 23 20 18 17 17 15 14 14 12 12 10 6 5 5

GFSNGP_500_spd_012.txt.gz
Wind_Speed
26 30 34 30 34 36 38 36 40 37 39 43 46 47 49 49 50 54 54 56 58 61 62 68 68 73 77 81 83 81 78 77 76 76 74 72 71 67 59 52 50 49 49 50
27 36 40 35 35 37 37 37 40 42 44 45 45 47 50 50 54 54 57 56 62 67 68 68 72 77 83 85 82 79 79 79 79 76 72 69 65 57 52 50 49 49 50 51
39 38 40 29 33 33 36 36 42 43 41 42 46 50 51 52 54 56 54 58 65 68 70 73 77 81 85 82 82 81 81 82 80 75 65 57 52 49 48 48 48 48 51 53
43 41 43 27 37 38 44 43 42 44 47 51 52 52 55 55 58 58 60 62 67 73 74 76 79 83 83 82 84 84 84 83 78 68 58 52 47 47 48 47 47 50 51 52
38 43 47 37 45 48 53 51 51 48 53 53 53 55 53 56 59 61 67 73 76 77 78 83 87 92 88 84 87 87 87 82 68 56 50 47 46 45 44 46 50 50 51 53
39 46 51 44 49 52 55 55 54 56 57 58 58 61 60 61 65 71 75 78 79 80 80 84 89 95 90 90 84 95 85 66 56 51 48 47 46 45 47 50 51 51 53 54
40 45 49 47 50 52 56 60 61 61 60 60 61 63 66 70 72 72 71 76 81 83 80 84 88 89 92 93 91 88 65 55 52 50 49 47 45 48 52 53 52 53 52 52
48 53 52 53 54 54 57 60 60 59 59 60 62 65 70 72 74 77 76 77 77 80 80 80 82 87 90 90 79 62 54 51 51 50 48 47 49 53 55 54 54 53 50 47
49 54 49 50 56 58 58 62 61 60 62 64 67 69 69 74 77 77 78 78 79 78 77 79 86 91 84 62 55 53 52 52 51 49 49 51 54 56 56 56 54 50 47 43
56 51 55 59 57 59 60 62 61 65 67 68 71 74 77 78 79 78 78 79 84 85 87 83 93 70 55 53 53 53 54 52 49 50 54 56 57 58 58 56 53 47 42 34
61 57 63 61 62 63 64 67 70 70 70 71 74 78 80 79 79 79 80 81 80 83 87 90 68 54 50 51 53 53 51 50 53 56 57 59 60 60 57 54 50 42 34 25
61 56 62 63 66 66 68 71 71 72 72 76 78 80 79 78 79 79 80 84 87 87 75 58 50 49 51 52 51 50 51 55 57 59 61 61 59 54 51 48 43 36 25 16
60 61 62 67 66 67 71 68 68 71 76 76 77 77 77 79 80 81 84 85 77 65 54 47 47 50 50 49 50 52 55 57 60 61 59 55 51 46 40 37 36 27 18 14
62 66 66 67 69 68 65 69 72 73 72 72 75 75 78 78 84 86 79 68 62 50 45 45 49 49 47 49 52 54 58 59 58 53 49 45 40 36 33 30 24 22 16 12
63 65 66 66 65 65 69 72 73 76 73 72 74 76 79 81 81 71 66 55 45 42 44 48 47 47 48 50 54 57 57 52 48 44 40 35 30 30 28 23 19 14 13 11
63 64 64 65 66 68 68 67 71 70 69 75 76 79 78 71 66 64 53 44 41 43 47 44 44 45 49 53 55 54 48 44 41 36 32 28 29 26 23 20 15 11 11 9
63 64 66 59 62 63 63 71 68 66 70 76 77 71 66 63 59 51 42 41 41 44 42 41 42 46 49 52 50 45 42 39 35 31 29 29 26 22 21 17 11 11 8 9
65 67 67 65 66 67 66 65 69 72 74 71 66 61 60 58 50 40 40 41 41 39 38 38 42 45 47 47 43 41 37 34 28 29 30 26 24 22 18 13 12 9 7 8
69 66 67 68 69 69 71 72 72 72 69 62 59 57 55 50 42 37 40 39 36 35 34 37 39 41 45 44 40 38 33 30 27 30 30 26 24 20 16 14 12 8 7 8
65 66 62 62 66 69 72 73 72 67 62 60 56 53 48 45 36 38 37 34 33 29 31 35 37 39 42 43 39 36 33 33 32 29 28 25 23 19 17 16 11 7 7 8
63 62 63 66 70 71 71 70 67 64 60 57 53 47 42 34 35 35 33 31 29 27 31 34 36 38 40 43 39 37 34 33 32 25 23 23 22 19 17 15 10 7 7 8
65 66 68 70 71 70 66 66 66 65 61 54 46 38 31 31 31 30 30 29 25 27 31 34 36 38 40 41 41 37 35 32 29 23 21 21 21 20 18 15 11 8 7 8
67 68 70 68 67 67 66 67 64 60 51 40 31 27 26 28 27 28 30 25 24 28 31 33 37 39 41 42 40 38 36 32 27 24 22 20 20 20 18 15 11 8 8 8
65 63 65 66 67 67 61 53 48 39 30 22 20 23 24 24 25 27 24 24 25 28 31 34 37 39 40 41 39 38 35 32 27 22 23 20 20 19 18 16 14 10 9 8
62 64 64 62 56 48 44 37 25 16 15 15 20 20 21 24 26 24 23 24 26 27 31 34 37 38 38 39 38 36 36 32 28 23 21 21 19 18 17 16 14 13 11 9
59 55 49 42 38 34 24 16 12 11 15 16 16 18 22 27 26 23 23 25 26 29 32 34 36 39 38 37 37 36 33 32 30 25 22 20 20 18 17 16 13 12 11 10
42 36 34 31 28 25 19 14 10 14 13 13 17 20 24 25 23 23 23 25 28 30 32 34 37 39 38 38 37 35 33 31 29 27 23 22 19 18 17 16 15 11 10 9

GFSNGP_500_spd_015.txt.gz
Wind_Speed
27 30 30 26 30 32 36 36 39 36 36 40 43 44 46 48 53 54 55 56 57 58 60 62 64 68 73 76 77 80 82 86 91 93 95 87 84 83 73 62 52 49 48 47
27 35 37 29 31 35 34 32 38 40 42 46 46 48 48 50 52 54 58 59 58 58 62 65 71 73 76 80 82 84 84 84 92 92 85 86 87 70 58 52 51 52 53 51
32 33 33 26 30 33 34 37 42 44 45 44 43 46 50 51 56 56 57 60 61 63 68 71 73 77 79 83 87 88 86 86 86 87 86 83 64 50 47 48 49 49 48 46
38 37 33 20 33 37 40 41 43 45 44 46 48 51 54 59 60 60 62 62 66 68 70 75 78 80 81 82 86 87 83 82 87 86 71 53 47 45 47 48 47 46 45 47
37 39 41 26 38 41 45 48 48 50 52 54 53 57 57 58 58 63 67 69 71 72 75 78 85 85 84 85 86 90 85 83 86 65 53 47 46 46 46 45 44 44 47 50
35 41 43 36 46 51 55 56 56 57 58 58 61 64 65 66 70 71 71 72 73 77 80 83 85 87 83 87 86 84 81 79 61 52 49 49 48 47 45 44 45 48 51 52
37 42 45 43 50 51 54 59 60 61 61 62 64 66 68 70 71 72 74 75 78 82 85 83 83 83 84 88 85 75 62 54 50 51 50 48 47 46 47 49 51 53 53 54
38 44 44 47 52 56 60 61 60 59 61 61 65 68 71 73 74 74 74 78 82 84 84 83 86 87 89 82 67 58 51 48 50 50 49 48 49 51 53 55 55 56 56 53
42 46 43 49 57 61 63 64 62 61 66 69 72 74 76 77 78 79 82 84 85 85 83 83 88 96 80 66 58 50 49 51 51 51 51 53 54 56 57 59 59 57 55 50
47 46 50 56 57 59 64 63 63 65 69 72 73 76 77 76 77 80 83 84 85 86 84 87 90 74 63 54 49 50 51 51 52 53 55 57 60 61 61 59 57 53 49 42
54 56 60 58 58 65 65 64 66 72 75 76 78 77 78 80 81 80 81 82 85 85 91 81 68 56 50 47 49 50 49 51 53 56 59 60 60 57 54 52 48 41 35 29
62 63 66 64 65 70 70 68 72 75 75 74 73 74 78 77 78 79 80 83 85 89 73 63 53 46 46 49 47 47 50 53 57 59 58 55 51 48 46 42 39 34 29 22
65 67 68 68 65 69 67 75 74 72 73 74 75 74 75 77 74 78 85 85 83 70 61 52 45 43 47 45 46 49 53 56 57 53 50 47 44 41 37 35 35 32 26 20
69 70 69 68 68 64 74 73 72 73 74 75 69 72 72 72 81 82 82 73 66 59 51 44 42 46 45 43 47 50 53 53 49 46 44 41 37 35 35 32 27 25 23 15
69 69 68 69 70 70 72 73 72 72 71 69 63 70 74 75 74 74 68 63 58 53 44 42 43 43 41 43 46 49 49 47 44 41 38 34 35 34 31 28 25 22 15 12
67 68 70 70 70 71 70 71 68 64 63 66 72 71 71 73 70 64 60 57 52 44 43 42 41 38 39 43 45 47 47 44 41 38 32 34 35 31 29 26 23 17 15 12
70 68 68 70 71 70 67 62 66 69 66 66 68 74 74 71 65 59 57 52 47 39 40 40 37 35 38 42 43 45 46 43 40 38 35 34 34 31 28 24 20 18 15 9
67 66 63 60 68 69 67 66 68 66 65 67 72 74 73 67 60 57 53 49 37 37 38 36 32 34 38 40 41 43 44 43 40 37 37 30 29 29 26 22 20 18 11 7
71 71 71 71 72 72 72 69 67 68 70 74 75 72 67 63 59 54 47 37 34 36 34 31 29 33 37 39 40 41 43 43 40 38 31 27 27 27 25 22 20 16 10 7
71 71 70 69 68 67 68 69 73 73 74 74 72 70 68 65 55 44 35 30 32 31 32 27 28 32 37 39 41 41 41 42 40 37 29 26 26 25 24 23 20 16 10 8
66 66 66 66 67 68 69 71 73 72 71 72 73 69 61 49 38 29 24 26 27 30 29 25 28 32 36 39 40 42 40 40 39 36 30 26 25 25 25 24 19 15 10 9
63 64 65 66 68 69 68 68 70 71 71 68 59 49 38 27 21 20 22 23 26 28 24 25 29 33 36 38 39 40 40 38 38 36 31 26 24 24 24 24 21 16 12 9
64 64 65 67 67 66 66 67 66 62 56 51 39 26 17 14 15 18 19 23 26 24 23 25 29 32 35 37 39 39 39 38 36 34 32 27 25 24 23 23 22 17 14 11
62 62 62 64 66 66 64 55 48 43 39 26 16 13 13 15 15 15 20 24 25 24 24 26 29 32 35 37 38 38 38 37 35 32 31 28 25 23 23 22 22 20 15 14
60 61 63 63 61 53 44 38 33 29 23 17 15 16 16 14 15 19 24 24 23 23 25 27 30 33 35 36 38 38 37 36 34 31 29 28 25 24 21 21 20 20 17 14
56 57 56 52 40 34 32 30 26 22 17 16 16 14 14 16 18 24 23 22 23 24 26 29 31 32 33 35 36 36 37 36 34 31 28 27 26 23 22 20 19 17 18 15
49 48 42 34 30 31 30 27 23 20 18 18 17 19 19 19 22 23 23 24 24 26 27 25 26 29 31 33 35 36 36 34 32 30 28 27 27 24 22 19 18 17 16 14

GFSNGP_500_spd_018.txt.gz
Wind_Speed
33 32 30 28 30 34 40 39 41 38 38 41 42 46 48 49 52 56 60 60 63 66 67 67 68 70 72 73 75 79 82 85 90 95 93 92 89 83 76 65 50 44 45 47
32 35 35 28 31 35 34 34 37 40 42 42 44 47 49 52 57 58 62 64 66 67 67 68 70 71 72 73 78 82 86 87 87 89 88 83 74 67 48 40 41 46 49 50
30 35 32 25 28 34 35 34 37 41 43 44 45 50 51 54 57 61 65 66 67 69 71 72 73 74 73 77 83 88 87 86 90 89 81 70 62 52 43 42 43 46 48 48
40 34 32 21 30 37 38 37 39 45 45 49 51 54 56 59 61 65 67 69 72 73 74 75 75 77 79 82 88 88 87 87 86 75 67 59 51 48 47 45 44 44 44 45
43 42 42 23 30 37 42 41 45 47 51 55 58 59 62 61 66 70 75 77 78 80 79 78 79 82 83 87 88 90 90 82 71 64 56 51 49 48 47 46 45 44 45 47
41 43 44 32 40 43 47 50 53 55 56 59 62 65 66 70 75 78 81 84 83 82 80 81 84 83 85 83 87 91 81 69 60 52 49 50 48 48 47 48 50 50 51 53
38 40 40 36 42 47 50 55 56 60 63 65 68 69 73 73 75 81 83 82 82 80 81 85 88 87 87 87 86 78 67 58 51 49 50 49 49 51 53 54 55 56 56 57
37 37 38 43 47 49 53 56 58 63 66 68 68 72 72 72 77 86 84 82 72 74 84 89 87 85 87 84 74 64 55 50 51 51 50 52 55 57 58 58 58 57 55 53
38 41 41 48 52 55 59 62 65 65 72 66 67 73 75 72 81 81 81 78 78 79 80 84 85 88 84 73 62 53 51 52 49 51 54 57 58 59 57 54 52 49 47 43
45 42 48 53 56 60 61 65 68 71 67 71 72 78 77 78 87 82 83 82 79 78 79 85 85 79 71 61 51 48 49 48 50 53 56 58 57 53 51 49 46 43 38 34
50 53 58 57 63 65 67 69 72 65 73 77 72 66 74 84 82 82 79 79 79 76 76 79 75 67 59 50 46 47 47 48 51 54 55 53 51 49 47 44 40 36 35 32
56 59 62 63 65 67 72 76 72 70 74 72 70 72 78 79 79 75 75 76 79 74 77 75 65 59 48 45 45 45 45 48 51 53 52 49 46 42 42 41 40 38 34 28
60 62 65 66 70 74 76 76 75 73 74 75 75 77 78 79 76 77 79 77 75 73 72 63 57 51 44 43 43 42 44 47 50 51 49 45 41 38 38 37 38 34 30 25
65 66 69 72 75 77 75 72 74 77 76 76 77 75 79 74 72 78 71 70 71 72 62 57 53 44 42 42 39 41 44 46 48 49 47 44 41 39 38 35 32 29 26 18
68 69 72 74 73 72 74 77 75 75 76 74 75 78 74 69 75 72 70 69 69 62 56 53 47 39 40 37 36 40 43 44 45 48 46 44 41 36 34 33 29 25 21 19
72 72 71 71 72 73 75 75 75 75 74 74 74 73 72 70 70 69 70 68 61 57 54 47 38 37 36 33 35 40 42 42 44 46 45 42 36 33 32 31 26 24 22 18
70 71 71 70 71 74 73 73 74 73 73 74 73 71 72 72 71 69 67 64 61 55 48 38 33 33 32 30 34 39 41 42 42 43 44 40 34 31 31 29 26 24 20 14
68 68 70 71 70 69 72 74 73 73 72 73 74 74 74 72 69 68 67 61 52 41 34 28 28 30 28 29 34 39 41 42 41 41 41 39 34 30 30 28 27 24 18 11
71 70 71 73 73 75 74 74 74 74 74 74 73 72 71 72 72 64 53 42 31 25 22 24 25 28 25 28 33 38 39 41 40 39 39 37 33 30 29 28 27 24 19 12
70 72 74 74 71 70 72 72 73 72 71 71 71 72 72 65 56 49 36 23 17 16 19 21 26 24 24 28 33 37 39 39 39 38 36 35 32 29 27 27 27 23 19 13
72 72 68 66 68 68 67 68 69 69 69 70 69 63 55 50 39 26 16 13 14 16 18 23 25 22 24 29 32 37 38 38 38 37 35 33 32 28 27 26 25 24 20 14
65 64 64 65 66 65 64 65 67 68 66 59 51 46 37 28 21 15 14 15 14 16 21 24 23 22 26 29 33 36 37 37 37 36 34 31 30 29 26 25 24 24 21 17
61 61 62 63 62 62 63 65 64 59 51 47 40 30 26 22 18 18 17 14 16 21 23 24 23 25 27 30 33 35 35 36 36 35 33 30 28 28 26 25 24 23 21 19
60 60 59 59 60 62 62 57 52 42 41 39 31 26 22 21 19 17 16 19 22 23 22 23 25 27 29 31 31 32 34 36 36 34 31 29 28 26 26 25 24 22 21 19
57 57 57 58 58 56 52 50 38 35 34 30 27 22 21 17 17 18 18 21 21 22 24 26 26 28 28 26 28 31 34 36 34 32 30 29 28 26 26 25 24 22 20 18
52 51 52 51 51 50 48 41 33 35 30 26 24 23 22 21 21 21 21 23 23 25 26 26 27 24 25 26 27 32 35 35 32 30 29 29 28 26 27 25 22 21 19 17
44 46 46 44 44 44 40 30 31 29 28 26 24 23 25 25 25 25 25 24 26 25 25 25 24 24 25 27 30 33 36 35 31 29 29 29 28 28 29 25 21 20 19 16

GFSNGP_500_spd_021.txt.gz
Wind_Speed
33 32 32 31 33 36 39 40 42 36 35 38 37 39 43 44 48 52 55 57 60 64 67 68 70 73 74 76 78 77 76 80 84 84 87 92 93 84 72 65 56 48 43 43
35 38 35 30 31 34 37 38 39 39 39 40 42 46 48 51 54 56 59 63 65 68 71 71 74 79 81 80 78 79 83 86 92 95 94 94 82 69 63 53 48 46 45 45
42 40 39 31 30 36 37 35 38 40 40 43 46 50 52 54 57 59 65 68 71 72 72 76 79 84 84 84 84 86 89 93 92 91 92 74 65 57 52 51 50 48 46 44
50 47 43 27 33 39 40 35 38 41 42 44 49 52 53 57 62 68 72 72 73 75 76 76 82 86 86 84 84 86 86 87 91 84 69 61 53 51 51 51 49 48 48 49
52 53 47 24 28 33 37 33 38 41 43 48 52 57 60 64 68 72 75 76 78 82 80 80 83 86 87 84 83 85 89 88 82 67 54 50 52 51 49 51 52 54 55 56
50 50 47 36 33 32 35 38 40 45 50 54 59 64 67 71 74 75 76 78 81 82 85 82 87 89 88 83 84 87 86 78 65 52 49 50 49 52 54 56 58 59 58 57
44 44 39 34 37 38 42 47 50 53 57 60 64 67 71 77 74 76 75 76 79 84 90 88 90 88 82 84 86 84 74 63 53 49 50 50 52 55 57 58 58 55 53 52
40 34 32 34 39 41 46 50 55 57 61 65 67 70 75 72 68 73 81 79 75 78 86 89 85 79 80 80 77 73 63 54 49 49 48 50 53 56 58 56 52 49 46 43
34 31 34 38 42 47 52 56 59 63 66 67 72 75 76 73 75 78 80 76 78 83 82 81 77 79 76 75 74 63 55 48 48 46 48 51 54 57 56 52 47 42 41 38
39 34 41 46 49 54 57 61 65 67 69 73 75 76 77 75 77 77 76 78 81 79 80 77 80 76 72 72 64 56 47 46 44 46 49 51 54 56 52 47 43 42 38 34
42 42 48 49 54 56 61 66 70 72 72 75 77 76 77 76 75 77 79 80 77 83 78 76 76 72 68 63 56 48 44 43 43 46 48 49 53 53 49 46 43 39 35 32
49 52 56 59 62 66 70 71 72 75 76 77 77 79 78 76 77 79 80 78 81 80 75 71 69 67 60 53 49 42 41 40 43 46 46 48 50 50 47 43 39 37 34 29
55 59 61 65 68 72 74 75 75 74 74 76 76 76 81 82 82 82 81 80 77 73 70 69 64 57 53 49 42 38 37 37 42 44 43 46 48 47 39 37 38 35 30 24
59 62 65 69 72 74 73 73 72 72 74 76 80 80 80 80 80 78 75 74 72 71 68 64 59 56 51 42 35 34 32 36 41 43 41 44 46 44 36 33 32 30 28 22
63 67 70 72 72 72 71 71 71 74 77 77 79 79 80 78 76 74 72 72 71 68 66 63 56 48 39 31 29 28 29 34 41 42 40 43 44 42 34 32 30 29 26 24
67 69 70 70 70 69 69 72 74 74 75 75 75 76 76 75 74 72 71 71 71 66 57 47 39 30 25 22 24 24 27 34 40 40 40 41 42 40 33 31 30 29 25 21
67 65 65 65 67 69 72 73 75 77 77 75 75 74 73 71 71 71 70 67 59 51 41 31 22 17 16 20 22 22 27 34 39 39 39 39 40 38 34 29 29 28 24 18
65 67 67 70 72 72 73 75 76 75 73 73 73 71 69 69 70 65 58 52 46 34 24 16 12 14 16 20 19 22 28 34 38 37 38 38 39 35 33 29 28 26 23 18
67 68 70 72 73 76 77 76 74 72 71 71 70 67 67 63 54 51 45 37 28 17 13 12 14 15 19 20 19 24 28 33 37 36 37 38 38 33 32 29 26 25 23 18
66 69 72 73 74 74 72 71 72 70 68 68 67 65 57 45 44 36 29 24 18 15 15 15 15 18 20 20 21 25 29 33 35 35 37 38 37 32 30 30 26 24 22 19
68 70 73 73 72 68 68 69 68 65 64 64 62 55 42 39 34 28 23 18 19 18 15 18 19 19 20 21 23 26 30 32 33 35 37 38 35 31 28 28 27 24 21 20
69 71 69 66 65 63 63 63 62 62 60 56 53 44 38 33 28 23 21 21 18 16 20 23 20 20 21 23 25 28 29 30 32 36 38 36 32 30 28 27 28 25 22 19
65 62 61 61 61 59 58 59 60 57 51 51 45 37 33 29 23 22 20 18 19 21 22 20 20 23 24 25 27 26 26 29 33 37 38 34 30 29 28 26 26 26 23 20
57 57 57 56 55 56 56 56 52 49 49 42 36 34 30 27 23 21 21 22 22 21 23 22 24 25 25 26 23 23 26 30 34 38 38 33 29 28 28 26 27 27 23 20
56 55 53 53 50 49 51 51 47 46 40 32 33 33 29 26 25 24 25 25 25 26 25 26 26 25 23 22 23 24 28 31 34 38 38 34 30 28 28 27 28 27 23 19
53 51 50 46 43 45 47 48 46 42 34 27 30 32 30 28 27 26 27 28 28 26 25 24 24 23 22 22 24 26 29 32 35 37 39 35 31 28 28 28 28 26 22 19
49 46 44 41 41 43 45 46 44 39 35 32 32 33 33 29 27 27 28 27 24 23 22 23 23 22 22 23 25 27 31 33 35 37 39 36 31 29 29 28 28 26 22 20

GFSNGP_500_spd_027.txt.gz
Wind_Speed
25 29 33 38 42 43 41 38 38 29 28 29 33 32 34 37 39 41 46 51 57 62 66 70 74 77 80 82 82 80 76 83 85 84 86 86 84 86 81 74 68 57 52 53
28 33 38 43 44 42 38 36 33 33 30 28 27 29 29 34 41 44 50 54 61 66 70 76 80 83 85 84 83 78 86 86 84 85 86 84 84 79 73 67 58 52 51 52
32 38 42 46 41 38 34 35 36 32 30 30 32 35 37 42 46 52 58 63 67 72 76 79 81 82 65 73 89 85 85 85 85 85 83 79 76 70 65 59 52 50 51 54
39 43 48 45 41 37 32 28 28 31 32 34 38 42 44 50 54 58 63 68 73 77 78 79 76 68 82 86 84 85 85 84 84 81 77 74 70 65 57 53 50 50 53 55
42 46 50 42 37 34 30 23 28 30 33 37 41 46 50 55 58 62 68 72 76 79 79 77 79 81 81 84 84 84 84 85 79 75 72 67 62 56 52 50 49 51 54 55
43 47 50 39 40 30 30 31 31 36 40 44 47 52 55 59 65 71 77 79 82 82 78 79 79 82 83 83 82 83 85 79 75 71 66 60 55 51 49 48 49 51 53 57
44 49 47 40 34 34 33 38 42 45 48 50 55 59 62 68 73 78 80 82 81 80 81 82 84 84 86 85 83 84 82 77 70 65 59 53 51 48 47 47 49 50 53 58
47 48 45 40 37 39 41 43 46 49 53 57 60 64 69 75 78 80 81 80 80 82 83 83 84 85 85 84 83 82 77 71 67 62 56 51 47 44 44 46 49 49 53 53
47 40 39 41 44 44 46 49 52 55 58 61 65 70 75 78 80 81 79 80 81 82 84 84 84 84 84 83 78 79 74 70 65 59 52 44 40 39 41 46 46 49 52 46
48 35 39 41 43 46 49 53 56 58 62 66 70 74 76 78 77 78 79 80 82 84 85 85 83 81 79 78 74 73 69 61 53 45 37 34 33 36 41 44 45 48 48 42
49 44 44 43 45 49 53 57 60 63 66 71 74 76 78 78 79 78 80 82 84 85 83 81 79 76 75 74 69 61 53 45 37 30 26 30 28 35 41 43 44 47 45 41
47 44 46 49 54 55 57 61 64 68 72 74 76 77 79 78 78 81 83 84 83 81 79 77 75 72 69 64 59 51 40 32 24 20 29 23 29 36 40 41 43 44 43 39
47 48 50 52 55 58 62 65 68 70 72 73 75 76 76 78 80 82 82 81 80 77 74 72 70 63 58 51 43 33 24 19 15 24 20 24 31 37 39 40 42 40 38 37
48 50 53 56 58 62 65 68 70 71 74 74 75 75 77 79 81 81 80 77 75 71 69 64 56 51 43 35 27 21 16 14 20 19 20 27 33 38 38 40 42 39 36 35
52 55 58 61 64 67 68 70 71 71 72 72 74 76 78 80 79 78 75 72 69 67 60 51 44 36 29 25 21 18 18 21 21 19 23 29 35 37 38 41 40 35 35 34
57 60 62 65 67 68 70 70 71 71 71 73 74 76 77 76 76 73 70 68 65 57 46 38 31 24 23 22 21 22 23 21 20 22 26 31 34 36 39 41 36 33 33 32
60 62 65 68 69 69 69 69 69 70 72 74 75 75 75 74 71 68 66 62 55 45 36 30 22 22 21 22 25 26 23 22 23 25 28 31 32 36 40 39 33 31 32 30
65 67 69 68 67 68 68 69 70 70 72 74 74 72 71 68 67 65 59 53 44 34 30 24 22 22 22 25 27 27 24 23 25 26 29 30 31 35 40 37 32 31 31 28
69 69 67 67 67 67 67 69 70 72 72 71 69 67 65 64 63 57 52 43 33 29 24 23 23 22 24 27 26 24 25 26 26 27 28 28 32 35 38 38 32 30 30 29
69 68 66 65 66 67 67 69 70 69 67 66 65 62 60 59 56 49 43 38 31 26 24 24 23 23 25 24 24 26 29 28 27 28 26 28 32 35 37 38 33 30 29 29
66 63 63 64 66 67 67 67 67 65 63 62 60 58 56 51 48 44 37 34 29 26 24 23 24 24 24 24 25 29 29 27 27 25 25 29 32 34 36 39 35 30 29 29
61 62 63 64 65 66 65 63 62 61 60 57 56 54 51 46 44 41 37 33 31 28 26 25 24 25 24 25 28 29 27 26 25 25 26 29 31 33 35 38 38 32 29 29
62 63 64 65 64 63 60 59 59 57 54 53 52 49 47 44 43 39 37 34 32 30 27 26 26 26 27 28 28 26 25 25 25 26 27 28 30 32 35 37 40 35 30 29
61 62 63 62 60 58 57 56 54 52 51 50 46 47 45 41 39 38 35 32 31 29 27 25 26 27 27 26 26 24 25 25 26 26 26 28 30 32 36 37 41 38 31 29
60 60 58 57 56 55 54 52 51 51 49 45 44 44 41 38 36 35 32 31 29 28 28 27 25 24 25 25 25 25 25 26 26 26 26 28 31 34 37 39 40 42 34 30
57 56 56 54 53 53 52 50 48 45 43 40 40 40 38 34 32 32 29 29 28 28 29 28 26 25 27 25 25 27 27 29 28 27 29 31 34 37 38 39 39 42 36 31
54 53 51 50 50 48 46 43 42 40 38 38 36 36 31 28 29 29 27 27 27 27 27 27 27 27 26 26 28 29 30 30 30 30 32 34 37 38 38 39 38 41 38 32

GFSNGP_500_spd_030.txt.gz
Wind_Speed
17 20 25 30 36 42 42 37 36 31 26 27 30 28 29 32 32 37 40 44 50 55 60 65 73 78 82 83 85 83 81 82 85 84 85 84 84 82 79 74 70 65 61 54
22 24 27 32 36 42 43 39 35 31 26 23 24 28 28 32 36 43 47 50 55 60 67 73 78 82 84 86 85 84 85 84 85 86 85 83 83 80 74 69 63 58 53 49
25 29 31 36 37 43 41 36 34 30 26 28 28 30 36 39 41 46 51 55 60 66 74 79 83 86 87 86 85 84 84 85 87 88 82 80 78 71 65 60 55 50 48 47
29 32 34 37 39 42 38 34 31 29 30 33 36 39 43 46 49 53 57 62 67 75 79 82 84 85 87 88 87 88 88 89 88 86 79 76 71 65 59 54 49 48 45 46
35 37 38 39 47 39 39 32 32 29 31 34 37 41 45 51 55 60 63 68 74 77 81 83 85 89 88 87 90 93 91 92 86 87 79 72 68 61 54 48 46 43 42 47
38 41 43 44 46 49 42 36 37 36 36 39 41 46 50 52 57 62 67 73 77 79 83 87 88 85 87 88 89 89 84 83 77 74 70 69 63 54 45 42 40 36 43 48
41 43 43 46 49 47 45 42 38 40 41 44 47 52 56 60 65 70 74 78 82 83 84 84 83 86 88 89 88 84 78 62 74 69 54 56 56 43 37 36 32 37 43 45
42 44 46 50 51 51 46 43 43 44 46 50 54 57 61 66 70 74 77 81 83 84 83 84 86 89 90 88 83 80 72 69 55 55 47 51 42 32 30 30 32 40 42 44
45 44 46 53 55 51 48 46 47 49 52 55 58 62 67 70 75 78 81 83 82 81 84 86 90 90 88 83 77 74 68 60 52 51 44 39 29 25 29 27 35 40 41 44
47 46 48 51 47 45 46 47 49 51 56 60 64 68 70 74 77 80 82 81 83 84 86 89 90 86 78 75 71 66 59 52 47 40 30 22 20 26 24 31 38 39 41 45
45 49 50 49 46 46 48 50 54 57 59 62 66 69 73 75 78 80 79 81 83 85 88 89 86 77 72 68 59 54 47 39 33 26 18 16 22 20 26 34 38 39 43 43
49 51 48 45 46 47 49 52 55 58 62 66 70 73 75 76 79 80 82 83 84 86 87 83 75 70 63 54 47 40 33 27 22 17 19 21 19 24 30 35 37 40 43 38
50 50 46 47 49 50 53 57 59 63 66 69 73 75 76 79 79 80 81 82 84 83 79 74 70 61 51 42 33 27 24 23 23 24 23 20 23 28 32 34 37 41 39 33
48 47 47 49 52 55 58 61 63 66 69 72 75 77 79 79 79 79 81 83 81 77 72 69 60 50 40 31 24 24 25 26 27 24 23 24 26 30 32 34 39 43 36 31
51 51 52 54 57 61 63 65 67 69 71 74 76 77 77 78 77 78 79 79 75 70 67 59 50 39 32 25 24 24 28 28 27 26 26 27 29 31 31 35 40 41 34 31
57 58 57 59 62 65 66 68 70 71 72 73 74 75 76 76 76 76 75 72 68 64 58 51 40 33 27 24 24 25 28 27 27 27 27 28 29 30 31 36 39 40 33 31
56 57 61 64 66 69 70 72 71 71 71 72 73 74 73 73 74 72 67 64 61 56 51 43 35 30 25 25 25 27 29 26 25 28 28 28 30 28 31 36 38 40 34 29
58 61 64 67 69 70 70 69 70 71 71 72 72 71 71 71 69 65 61 58 55 50 45 38 32 29 26 26 26 28 26 25 28 30 29 29 27 27 32 35 37 39 35 29
64 66 67 68 69 68 68 67 69 69 69 69 70 70 69 67 63 59 56 53 50 45 41 36 31 28 26 27 27 28 25 26 30 30 29 27 25 28 31 33 36 38 37 31
69 69 68 67 66 65 65 67 67 67 68 69 70 68 66 61 57 55 52 50 47 42 38 34 32 29 28 27 27 27 26 28 29 28 27 26 26 28 30 32 34 36 38 33
67 66 64 63 63 64 65 66 66 67 67 68 67 64 60 56 54 52 49 47 43 39 36 33 32 30 28 28 27 27 28 29 28 27 27 26 27 28 29 31 33 35 39 36
64 62 61 61 62 62 64 65 67 66 65 64 63 61 57 54 52 48 47 44 40 36 33 31 29 29 28 28 28 29 28 28 26 26 26 27 27 26 27 29 33 36 37 40
58 58 60 61 62 63 64 65 65 65 63 60 57 56 53 50 47 45 41 40 37 34 31 29 27 27 26 26 27 26 25 27 26 26 27 27 26 26 28 30 33 36 38 40
57 59 60 62 63 63 64 64 63 61 58 56 54 51 48 44 41 42 40 35 33 32 30 30 28 28 27 26 24 24 26 25 26 28 29 30 28 28 30 32 34 36 37 37
59 60 61 62 62 60 61 60 58 56 55 51 48 45 42 40 39 37 31 29 30 29 28 29 30 30 29 28 27 26 25 25 28 29 31 31 30 31 32 34 35 36 37 37
59 59 59 58 58 58 58 58 56 53 50 45 43 39 36 34 32 31 29 30 30 30 30 31 31 31 31 30 29 28 28 29 31 32 32 32 33 33 34 36 35 36 37 38
56 56 57 56 55 55 54 52 51 47 44 41 37 35 34 33 32 32 33 33 34 34 34 35 35 36 35 35 34 32 31 31 32 34 36 37 36 35 37 36 36 36 37 38

GFSNGP_500_spd_033.txt.gz
Wind_Speed
14 17 20 23 25 28 31 36 39 36 31 32 28 21 24 23 27 31 34 38 43 48 52 57 61 67 73 78 82 86 86 86 85 86 84 88 88 90 87 74 66 62 58 54
17 19 22 24 26 29 32 37 36 37 32 35 26 23 23 27 30 34 38 43 48 52 57 61 66 71 77 82 85 87 87 89 90 92 98 99 92 85 74 68 63 58 53 50
18 22 24 27 29 30 33 36 40 39 36 29 27 28 31 34 36 39 44 47 52 57 62 67 72 78 82 85 88 88 90 92 93 92 90 85 72 62 68 75 59 56 49 45
22 25 27 32 35 34 36 39 40 38 37 37 35 35 36 37 41 45 50 54 59 63 69 73 77 82 86 88 89 91 93 91 88 85 80 74 44 66 69 63 52 56 42 37
27 30 32 36 38 37 39 41 38 39 39 39 38 39 41 45 49 52 56 60 64 68 72 76 80 84 88 88 87 89 89 87 83 78 71 58 47 60 62 52 52 38 34 31
32 35 38 41 42 44 45 43 45 43 40 36 37 39 41 44 48 52 56 61 67 71 76 80 83 86 89 87 87 90 89 88 79 70 63 37 45 56 58 48 42 32 29 35
35 38 39 42 46 44 43 47 46 42 39 38 39 41 45 48 52 58 63 68 71 74 78 83 86 87 87 88 90 89 87 80 69 62 55 41 47 51 54 37 28 25 31 38
38 40 43 47 48 45 45 49 47 43 41 41 43 47 49 53 58 62 67 71 75 78 82 85 85 86 87 89 90 85 79 68 56 51 45 39 38 36 22 22 23 27 35 37
39 41 45 48 49 47 47 48 45 44 44 45 48 51 55 59 64 67 71 75 79 81 82 83 84 86 87 88 82 76 65 53 46 41 34 26 22 18 20 19 25 32 35 39
44 45 48 52 52 51 51 49 46 46 47 50 54 57 60 64 67 70 73 77 80 81 82 82 84 85 87 83 72 63 48 39 32 26 23 22 23 22 20 24 29 34 37 41
43 45 49 50 53 52 51 49 48 48 51 55 58 61 65 68 71 73 75 78 79 81 82 83 84 84 81 73 60 47 35 26 23 25 26 24 23 22 24 28 32 34 39 43
45 44 47 51 51 51 52 52 53 54 57 59 63 66 69 72 74 75 77 78 79 81 82 82 82 79 72 62 47 35 26 24 25 27 27 25 25 26 28 31 33 35 40 43
45 49 52 52 52 52 53 56 60 59 60 63 68 70 73 74 74 75 77 78 80 80 81 80 77 71 62 51 37 28 24 24 27 27 26 26 27 27 28 32 32 37 40 42
48 52 54 53 53 56 59 61 61 62 65 69 72 74 74 74 74 75 77 78 79 79 78 75 69 62 53 43 33 26 24 24 26 28 26 26 28 28 29 30 31 36 39 40
51 54 54 54 56 59 57 59 61 64 68 71 72 73 73 74 74 76 77 77 77 76 72 66 61 53 46 38 31 26 26 26 27 28 24 27 29 29 30 29 32 36 38 40
51 52 53 54 55 56 59 63 66 69 70 72 73 71 72 73 74 75 75 75 73 70 63 59 54 47 42 35 29 26 26 26 28 26 25 28 29 28 28 28 32 35 38 40
52 52 53 56 59 62 64 67 69 70 71 72 70 70 72 73 74 74 73 70 67 63 58 54 49 44 40 34 29 27 26 26 28 26 26 29 28 28 26 27 30 33 36 39
53 54 57 60 63 66 67 69 70 70 69 69 68 71 72 73 73 71 68 64 61 57 52 49 45 42 38 34 29 27 26 26 26 25 27 28 27 26 26 28 29 31 33 36
55 59 63 65 67 68 69 70 70 68 68 68 70 71 72 72 71 68 63 59 56 51 47 44 42 39 35 32 29 27 26 25 25 26 27 26 26 26 26 27 27 29 31 33
62 63 66 68 68 69 69 66 64 65 67 69 70 71 71 70 66 61 58 54 50 46 44 41 40 35 31 31 30 27 26 25 26 26 26 24 25 25 26 25 26 27 29 32
65 67 68 67 68 67 63 64 65 65 67 69 70 69 67 63 60 57 53 48 44 43 42 39 37 33 29 27 27 27 26 26 27 24 24 24 25 25 25 25 26 27 28 31
66 65 67 68 64 61 62 63 65 66 67 67 65 63 61 58 55 51 47 44 40 41 37 33 32 29 28 28 28 26 25 24 23 23 24 24 25 26 27 27 27 29 30 31
65 65 63 60 59 60 61 64 66 66 65 63 59 56 54 52 50 47 42 38 37 35 29 29 28 26 26 26 27 28 26 25 25 25 24 24 26 27 28 28 29 30 31 31
58 55 56 57 59 61 63 63 63 62 59 55 52 51 51 50 45 43 39 35 32 30 28 29 28 28 27 28 29 29 29 28 28 27 26 27 28 29 29 29 30 30 32 33
53 55 57 60 61 61 61 61 58 55 53 54 52 50 50 47 44 39 37 36 34 33 32 32 32 33 32 32 33 32 32 32 32 31 30 30 31 31 32 33 33 33 34 33
56 57 58 59 59 59 59 56 55 55 55 53 52 49 46 43 41 38 37 37 37 37 37 37 38 38 37 37 37 37 36 35 35 35 34 32 32 33 34 36 36 34 34 32
54 55 56 57 56 55 55 55 56 58 62 57 52 48 45 42 40 38 38 39 39 37 37 40 40 39 39 40 40 39 39 38 38 36 36 37 37 37 37 36 35 35 34 33

GFSNGP_500_spd_039.txt.gz
Wind_Speed
17 16 17 18 19 19 21 24 26 25 27 30 31 33 35 36 36 36 35 36 39 40 42 45 48 52 55 59 65 69 74 77 81 87 91 92 94 96 96 97 95 84 72 64
21 19 19 20 21 22 24 27 29 29 30 31 35 38 39 39 39 39 38 38 39 42 45 49 53 56 60 64 69 74 77 81 86 89 91 92 92 93 94 91 79 65 58 51
22 23 24 21 23 26 27 28 31 31 31 35 37 39 40 41 41 40 41 41 43 46 48 51 55 60 64 69 74 78 82 86 89 92 91 91 91 93 89 74 60 53 46 44
24 26 28 24 26 29 31 31 33 32 33 36 39 43 44 44 43 42 43 45 47 49 52 56 61 65 70 73 78 81 85 89 91 90 89 89 91 86 70 52 45 38 33 32
28 28 31 28 29 33 34 34 34 36 38 39 42 46 46 48 47 46 47 49 51 53 58 63 67 71 73 77 80 84 87 89 90 90 90 89 85 68 47 36 32 31 32 32
30 33 34 30 34 36 38 36 37 39 40 42 45 46 47 49 49 49 49 51 54 59 63 65 68 73 77 79 83 87 89 89 90 90 89 84 70 48 35 36 33 32 34 34
32 35 36 33 37 39 40 42 40 40 44 47 48 50 51 51 51 51 51 55 59 60 62 67 72 76 78 82 86 88 88 89 89 88 83 69 55 38 32 33 32 32 34 36
35 36 38 38 40 41 43 42 41 45 46 47 49 51 52 53 53 54 57 59 59 63 68 72 75 79 81 83 85 86 88 89 85 79 69 57 41 32 32 34 33 32 35 37
36 37 38 41 42 44 46 45 45 47 48 50 51 53 55 57 57 57 59 60 64 68 72 75 78 80 81 83 84 87 88 84 77 67 58 47 34 30 32 33 32 32 34 36
38 37 40 43 44 45 45 45 47 48 51 52 53 57 58 58 58 59 61 65 68 72 73 77 79 80 81 82 85 86 82 75 67 60 50 40 31 29 30 31 30 32 35 36
42 40 44 44 44 45 46 47 49 51 52 53 55 57 57 57 58 61 65 69 71 73 76 78 79 79 82 84 84 79 71 66 60 52 43 34 28 28 30 29 30 33 35 35
43 42 44 44 45 47 48 49 50 51 53 54 56 56 57 59 61 66 68 71 72 75 77 78 77 80 83 82 76 70 66 61 54 45 38 31 28 27 29 28 31 33 34 32
40 41 44 44 46 48 49 50 51 53 54 55 55 55 58 62 66 68 70 71 74 76 76 77 78 80 80 73 69 66 61 56 48 41 35 29 28 27 29 28 31 33 32 30
41 43 45 47 48 48 50 51 53 55 56 56 56 58 62 66 68 70 71 72 74 74 74 76 78 77 69 65 65 61 55 49 43 37 32 28 27 27 27 28 32 34 31 30
45 45 45 48 50 51 52 53 55 54 54 57 60 64 67 68 70 72 72 73 71 71 75 77 75 66 61 63 61 55 50 45 38 34 31 27 26 26 26 28 30 31 29 28
45 46 48 49 50 51 50 51 52 55 58 61 64 65 68 70 71 73 72 69 69 73 75 73 65 59 60 60 55 49 45 40 35 32 31 27 25 26 26 28 29 27 27 28
48 49 48 46 48 49 50 53 57 60 62 63 65 68 70 69 72 70 67 69 72 74 71 63 58 58 59 55 49 44 38 36 32 31 30 27 26 26 27 28 27 26 26 26
45 44 45 48 50 53 56 58 60 61 62 63 66 67 69 71 67 65 69 71 71 69 62 59 58 57 55 49 43 38 35 33 31 30 29 28 26 26 27 28 26 26 25 26
46 48 50 51 54 58 59 60 61 62 62 63 66 70 67 64 65 69 71 70 67 62 59 58 57 53 48 42 37 34 33 31 30 28 28 27 26 25 26 25 26 26 27 28
53 54 55 56 56 58 60 61 60 60 64 68 66 63 63 66 69 70 69 66 63 60 58 59 55 48 41 36 33 33 33 32 31 30 29 28 27 26 26 27 28 28 28 29
56 55 56 57 58 60 60 60 62 66 67 63 61 63 66 67 68 68 66 62 60 59 60 56 49 44 37 34 33 33 34 34 35 35 34 32 31 30 28 28 29 29 30 30
57 57 58 58 58 60 62 64 67 65 61 62 64 65 65 67 67 64 61 60 57 57 57 50 43 40 36 34 33 34 35 35 35 37 37 37 36 34 33 33 31 31 31 32
56 56 56 58 60 63 65 64 61 61 62 63 65 66 67 66 62 58 55 55 55 56 56 47 39 37 36 35 34 35 36 36 37 39 39 38 38 38 37 36 35 34 33 33
55 57 60 63 63 57 58 60 61 63 65 66 66 66 63 59 55 57 56 54 54 55 55 45 36 35 35 35 36 37 37 37 38 40 39 39 38 38 37 37 37 37 36 35
58 56 53 55 57 59 63 64 64 65 65 65 64 61 60 57 54 52 55 54 54 55 52 42 35 34 35 35 36 37 38 38 38 39 39 39 38 37 39 40 41 40 39 38
51 53 56 59 61 62 63 65 66 65 64 62 59 59 58 54 54 54 56 54 54 52 49 41 35 35 35 36 37 38 38 39 40 40 41 40 41 42 42 42 43 42 40 39
50 53 55 58 61 63 65 66 65 63 62 62 61 59 57 54 55 56 56 55 53 49 44 38 37 37 37 36 38 39 40 41 42 43 43 43 43 44 45 43 43 43 42 39

GFSNGP_500_spd_042.txt.gz
Wind_Speed
23 23 22 21 20 20 21 23 24 24 27 30 29 31 32 34 37 38 40 41 41 42 44 46 48 50 53 55 58 63 69 73 76 80 85 87 90 93 95 96 96 95 83 67
25 25 25 24 22 22 25 26 28 30 29 31 33 34 35 37 40 43 45 45 45 45 47 48 50 53 55 58 63 69 71 74 79 83 87 89 92 94 95 97 94 80 63 45
27 27 29 26 22 27 28 29 32 33 35 36 36 37 38 40 44 46 46 47 48 49 49 50 52 55 59 63 66 67 72 78 82 85 87 90 93 95 96 91 76 62 43 38
26 29 33 25 27 30 33 33 35 37 39 39 40 40 40 44 46 47 49 51 51 51 50 52 54 59 62 63 67 72 76 80 83 86 88 91 93 95 88 75 62 44 38 36
28 29 32 29 30 33 35 36 37 40 41 41 42 41 43 47 47 49 50 52 52 53 53 55 58 60 63 68 72 76 79 83 85 87 89 92 93 85 73 63 50 36 36 35
29 33 35 32 32 35 40 39 40 42 42 43 44 44 45 47 48 51 52 53 54 55 56 58 59 63 67 71 75 78 81 84 85 87 91 92 84 73 63 53 40 34 35 34
32 36 37 35 36 39 41 44 44 44 45 46 46 47 48 49 51 53 53 55 55 56 57 58 62 67 71 74 77 80 82 83 86 89 89 81 73 65 53 44 34 33 34 33
33 36 38 37 38 41 44 45 46 47 48 48 47 48 50 52 54 54 55 56 57 58 59 63 68 71 73 76 79 81 82 84 87 85 77 73 66 58 47 36 30 31 31 32
35 36 38 41 43 44 45 47 48 48 48 47 48 51 53 56 56 56 57 58 59 60 64 69 71 72 75 78 80 81 81 84 84 73 72 67 59 50 41 32 29 30 30 30
38 36 40 44 46 46 47 48 48 48 48 49 52 54 55 57 56 56 58 59 61 64 68 70 72 75 77 79 79 80 83 82 72 68 68 62 53 44 36 30 28 29 28 31
42 41 44 44 45 46 47 47 47 48 50 52 54 55 56 58 58 59 61 62 65 68 70 72 74 77 78 77 79 81 81 71 66 67 64 55 46 39 32 29 28 28 28 31
44 43 44 43 43 44 45 46 48 51 52 54 55 57 58 58 58 60 63 65 68 70 72 74 76 77 77 78 80 79 70 64 65 64 58 49 41 36 30 27 27 26 27 30
41 42 42 43 44 45 47 49 50 52 54 55 56 57 55 56 59 62 64 67 69 72 74 76 77 75 76 78 77 70 64 63 62 59 51 43 36 33 28 27 25 25 27 29
40 42 43 45 47 47 48 49 52 54 55 56 55 54 56 59 63 65 66 67 70 74 76 77 73 74 76 76 69 64 62 60 57 52 44 39 34 32 28 25 25 25 26 29
43 45 46 46 47 48 49 52 54 52 52 53 55 58 62 64 65 64 66 70 74 76 77 73 72 75 74 69 63 61 60 55 50 45 38 36 33 31 28 25 24 26 28 28
44 46 46 47 48 49 50 50 50 51 53 57 60 63 64 64 64 66 71 73 75 76 72 71 74 73 69 64 60 61 56 48 42 38 36 34 32 31 29 26 25 25 28 28
45 45 44 45 47 49 51 53 55 54 56 60 63 64 65 64 66 70 71 75 73 71 71 72 71 69 64 60 60 57 48 43 37 33 32 32 31 31 30 28 26 26 29 27
45 46 47 48 49 52 54 56 58 60 61 61 63 63 63 67 68 70 74 69 69 70 71 70 68 63 60 59 58 53 42 38 33 31 30 31 31 31 30 29 27 26 26 27
45 48 50 52 55 56 56 57 58 60 59 59 61 64 66 68 70 69 68 69 70 70 68 66 63 60 59 58 55 48 39 36 33 31 32 32 32 33 32 31 30 29 28 29
52 53 54 56 58 58 59 58 57 57 59 61 63 66 69 66 67 67 68 68 70 69 66 62 59 59 57 56 53 43 36 34 33 33 33 33 32 33 35 34 33 32 32 31
57 58 60 60 60 58 57 57 58 60 63 65 66 65 64 65 67 68 67 68 67 65 62 58 57 57 55 55 50 41 34 33 34 33 33 34 34 35 36 35 35 36 35 34
58 57 58 59 59 58 58 59 61 64 62 61 62 64 65 66 67 69 69 69 64 61 58 55 55 55 54 53 45 38 34 34 35 35 35 35 36 36 37 36 37 37 36 35
56 58 57 56 56 58 61 60 58 58 59 62 64 67 70 71 71 70 66 61 60 58 56 53 54 54 53 50 43 36 33 33 34 35 36 36 36 36 36 37 37 36 35 35
55 53 56 58 56 52 53 54 57 60 63 65 68 70 71 69 65 64 62 58 57 55 53 52 53 53 51 48 41 35 33 34 35 35 36 36 36 37 37 38 38 38 38 39
53 51 48 52 53 55 57 57 60 63 65 67 68 68 66 65 65 60 59 57 57 56 54 54 53 51 49 45 39 35 35 35 36 36 37 38 39 39 40 41 42 42 41 41
50 48 48 49 52 55 59 63 65 68 71 69 66 67 65 65 64 61 60 59 58 57 55 54 53 50 48 44 39 37 36 37 38 39 40 41 42 43 44 45 45 44 44 44
45 45 49 53 58 63 67 69 71 73 73 72 69 67 66 64 61 62 62 61 59 57 56 54 53 51 47 43 41 39 38 38 40 41 42 43 44 44 45 45 45 44 44 44

GFSNGP_500_spd_045.txt.gz
Wind_Speed
21 22 24 23 23 22 22 23 25 24 25 29 31 32 34 36 37 39 40 41 43 46 48 48 49 49 50 51 54 56 59 63 65 67 73 77 81 84 86 87 91 94 92 83
22 24 26 27 27 25 25 27 29 31 27 34 34 36 38 40 41 42 44 44 46 50 50 50 51 52 53 54 56 58 62 64 67 72 77 79 82 84 86 89 92 88 81 71
23 25 29 30 25 29 30 31 33 33 34 37 37 39 41 42 43 44 45 47 49 51 51 51 52 54 55 56 57 60 63 67 72 76 77 79 82 85 87 90 86 78 72 59
22 25 30 25 26 31 34 34 36 36 38 40 42 42 43 45 46 47 48 50 52 52 52 54 56 57 57 57 59 62 67 72 74 76 78 81 83 85 88 84 76 72 60 48
24 24 26 25 27 31 35 35 38 40 42 43 44 45 46 47 48 49 50 52 53 54 55 57 57 56 57 59 62 67 71 73 76 78 79 81 83 86 82 74 73 63 49 37
24 26 27 26 26 30 35 36 39 42 44 46 46 47 48 49 50 50 51 53 54 54 56 56 57 58 59 62 66 70 73 75 77 78 80 82 84 81 72 71 67 52 40 30
26 27 29 30 31 33 35 40 42 44 45 46 47 49 50 51 51 52 53 55 55 55 57 57 58 60 63 67 71 73 75 77 78 79 80 83 80 73 69 68 56 43 33 28
28 31 35 34 35 38 40 43 44 45 45 46 49 50 51 51 51 53 55 55 55 57 58 60 61 63 67 71 73 75 76 78 78 79 81 79 72 68 67 60 47 37 29 26
29 31 35 38 40 42 42 44 45 46 47 48 50 50 50 51 53 55 56 56 57 59 60 61 64 68 70 74 73 77 78 77 78 80 79 72 66 65 62 51 41 33 28 27
34 34 38 42 43 43 44 44 45 46 48 48 49 50 52 54 55 57 57 57 57 58 61 65 69 71 73 72 74 80 79 77 78 78 72 65 63 60 54 43 36 31 27 26
39 39 42 41 42 43 43 44 44 45 47 49 50 52 53 54 57 57 56 56 59 62 66 70 71 71 73 76 78 79 77 76 76 72 65 62 59 54 46 38 34 30 26 25
42 41 41 40 39 40 41 43 45 47 49 50 50 51 54 56 56 56 56 59 63 67 70 70 70 72 76 77 80 77 75 75 71 64 60 59 53 47 40 35 32 28 25 24
39 40 40 41 41 42 44 46 48 48 49 49 51 54 53 53 54 56 60 64 66 67 69 69 72 76 76 80 77 75 74 70 64 59 58 53 47 41 36 34 30 27 24 22
38 39 40 42 44 45 46 47 47 47 49 50 51 51 52 54 56 60 63 64 67 70 70 72 75 75 78 76 74 74 69 63 59 57 54 46 40 35 32 30 29 29 25 23
39 41 43 44 45 45 46 46 47 47 50 52 53 56 57 59 60 62 65 68 68 70 72 74 76 75 74 73 72 68 63 58 56 54 48 40 35 31 29 28 27 27 26 25
42 43 43 45 45 46 47 48 50 52 54 56 58 61 62 63 64 65 65 66 70 73 73 74 71 71 71 70 67 63 58 57 54 50 40 35 33 29 28 27 27 27 27 25
42 44 45 46 47 48 49 50 53 55 57 60 62 63 64 64 63 63 66 68 71 71 70 69 69 70 69 67 64 58 55 53 52 48 40 32 31 30 29 29 29 28 27 26
43 44 45 46 48 50 53 55 56 58 60 61 63 63 60 61 62 65 67 68 67 67 69 69 70 69 67 63 59 54 53 52 50 46 39 34 32 32 32 31 30 29 29 28
44 46 48 51 53 54 55 58 60 61 62 63 60 57 59 62 64 64 64 64 66 68 68 69 68 66 62 59 57 53 51 51 50 44 37 34 33 32 32 32 31 31 31 30
49 51 52 53 56 59 59 60 61 61 59 57 57 58 59 58 60 61 64 65 69 71 69 66 65 62 58 57 54 51 51 50 48 43 35 34 34 33 33 33 33 33 33 31
53 55 58 60 60 58 58 58 58 56 55 56 56 54 56 58 62 66 68 70 68 70 66 63 62 59 55 53 51 49 49 48 46 42 35 34 34 34 34 35 34 33 33 32
57 59 58 58 57 57 57 56 55 53 51 51 52 56 60 62 66 69 71 72 69 67 63 62 59 55 53 52 50 48 47 46 44 40 35 35 34 34 34 35 34 33 33 32
58 57 56 56 55 54 53 50 49 51 49 52 56 62 67 69 72 74 73 69 68 66 63 61 57 55 55 53 51 49 47 44 42 39 36 35 35 35 35 35 34 34 34 33
55 54 52 52 51 48 49 51 49 51 55 59 63 69 75 78 75 76 74 71 68 65 62 59 56 57 57 55 53 51 48 45 41 38 36 36 36 36 36 37 37 37 37 37
52 54 53 50 48 51 53 53 53 56 61 64 68 73 79 83 82 75 70 65 61 59 57 57 58 58 56 54 52 50 48 44 41 39 37 37 36 37 38 39 40 40 40 39
47 46 48 51 52 53 55 57 60 64 67 70 76 80 84 82 74 68 64 63 61 60 60 59 58 56 54 51 49 48 47 44 41 39 38 37 37 38 39 40 41 41 41 40
46 48 49 52 55 58 60 62 66 70 75 81 82 86 84 74 68 67 65 63 62 60 58 56 54 52 50 48 46 45 45 44 41 39 38 38 38 40 43 44 43 43 42 42

GFSNGP_500_spd_048.txt.gz
Wind_Speed
19 19 19 20 22 24 25 25 26 24 26 28 34 33 32 35 38 39 42 44 45 46 49 50 51 53 53 54 55 57 58 58 59 61 64 68 72 77 80 81 82 83 84 87
21 20 21 23 25 26 27 27 28 31 29 33 37 38 38 40 42 44 45 46 48 50 51 53 54 53 54 56 57 58 59 60 62 64 68 72 76 79 80 80 81 82 86 85
16 19 23 24 21 28 31 31 33 36 36 38 40 41 42 43 45 46 47 49 50 51 53 54 53 54 57 58 58 59 60 61 63 67 71 75 78 78 79 80 81 84 84 76
16 21 26 21 24 27 31 32 35 38 40 42 43 45 45 46 47 48 49 51 52 54 54 53 54 56 57 58 59 60 61 63 67 71 75 77 78 81 81 80 83 82 74 69
20 21 23 20 21 26 30 30 33 37 40 42 44 46 47 48 49 50 51 53 54 53 53 54 55 56 57 60 60 60 63 67 70 73 75 76 81 83 81 82 82 75 67 65
20 23 24 23 24 26 29 32 33 36 39 41 44 46 48 48 49 51 52 53 52 52 53 55 56 57 59 59 60 65 67 70 71 74 76 78 83 82 80 80 75 66 63 56
24 26 27 27 28 29 30 34 36 38 39 41 44 46 47 48 50 51 51 51 51 53 54 55 57 59 58 60 65 68 71 71 73 76 77 82 82 80 80 75 66 61 57 46
23 26 29 29 31 33 35 37 40 42 43 45 45 46 46 48 49 49 49 51 53 53 55 57 58 58 59 65 70 71 72 73 75 78 80 82 80 79 74 67 61 56 49 39
25 28 32 34 36 38 39 41 43 44 44 44 45 45 46 47 47 49 51 52 53 56 58 57 58 59 63 69 71 72 74 75 77 78 82 81 79 73 67 60 56 50 42 35
31 33 36 39 40 42 42 43 43 43 43 44 46 46 47 49 51 52 52 54 56 57 57 59 61 65 69 71 73 75 76 77 79 80 80 77 73 66 59 55 50 44 38 33
36 38 40 41 42 43 43 43 42 42 43 44 46 48 50 51 51 52 55 55 56 55 57 59 65 68 69 73 75 75 77 79 80 78 76 71 65 60 54 50 44 40 35 32
40 40 41 42 42 42 42 42 42 43 45 47 49 50 50 51 52 53 54 56 57 58 61 66 67 67 71 74 76 78 79 80 77 74 69 64 58 54 50 44 39 36 33 30
41 41 42 42 41 41 41 42 44 46 47 48 49 50 50 52 54 54 55 58 61 65 67 65 66 69 71 75 77 78 78 76 73 68 63 58 54 51 46 39 34 32 29 28
39 40 40 40 41 42 43 45 46 47 48 49 50 51 52 54 55 57 62 65 66 64 62 67 69 72 74 75 77 75 73 71 67 62 57 53 51 49 42 35 32 30 28 25
39 40 40 42 43 44 45 46 48 49 50 50 52 53 55 57 59 62 63 62 63 64 66 69 72 74 74 73 72 71 70 66 62 57 53 51 50 46 40 33 31 29 28 27
39 41 43 44 44 46 47 48 49 49 50 52 55 57 58 61 62 63 63 64 63 66 70 70 70 69 69 70 70 68 64 61 58 55 51 48 48 45 39 33 31 31 31 31
41 42 44 45 47 48 48 49 50 52 54 55 57 60 62 63 64 64 64 63 64 65 63 65 66 68 70 70 68 65 61 59 56 53 50 47 46 44 38 33 32 32 32 31
44 45 46 46 47 48 50 52 54 55 57 58 60 62 63 64 63 62 61 60 57 59 63 67 68 71 71 68 65 62 58 56 53 50 48 46 45 43 38 34 33 33 32 32
43 44 45 46 48 51 53 54 56 59 61 62 62 62 61 60 59 57 54 55 59 63 67 71 72 72 70 67 64 60 56 53 50 48 47 45 44 42 37 34 34 34 34 33
44 45 47 50 52 55 58 59 61 60 60 59 58 57 54 51 52 52 55 57 63 69 75 78 76 72 68 65 62 58 53 50 49 47 45 44 42 40 36 34 34 34 35 35
47 50 53 55 58 59 59 58 57 57 56 54 51 50 51 49 52 57 61 64 68 75 78 82 76 69 65 60 56 53 49 49 50 48 45 43 41 40 36 34 35 35 34 34
53 56 58 57 56 54 54 54 53 52 48 48 49 50 53 56 59 62 68 74 76 79 86 78 68 62 60 59 54 51 51 52 51 49 45 42 40 38 36 35 36 36 35 35
53 52 52 53 54 54 54 54 51 47 48 51 54 56 60 63 67 71 71 76 81 88 81 70 65 62 60 59 57 55 54 53 51 49 46 42 39 37 36 36 36 37 37 35
50 51 53 53 53 53 51 47 49 51 53 57 61 64 66 66 68 76 81 82 89 81 72 67 64 60 58 57 55 53 51 49 48 46 44 42 39 37 36 36 36 37 37 37
52 53 54 54 53 50 49 51 53 55 58 61 64 68 71 74 77 78 81 89 79 73 68 63 59 56 54 52 51 49 47 46 44 43 42 42 40 38 37 37 37 36 37 38
55 54 53 52 51 52 52 53 55 58 61 65 67 70 73 76 81 84 88 80 73 66 63 61 59 57 54 53 51 49 47 45 44 43 41 41 41 39 36 36 37 38 40 40
52 51 50 50 51 52 53 56 60 62 65 68 70 74 78 82 87 83 78 70 65 63 61 59 55 53 52 51 49 47 44 43 42 41 41 40 40 37 37 38 39 40 40 42

GFSNGP_500_spd_051.txt.gz
Wind_Speed
23 23 21 21 20 22 23 21 27 19 25 26 37 36 36 35 38 39 41 44 47 49 50 51 53 54 55 56 55 55 56 58 60 61 62 64 65 67 70 74 77 81 82 86
22 23 24 24 22 22 22 23 26 25 31 31 38 40 42 42 43 45 46 48 50 51 53 54 55 56 56 55 55 56 58 60 61 62 64 64 68 70 74 77 80 80 84 84
21 22 26 24 19 20 24 25 29 33 32 40 40 42 43 45 46 47 48 50 52 53 53 55 56 56 55 54 56 58 59 61 62 62 64 69 72 76 77 79 79 82 83 84
19 19 22 17 19 22 26 27 31 33 35 40 41 43 43 45 46 47 49 51 51 52 54 55 56 55 54 56 58 58 59 61 62 63 70 74 76 77 79 80 81 83 83 83
20 20 20 18 20 23 26 26 32 31 34 37 38 41 43 46 46 49 50 51 53 54 55 55 54 55 56 58 59 60 61 60 62 67 75 78 79 79 81 81 83 83 83 84
20 22 23 23 21 24 28 30 31 32 34 37 40 42 45 47 48 50 51 52 54 54 54 53 54 56 57 59 59 59 60 63 66 74 76 77 78 80 81 83 82 83 83 75
22 24 24 25 25 26 28 32 33 34 36 39 42 43 47 49 50 51 51 52 52 52 53 54 55 56 58 59 59 60 62 67 72 75 78 79 80 82 82 82 83 82 73 63
20 23 25 23 26 26 29 31 35 38 41 44 46 47 48 48 48 48 49 49 51 53 54 54 56 57 58 60 60 64 67 74 75 77 80 81 82 81 81 83 82 71 63 56
20 24 25 27 29 31 34 37 40 42 45 47 48 48 47 47 48 48 50 51 52 53 55 56 57 59 60 59 60 66 71 73 75 81 82 83 81 81 81 79 70 62 56 51
26 30 32 34 36 38 40 42 44 46 47 48 49 48 48 48 49 51 52 53 54 55 56 57 59 60 57 62 67 73 75 72 78 79 81 80 79 79 76 67 59 54 51 45
31 35 37 39 39 42 44 45 46 46 46 46 46 47 48 50 51 52 54 54 55 56 56 56 58 59 63 69 73 72 74 79 80 81 79 78 77 72 64 57 52 51 47 40
37 37 40 43 44 45 46 47 46 46 45 46 47 49 51 51 52 53 54 54 55 55 54 57 65 69 70 70 71 74 77 80 78 77 77 76 69 61 56 52 50 49 44 36
41 42 44 45 46 46 46 45 45 46 46 48 50 50 51 53 53 53 54 56 58 59 61 63 67 68 70 71 73 75 76 74 75 77 73 67 60 57 53 50 47 46 41 35
43 45 46 45 46 45 45 45 46 48 49 49 50 51 51 52 54 56 58 60 62 64 66 66 66 68 69 72 72 71 72 75 73 70 65 62 58 55 52 48 45 45 40 33
44 44 45 45 45 45 47 48 48 49 49 49 49 50 52 55 58 59 62 63 64 65 65 66 67 67 66 67 69 72 72 72 70 68 64 61 57 54 51 47 44 43 38 33
42 43 44 45 47 47 48 48 49 49 48 50 52 54 56 58 60 62 63 63 64 64 64 64 64 63 65 67 68 71 76 76 71 65 62 57 54 51 49 46 44 42 37 32
43 44 45 46 48 48 49 48 48 49 51 53 56 58 60 61 63 64 64 64 61 61 60 61 62 63 65 68 72 75 81 75 68 63 59 54 51 48 47 44 43 41 36 32
45 46 47 48 48 48 47 48 51 53 55 57 59 62 63 63 62 62 62 60 58 59 59 61 64 65 70 74 75 81 81 69 61 57 54 51 48 46 45 43 41 40 36 32
47 47 46 46 46 48 50 53 55 57 59 61 62 62 62 61 61 60 58 58 56 58 59 64 68 71 73 76 80 84 73 65 59 55 52 49 46 45 44 43 40 39 36 33
42 43 44 47 49 51 53 55 58 60 59 59 61 61 61 60 57 53 54 56 60 64 67 68 71 74 77 80 84 76 68 65 61 57 52 51 50 47 45 43 40 38 36 32
42 44 46 48 51 54 56 55 55 55 58 60 60 60 56 51 51 54 57 60 65 68 72 74 75 78 79 84 79 71 65 61 59 56 52 51 50 48 45 42 39 37 35 33
45 48 51 52 51 50 51 54 56 58 60 59 57 54 52 54 56 60 64 68 70 72 73 75 79 83 84 79 70 62 58 55 54 51 49 49 48 46 43 41 38 36 34 33
49 49 48 47 49 51 55 58 60 59 58 56 53 55 56 59 61 64 67 71 74 76 79 83 85 81 74 66 60 56 55 53 52 50 48 47 45 43 42 41 38 35 34 34
45 45 47 51 55 58 60 61 59 58 56 56 57 58 59 61 66 70 72 75 78 82 86 82 76 70 63 59 57 55 52 50 49 47 46 45 44 43 42 40 39 38 35 35
46 50 54 57 59 60 60 58 57 56 56 57 58 60 64 67 69 72 76 81 86 83 79 72 65 62 59 58 55 52 50 49 48 46 43 42 42 41 41 40 38 40 38 36
52 55 57 59 59 59 58 57 55 56 57 58 62 64 67 70 74 79 84 84 80 75 68 64 63 60 58 53 50 50 51 51 50 49 46 44 43 42 41 40 40 39 38 35
57 59 59 60 59 56 55 56 56 57 59 61 64 67 71 76 81 83 79 77 71 67 66 63 60 55 50 49 49 50 51 51 51 50 49 45 43 43 41 39 37 36 36 37

GFSNGP_500_spd_054.txt.gz
Wind_Speed
24 24 27 24 24 20 23 22 24 18 22 22 17 38 39 30 33 38 40 43 47 49 51 52 52 54 55 55 56 56 57 56 57 58 59 61 63 64 64 67 72 77 78 79
27 26 28 25 27 23 21 22 25 23 25 24 33 39 43 41 45 44 47 48 50 51 52 54 54 54 56 56 57 56 56 56 57 58 60 62 62 62 65 71 76 80 80 82
22 25 26 27 23 25 23 24 26 27 26 30 36 41 38 40 45 46 47 48 50 52 54 55 57 56 57 57 56 56 57 58 59 61 61 61 63 63 69 73 78 81 82 85
19 24 26 19 20 22 24 24 26 29 29 31 37 36 37 40 41 43 45 49 51 53 55 56 57 56 55 56 56 57 58 59 61 61 60 63 66 69 74 76 81 85 86 86
21 22 20 20 19 18 23 23 30 27 28 34 33 36 39 40 42 45 47 50 52 53 54 55 54 54 53 56 58 59 60 61 60 58 61 69 74 74 78 83 84 85 86 83
20 21 21 22 20 20 23 26 26 27 30 33 34 37 40 42 45 49 51 53 53 52 53 53 53 54 56 58 58 59 59 60 62 60 67 74 74 81 82 84 83 87 81 82
22 23 22 24 18 23 25 27 27 28 30 32 35 38 43 47 49 51 53 50 51 51 51 53 54 55 57 57 58 58 62 65 63 63 69 74 81 83 85 86 88 84 82 76
20 20 21 19 21 21 23 25 28 31 34 38 41 43 47 49 51 51 49 50 50 51 53 54 54 54 55 57 55 58 67 69 69 69 76 79 79 83 86 86 83 80 74 67
18 20 19 21 22 23 27 30 34 36 40 42 45 47 50 51 50 50 49 50 52 53 53 54 54 54 56 55 51 59 68 71 70 73 76 79 83 82 81 81 76 70 64 59
23 24 27 26 27 30 34 36 39 41 44 46 49 53 50 50 49 50 51 52 53 54 54 54 55 57 57 57 61 64 70 74 80 82 80 79 79 78 77 74 71 62 57 52
28 29 33 34 32 36 39 41 43 45 47 49 50 50 51 50 50 51 51 52 53 54 55 57 59 60 61 63 66 70 72 76 77 78 77 76 75 72 74 70 65 59 55 51
33 33 37 39 40 41 43 45 46 48 48 48 48 48 49 50 50 51 52 54 54 56 59 61 62 65 68 69 69 70 71 72 72 72 73 73 74 75 74 67 59 55 52 50
39 39 41 43 44 46 47 48 49 49 48 47 48 50 50 50 52 53 53 55 57 60 63 65 67 68 70 69 68 68 68 68 68 70 72 75 76 81 73 62 56 51 48 46
43 44 45 46 47 48 49 50 49 47 48 49 49 50 51 52 53 54 56 59 61 63 65 68 69 69 69 67 66 67 67 68 70 71 73 75 78 80 67 59 53 47 45 44
45 46 48 48 49 49 48 48 48 49 49 50 51 51 52 53 55 57 60 62 65 67 67 67 67 65 65 65 64 65 68 70 72 73 74 76 79 74 61 56 51 45 43 42
45 47 49 49 48 48 48 48 49 51 51 51 51 52 55 56 60 63 64 66 65 65 64 65 63 62 63 63 65 68 72 74 75 75 76 78 78 68 59 55 50 44 41 41
48 48 48 48 48 48 49 51 52 51 50 51 53 55 58 61 63 65 64 64 65 65 66 63 61 62 63 65 70 73 74 75 76 78 79 76 75 65 59 53 51 48 45 42
48 47 47 47 49 50 51 49 48 49 51 54 57 60 62 63 62 62 64 65 65 64 62 61 62 64 66 69 73 74 75 77 81 83 79 73 67 63 57 52 49 49 46 43
45 46 48 49 48 47 48 49 50 52 55 58 60 60 59 60 62 65 66 67 65 64 62 63 65 67 70 72 74 76 81 84 83 78 71 66 60 56 52 48 47 46 43 40
44 45 46 46 46 46 49 51 54 57 58 57 56 57 61 64 65 66 67 65 64 63 64 65 67 70 72 75 80 84 86 82 74 68 61 57 55 52 48 46 45 43 41 38
43 42 42 45 47 49 53 55 56 54 53 55 58 61 64 66 66 66 64 62 63 64 65 69 71 74 78 83 87 83 76 69 61 58 56 53 52 51 47 45 44 42 40 37
41 44 46 48 51 53 53 52 51 53 57 60 63 65 66 67 65 62 62 63 64 67 70 72 76 81 85 84 79 72 65 62 59 56 53 51 49 47 45 44 43 41 38 37
45 48 50 52 51 49 49 51 55 59 62 64 66 66 66 62 61 61 61 64 67 70 74 78 83 84 80 75 68 65 64 60 56 53 50 47 47 45 44 42 42 40 38 37
50 51 51 49 48 50 53 57 60 62 64 65 66 64 61 59 60 62 65 68 71 76 81 84 82 78 72 68 67 65 60 53 49 48 48 49 48 47 45 42 42 40 39 37
52 50 49 49 52 55 59 61 63 65 66 65 62 59 59 60 62 65 68 73 77 81 83 79 75 71 69 67 62 56 49 46 48 49 50 50 50 49 48 45 43 42 41 40
49 49 52 54 57 60 62 64 65 64 62 59 59 59 61 63 66 70 74 78 81 79 77 73 69 68 65 59 54 48 47 48 49 50 49 49 47 46 46 46 43 41 41 40
51 54 57 59 61 63 64 64 62 61 59 58 60 62 64 67 70 74 77 78 77 74 70 68 65 61 57 54 50 48 48 50 51 49 46 43 40 40 41 41 42 41 38 35

GFSNGP_500_spd_057.txt.gz
Wind_Speed
21 22 24 28 25 22 23 20 22 16 20 16 23 29 32 37 35 31 34 39 41 44 44 36 42 43 49 52 52 55 55 57 57 56 57 58 59 61 61 59 64 73 80 83
26 26 28 28 27 21 27 25 22 20 19 19 26 31 35 40 40 41 43 45 43 40 38 49 50 51 51 53 54 55 55 56 55 57 59 59 59 60 60 60 64 68 74 80
26 25 27 28 19 25 25 24 24 25 26 26 30 32 34 34 37 41 44 45 46 47 48 50 52 53 54 55 55 54 55 55 57 58 59 60 60 61 64 67 70 73 77 80
23 25 28 22 25 24 23 25 27 28 27 26 28 32 34 34 35 37 40 43 45 48 51 53 56 56 55 53 54 55 56 56 56 57 57 61 66 67 71 76 79 78 81 84
24 24 23 22 20 17 17 22 23 23 26 26 29 32 34 36 37 39 41 43 46 48 51 54 54 52 52 54 56 57 56 56 57 59 60 62 72 66 74 80 78 81 85 82
24 23 22 20 19 17 19 25 21 23 26 28 30 32 34 36 37 40 43 46 49 51 51 50 50 51 53 55 55 55 57 58 60 60 60 62 69 75 85 82 81 80 83 81
23 24 22 23 18 21 24 24 24 26 25 26 28 31 34 37 40 43 45 48 49 49 49 50 50 52 53 54 55 56 57 59 61 62 68 69 73 78 82 85 84 83 80 75
19 20 21 21 20 20 21 22 24 25 26 30 33 36 38 41 43 46 49 49 49 49 49 51 52 53 55 56 57 57 60 61 62 64 67 72 77 79 81 81 78 75 71 72
18 17 17 17 16 16 22 24 26 28 32 35 37 40 42 44 46 47 49 50 50 51 53 54 55 56 56 57 59 61 62 64 67 70 72 74 75 74 72 74 73 71 72 76
20 21 23 22 21 23 28 30 32 34 37 39 42 44 45 45 45 47 47 49 51 52 53 55 55 57 59 61 63 66 68 70 72 72 72 72 69 70 69 71 72 73 74 76
24 25 27 28 29 30 32 34 36 39 41 43 45 47 48 49 48 49 50 51 52 54 55 55 58 60 62 65 68 70 71 72 72 71 70 70 68 68 71 72 74 72 73 73
29 29 31 33 35 36 38 41 42 43 44 45 46 47 47 49 51 52 52 54 54 54 56 58 60 64 67 69 69 70 71 72 71 69 67 66 67 71 72 72 72 73 74 68
33 33 35 37 39 40 43 43 45 46 47 47 47 47 49 51 52 53 54 53 54 57 59 62 65 68 69 69 70 70 71 68 65 67 67 68 71 74 74 71 74 76 72 64
38 38 39 40 42 45 46 47 48 48 48 48 49 50 51 52 53 53 52 54 57 60 63 66 66 67 68 70 72 72 70 68 70 69 71 72 75 74 76 79 79 73 65 59
42 41 42 43 45 46 47 47 48 49 49 50 51 53 54 53 51 52 54 57 61 64 64 64 66 69 71 72 71 68 68 68 70 72 74 76 76 79 82 83 81 69 60 53
43 44 45 46 46 47 47 48 50 50 51 52 53 52 51 51 53 55 59 62 62 62 64 66 68 70 70 68 67 67 69 71 73 75 77 78 82 84 82 77 72 63 58 52
44 46 46 47 48 47 49 49 50 51 52 52 51 51 51 53 57 60 60 60 62 64 66 70 71 71 70 69 70 71 71 71 74 76 80 84 85 81 74 68 63 56 52 50
46 47 48 48 46 48 49 50 51 51 51 51 50 52 55 58 58 57 59 62 65 67 70 72 73 71 69 69 70 70 72 74 78 83 85 82 76 69 61 57 55 53 49 46
46 46 47 47 47 48 49 50 51 50 49 51 54 56 57 56 57 59 62 65 68 71 72 73 70 69 68 67 69 73 77 82 85 83 77 71 64 61 58 56 53 50 47 43
43 45 45 47 47 48 48 47 48 50 53 55 56 56 55 57 60 63 66 70 72 74 75 71 69 66 67 70 74 79 84 85 78 74 67 64 63 60 56 53 51 49 46 42
43 46 47 48 47 45 46 48 52 54 56 55 54 54 58 61 64 67 69 71 73 71 68 66 65 68 72 76 81 85 81 77 71 67 66 61 56 52 49 47 45 44 43 41
46 46 44 42 43 47 50 53 56 55 54 53 55 58 62 65 67 70 72 72 70 67 65 66 69 73 78 82 84 79 74 69 67 64 58 51 45 43 44 44 44 44 44 42
41 39 41 45 48 52 55 56 54 53 53 55 59 63 65 68 70 71 70 68 64 64 66 70 75 79 82 81 77 71 69 67 61 54 48 45 45 46 47 47 47 47 45 43
40 43 47 50 53 56 55 54 53 55 58 60 63 65 67 70 70 70 67 64 65 68 71 75 79 81 79 74 69 69 66 58 54 49 47 47 48 49 49 49 48 46 44 42
45 49 52 55 55 53 53 54 56 59 62 65 67 69 70 68 67 65 64 65 68 71 75 78 78 76 71 68 68 64 57 52 49 48 48 50 50 49 47 45 42 41 41 42
51 54 53 52 52 54 56 59 61 64 66 67 69 68 65 64 64 64 65 68 70 75 77 77 75 70 67 66 63 57 51 49 50 52 52 53 51 48 42 38 36 35 35 37
51 51 52 54 56 58 61 64 66 67 66 65 65 63 63 63 63 65 68 70 73 75 75 75 70 67 65 62 57 52 49 50 51 53 53 52 48 43 36 31 29 27 27 28

GFSNGP_500_spd_060.txt.gz
Wind_Speed
22 22 23 25 26 24 26 27 27 22 19 17 24 27 28 30 31 30 28 31 33 32 33 32 33 34 37 39 47 48 55 57 58 58 57 58 60 61 61 63 65 66 70 75
27 25 26 27 30 29 26 25 28 26 22 22 21 25 27 29 31 32 33 34 35 27 31 31 34 36 41 46 55 54 55 56 57 57 57 59 60 62 62 64 65 65 69 75
27 27 28 32 29 30 29 27 30 28 26 23 25 25 26 27 30 32 34 37 36 35 35 37 43 44 51 52 52 53 55 55 55 58 58 60 61 62 63 64 67 70 75 78
28 30 33 24 26 25 26 26 28 28 28 25 26 26 27 28 30 32 34 37 39 40 42 45 48 50 50 52 53 53 53 55 57 57 59 61 61 64 66 69 72 75 76 80
30 28 28 24 25 24 24 25 26 24 23 22 23 26 29 29 31 34 36 37 38 41 44 46 48 49 51 51 52 54 55 56 58 60 61 63 64 67 70 72 73 77 81 80
29 28 27 22 25 23 23 26 22 20 22 24 26 29 30 32 33 34 35 37 39 42 45 47 48 49 50 52 53 55 55 58 59 60 63 65 68 71 71 72 76 76 74 73
27 28 26 22 23 25 25 20 21 23 24 26 29 30 30 32 34 35 37 40 43 44 45 46 48 50 51 53 55 56 57 58 60 63 65 68 70 72 75 76 75 73 72 73
26 25 23 19 22 23 21 22 22 23 24 24 26 28 31 33 35 38 41 43 44 46 47 48 49 51 52 54 56 56 58 61 63 66 69 71 73 76 76 74 71 71 71 69
27 25 22 18 14 17 18 19 20 22 25 27 30 32 34 37 40 42 45 46 47 47 48 50 51 53 55 55 56 59 61 64 67 70 70 71 74 75 74 69 70 71 70 72
29 27 24 20 18 19 21 22 24 27 30 32 34 36 38 41 43 46 47 47 48 49 51 52 53 54 55 56 59 61 65 68 69 70 72 74 76 74 71 71 72 72 73 73
32 29 28 26 24 24 25 27 30 32 34 37 39 41 43 45 46 47 47 48 49 51 53 53 53 54 56 59 63 65 66 66 68 72 74 75 74 72 72 71 74 75 75 75
35 34 34 33 31 30 31 34 36 37 38 40 41 43 45 47 48 49 50 51 53 54 54 53 55 57 60 63 65 65 66 69 73 75 74 72 71 70 71 72 73 76 78 80
37 37 37 36 34 35 37 39 40 41 42 43 44 46 47 49 49 50 52 53 54 53 53 55 57 61 63 64 65 67 70 73 75 77 76 74 73 74 73 69 73 76 81 85
40 39 38 38 39 40 41 42 44 44 44 46 46 47 49 49 50 52 53 52 53 54 55 59 61 61 62 64 68 71 74 77 79 79 77 74 73 72 74 77 79 81 81 79
42 42 42 42 43 44 45 46 45 47 48 48 49 49 50 51 52 52 53 54 54 57 60 60 61 62 65 69 71 74 77 78 77 75 72 71 73 76 79 83 85 81 73 66
41 41 43 45 46 46 46 47 49 48 49 50 50 51 52 51 52 52 52 54 58 60 60 61 63 66 69 72 74 77 78 77 75 72 71 74 78 82 86 85 78 72 65 57
44 44 46 47 46 46 47 48 48 49 50 51 51 52 52 52 51 53 56 58 59 59 61 63 66 69 72 76 78 79 77 74 72 72 76 81 84 85 80 75 69 64 61 57
47 47 46 46 47 48 47 47 49 49 50 51 52 51 50 52 54 57 58 59 60 61 64 67 70 73 76 78 78 77 74 72 73 78 82 84 81 77 70 67 66 61 53 48
42 43 46 49 48 45 45 47 49 51 52 51 51 51 52 56 58 58 58 59 61 65 68 71 72 74 77 77 75 72 72 76 80 84 82 78 71 68 67 62 57 51 46 44
45 47 47 43 43 45 47 49 51 52 50 49 51 54 57 58 58 58 60 62 65 68 71 73 75 77 76 74 72 73 77 80 83 79 74 69 69 64 56 51 47 43 43 43
43 39 40 43 44 47 49 50 48 46 49 53 56 59 59 58 59 61 63 66 69 72 74 75 75 75 72 70 72 76 80 82 78 72 68 68 62 54 49 45 44 45 46 47
36 39 43 47 49 48 43 43 46 50 55 58 60 60 59 60 61 64 67 70 72 73 74 73 73 70 69 71 75 79 81 78 73 68 67 63 54 50 49 48 48 49 49 49
40 45 48 44 41 41 44 47 52 57 60 61 60 59 60 62 64 67 70 71 73 72 72 71 67 68 70 74 78 78 76 73 69 67 65 57 52 52 52 51 51 50 48 46
43 40 40 41 43 46 50 54 59 61 61 59 59 60 62 65 68 70 71 72 71 70 68 65 66 69 73 77 77 76 75 71 68 65 60 52 52 54 55 55 53 49 44 39
40 41 44 47 50 53 57 60 61 59 58 59 61 63 66 68 69 71 70 68 66 64 64 66 69 72 76 77 75 77 74 69 64 60 52 50 52 55 55 54 50 44 37 33
44 47 50 54 57 59 58 57 58 59 61 63 66 68 70 70 69 67 66 64 63 65 67 70 73 75 76 75 77 77 71 63 57 53 48 50 53 54 53 49 43 37 32 29
51 54 56 57 56 57 59 60 61 64 66 68 69 70 68 66 64 63 62 65 66 68 71 74 75 77 75 76 77 72 63 55 52 47 48 50 52 51 47 41 35 31 30 29

GFSNGP_500_spd_063.txt.gz
Wind_Speed
29 28 24 26 23 27 31 30 27 25 27 24 23 26 29 28 27 29 25 24 26 28 31 33 31 34 37 37 38 36 43 48 52 60 59 59 59 60 63 65 65 67 67 69
29 26 25 27 27 30 31 29 26 28 32 31 25 27 27 26 25 25 26 26 28 31 31 30 29 33 35 40 37 42 42 54 58 57 58 59 60 62 63 64 65 67 69 72
26 29 31 30 26 28 30 33 34 34 31 30 26 24 25 25 25 27 29 30 31 32 31 33 34 38 33 34 38 46 53 56 56 56 57 60 61 61 63 64 67 70 72 75
27 31 35 27 29 31 33 33 31 30 29 28 27 27 28 27 27 27 28 30 31 33 33 36 38 33 41 47 50 53 54 54 55 57 58 60 61 62 64 66 70 72 75 76
32 32 34 31 30 32 31 30 28 28 26 24 25 24 25 26 26 27 28 31 33 34 36 39 42 44 46 49 51 51 52 54 56 57 58 59 60 64 67 70 72 73 74 76
31 31 34 31 29 32 33 32 25 23 24 26 25 25 25 26 27 29 30 31 34 37 39 41 43 46 48 48 49 52 54 55 57 57 58 60 63 67 71 72 73 74 76 79
32 35 33 29 30 30 34 25 24 24 26 27 28 27 27 28 28 29 32 34 36 38 41 43 45 46 48 50 51 53 54 56 56 57 60 64 68 70 71 73 74 77 79 79
32 34 32 27 27 29 25 28 27 27 27 27 26 26 26 28 30 32 34 36 38 40 42 44 46 48 49 51 52 54 55 55 58 60 64 67 68 70 72 74 77 78 79 76
34 33 30 26 24 24 23 24 24 23 23 24 24 26 27 30 32 34 36 39 41 43 45 47 48 49 51 53 54 54 55 58 60 64 66 67 69 71 75 78 78 78 76 75
36 32 29 28 25 23 23 23 23 24 25 27 28 29 31 33 35 38 40 42 44 46 47 49 50 51 52 52 53 55 57 60 63 64 66 68 72 75 78 80 79 79 77 76
36 36 32 33 29 27 26 27 28 29 30 31 32 34 36 38 40 41 43 45 47 48 49 50 51 51 52 53 55 57 61 62 63 65 68 70 74 77 79 78 77 76 73 72
33 33 37 35 34 31 31 32 33 34 35 36 38 40 41 42 42 45 47 48 49 50 51 51 52 53 54 55 59 61 62 63 65 68 71 75 78 79 80 79 76 73 73 78
35 37 39 39 38 38 37 37 37 38 38 40 43 44 44 45 46 48 49 50 51 52 52 53 53 53 56 59 61 62 63 67 70 72 76 79 83 85 86 79 73 74 78 82
40 41 41 40 41 41 41 42 41 41 43 45 45 45 46 47 49 50 51 51 52 52 53 53 54 57 60 61 61 63 67 71 74 77 80 83 85 82 78 79 80 78 80 82
40 40 40 42 43 44 44 44 44 45 47 47 47 48 48 49 50 51 51 52 53 53 54 56 58 60 61 61 64 67 70 74 77 79 82 84 81 78 78 80 84 83 78 72
38 38 42 45 46 43 41 43 45 46 47 48 49 49 50 50 50 52 53 54 54 54 56 59 61 61 62 64 67 70 74 77 79 81 83 80 78 77 79 82 79 75 70 70
44 46 45 40 42 44 44 45 47 48 49 50 51 50 50 52 53 54 54 53 55 58 60 61 61 62 64 67 71 74 77 79 81 82 79 77 76 80 81 76 72 68 67 62
37 42 50 54 50 47 48 47 47 48 50 50 50 50 51 52 52 52 53 56 60 62 62 62 63 65 68 71 74 77 79 80 80 77 74 75 80 80 76 71 66 66 60 52
39 42 46 45 40 46 43 45 48 50 48 49 50 51 52 51 51 53 58 62 64 63 64 64 66 68 72 75 77 79 79 78 74 71 74 78 80 77 73 68 66 61 53 50
38 36 31 43 46 48 49 48 45 45 48 50 52 50 49 51 55 59 64 67 66 65 65 66 69 72 75 77 77 76 74 71 70 73 76 80 78 76 71 66 62 53 50 50
34 37 41 47 48 45 40 42 45 49 52 49 47 49 53 56 60 67 69 68 66 66 68 70 73 75 76 76 74 72 70 69 72 75 79 79 78 74 67 63 55 51 51 52
43 45 40 34 34 38 43 47 50 48 46 48 51 54 58 63 68 70 69 68 67 69 71 73 75 76 75 73 70 69 68 70 75 79 79 78 77 69 61 55 50 52 54 54
27 29 33 37 41 44 46 46 46 47 50 53 57 61 66 69 70 67 67 68 70 71 73 75 75 73 70 68 68 68 70 74 77 79 77 78 71 60 55 49 50 52 54 53
33 37 40 43 44 45 46 47 49 52 55 60 64 68 69 68 67 68 70 71 73 75 75 74 72 68 66 66 68 71 74 77 78 77 78 73 62 55 50 48 50 53 52 47
41 42 43 45 46 47 48 51 55 59 63 66 68 68 67 67 68 70 72 74 75 75 72 68 65 65 67 70 73 76 77 78 76 77 74 64 55 52 49 47 49 51 47 40
44 45 45 47 49 52 56 59 62 65 66 65 66 66 68 69 71 74 75 75 73 69 64 63 68 71 71 73 76 77 78 76 76 73 65 57 52 49 47 47 49 49 43 37
47 48 50 53 57 60 62 63 63 64 65 66 68 70 72 74 76 76 74 71 68 66 65 69 71 72 75 77 77 77 76 76 72 64 58 53 50 47 47 46 47 46 40 38

GFSNGP_500_spd_066.txt.gz
Wind_Speed
22 23 25 27 26 29 29 25 24 19 23 22 23 24 24 28 27 22 24 26 24 25 27 29 31 31 33 34 35 36 39 42 38 46 52 57 60 65 63 63 64 65 65 65
25 26 28 29 26 31 31 30 26 27 26 24 27 28 26 26 30 28 26 23 25 27 29 29 30 32 32 34 35 40 41 38 45 52 56 60 62 62 62 64 65 65 65 67
27 25 28 27 19 26 28 29 30 30 28 31 27 27 26 26 28 28 28 28 28 28 29 30 30 32 33 33 40 38 41 47 51 55 56 58 59 62 63 65 65 65 67 70
30 27 32 17 20 22 26 27 31 33 31 30 30 29 29 28 29 29 29 28 28 29 30 30 31 31 34 37 40 42 45 48 51 54 55 58 60 63 64 64 65 66 70 72
32 28 29 20 20 24 27 27 30 28 29 29 30 30 27 27 26 25 25 27 28 30 29 30 33 36 38 41 44 46 48 50 52 54 56 58 61 62 62 63 66 69 70 72
33 33 29 20 24 25 28 26 27 26 28 31 31 30 28 26 26 26 26 27 28 28 30 33 36 38 41 43 45 47 49 51 53 55 58 60 60 61 63 67 69 69 71 75
30 33 28 24 24 26 28 27 27 27 29 31 31 30 28 27 27 27 26 27 28 30 32 35 37 40 43 45 47 49 51 53 55 57 58 59 61 63 67 68 69 71 74 77
29 32 29 21 24 26 26 26 26 26 27 29 29 28 27 26 25 26 28 30 31 33 36 38 40 42 45 47 50 52 54 55 56 57 59 60 63 66 67 69 71 74 77 79
31 30 27 26 24 27 27 25 24 23 21 21 22 23 25 27 29 30 32 34 35 37 39 41 43 46 48 50 52 53 55 55 57 58 60 64 66 67 69 72 75 78 81 84
34 29 26 27 27 30 29 26 26 25 23 21 23 25 27 30 33 34 36 39 40 41 43 45 47 49 51 52 53 54 55 56 58 61 64 66 68 70 72 75 78 81 84 87
33 32 28 30 31 35 32 30 30 29 28 28 28 29 32 34 36 37 40 42 44 45 46 49 51 52 52 53 54 55 56 58 61 64 65 67 68 70 73 77 81 84 87 90
23 29 36 29 35 35 33 32 35 34 34 33 34 35 36 37 39 41 43 45 46 48 49 51 52 52 53 55 56 57 59 62 64 65 66 68 70 72 76 79 82 85 86 84
34 33 34 29 32 36 33 34 37 38 40 42 42 42 42 43 44 46 47 47 49 50 52 52 52 54 55 56 56 59 62 65 66 67 69 71 75 78 80 80 85 85 80 79
34 32 35 33 34 37 39 39 40 40 42 44 45 46 46 46 47 48 48 49 51 52 53 53 54 55 55 57 60 64 66 66 67 69 72 75 78 82 85 88 89 83 75 79
36 36 39 37 41 41 42 44 43 42 44 47 47 44 46 48 49 49 51 52 53 53 53 54 55 55 57 61 65 66 66 68 70 72 75 78 81 84 86 86 81 79 77 79
38 37 43 47 45 41 42 47 42 48 52 48 43 45 48 49 50 52 53 52 52 54 55 55 55 58 62 66 68 68 68 70 72 75 78 81 83 84 83 78 76 78 82 80
34 37 42 45 44 42 38 44 51 48 50 51 49 50 50 51 50 50 50 52 54 54 54 56 59 63 68 71 70 69 70 72 75 78 81 82 82 81 76 74 76 81 81 79
26 37 41 37 39 42 43 45 48 48 46 47 43 49 52 50 48 50 53 54 53 55 57 61 64 69 72 72 70 71 73 75 78 80 81 80 79 75 73 74 79 80 78 73
38 40 41 40 40 40 42 42 37 49 51 49 51 52 47 48 51 54 53 52 55 59 63 66 70 73 74 72 72 73 75 78 79 80 79 76 73 73 74 77 79 77 75 64
36 36 36 36 38 40 36 41 47 46 49 54 52 47 50 54 53 51 52 56 60 64 67 72 75 75 73 72 73 76 78 79 79 76 73 71 72 73 75 79 76 76 68 58
28 30 31 34 35 36 43 48 48 47 42 43 48 52 53 51 52 54 57 61 66 69 73 75 74 73 73 75 77 79 79 78 73 71 72 72 73 75 78 76 75 73 63 54
28 31 33 37 38 45 46 44 39 41 46 49 51 52 53 54 56 60 63 67 71 74 75 73 73 75 76 78 79 79 76 71 70 72 71 72 76 78 77 75 73 66 58 53
33 33 39 42 40 40 37 40 44 48 50 52 53 54 56 59 62 66 69 73 75 74 73 75 76 78 80 80 78 75 72 69 70 72 73 77 78 77 75 74 68 60 55 51
30 30 30 32 35 39 43 47 49 51 53 54 56 59 62 66 69 72 74 73 73 75 76 78 80 80 79 77 73 71 69 70 73 74 77 79 78 76 75 68 61 56 53 50
30 32 35 39 43 46 48 50 52 53 55 59 62 66 69 72 72 72 72 74 76 78 80 81 80 78 76 72 70 70 72 74 75 78 79 78 76 75 68 61 57 53 50 48
37 41 44 45 47 49 51 54 56 59 62 65 68 70 72 72 73 74 75 78 80 82 82 80 77 74 71 70 71 74 75 77 79 79 77 76 73 66 61 58 54 50 47 46
44 45 47 49 52 54 57 59 62 65 68 69 70 71 72 73 76 79 81 82 82 81 78 74 71 71 72 74 76 78 79 79 78 77 76 70 64 60 58 53 49 45 44 44

GFSNGP_500_spd_069.txt.gz
Wind_Speed
16 19 23 22 21 25 27 25 30 19 16 14 18 19 22 25 28 28 28 26 26 26 28 32 32 29 30 33 32 31 33 34 33 36 40 43 45 45 61 66 66 69 68 68
20 20 22 22 22 25 25 24 29 24 17 19 21 21 23 28 29 30 30 29 28 27 27 28 31 29 31 31 32 33 33 34 37 39 32 43 52 58 63 68 66 66 67 68
24 24 24 22 16 21 24 24 25 24 20 21 24 26 25 25 28 30 30 29 29 30 29 28 30 30 31 32 32 32 33 37 41 43 44 48 51 55 59 61 63 65 66 67
29 29 32 13 18 20 21 20 21 22 23 24 25 25 26 27 28 29 29 29 29 29 29 29 29 30 32 31 32 33 36 39 42 45 48 51 54 58 61 62 63 64 66 67
33 29 27 17 14 19 22 14 18 23 24 25 25 26 27 26 26 25 24 23 23 24 26 27 29 29 30 32 34 37 40 43 46 49 52 54 56 57 59 61 63 65 66 69
34 34 28 12 19 23 25 11 22 20 22 23 24 25 26 25 25 23 22 23 24 25 25 25 28 30 32 35 37 40 42 46 49 52 53 55 57 59 60 62 63 65 68 70
33 33 28 17 20 23 26 20 22 22 23 23 23 24 24 24 23 24 23 22 22 23 25 28 30 32 35 37 39 42 45 48 51 53 55 57 58 60 61 63 65 68 70 71
33 34 29 19 23 24 24 23 23 23 23 23 23 23 22 22 21 21 21 23 24 26 28 31 34 36 38 41 44 46 49 52 54 55 56 57 59 61 63 65 68 70 71 74
31 31 28 22 23 24 25 26 25 24 23 22 21 21 21 21 23 23 25 27 29 31 33 35 38 40 42 45 47 50 52 54 55 56 57 59 60 62 66 69 70 72 75 76
32 26 29 27 24 26 28 31 29 27 26 25 24 24 24 26 28 30 31 33 35 37 38 40 42 44 46 48 50 53 54 55 56 57 58 59 62 66 68 71 73 75 78 79
35 28 29 31 30 30 32 34 32 30 29 28 29 30 30 31 33 34 36 39 40 42 44 46 48 49 50 52 53 55 55 55 56 56 58 62 66 68 70 72 74 77 79 82
32 28 37 28 28 35 37 37 33 31 30 31 34 35 36 37 40 41 41 43 45 47 48 49 50 51 52 54 55 55 55 56 56 57 61 65 68 70 71 73 76 78 82 85
32 34 33 29 27 27 33 32 31 33 34 34 36 38 38 39 43 45 44 45 46 48 50 51 52 54 56 55 55 56 56 56 57 61 66 69 70 71 71 73 76 79 83 85
38 39 34 29 30 31 34 34 36 37 38 38 40 42 43 43 44 47 49 49 49 52 55 56 56 55 55 56 57 56 56 59 63 67 72 73 74 73 74 76 78 81 84 86
40 37 33 33 35 31 35 37 38 40 41 42 43 45 48 46 52 49 50 49 50 53 54 55 55 55 57 59 58 58 61 65 69 73 76 76 75 75 77 79 82 84 85 83
34 24 27 33 39 36 38 42 42 47 47 44 49 48 46 50 57 56 51 44 47 50 53 54 56 59 60 57 58 62 67 70 74 78 78 77 76 78 80 82 84 84 82 79
24 26 34 38 38 41 46 47 44 48 44 47 50 47 48 48 51 53 47 49 47 49 52 56 61 60 57 59 64 68 72 75 78 78 77 77 78 80 82 83 82 79 77 74
38 35 31 27 27 33 36 41 45 42 42 45 46 45 47 56 55 51 48 46 49 52 58 62 59 59 61 65 69 73 77 78 78 77 78 79 80 82 82 80 76 75 73 74
31 32 34 35 36 36 39 42 43 38 37 43 43 44 50 50 52 51 50 51 55 59 60 60 62 64 66 70 74 77 79 79 78 79 80 81 82 81 78 75 73 75 74 76
34 37 38 37 36 36 37 38 39 38 38 39 45 48 47 47 50 49 53 57 58 60 61 63 65 68 72 75 78 79 78 78 79 80 81 81 80 77 74 72 74 75 77 78
30 31 33 36 37 37 36 36 35 36 43 49 46 43 42 45 50 55 58 59 60 62 65 67 71 74 78 81 80 78 78 80 81 82 81 79 76 73 72 74 76 77 79 77
29 31 33 34 34 35 36 37 40 45 44 45 45 45 48 53 56 58 60 61 64 67 70 74 77 80 81 81 80 80 82 83 83 81 79 75 73 73 75 77 78 79 77 76
31 31 32 33 36 38 39 38 39 41 42 45 50 53 55 57 59 62 64 67 70 73 77 80 81 81 80 80 82 84 84 83 80 77 73 72 74 76 78 79 79 77 76 70
28 28 30 34 36 36 35 36 39 43 48 52 54 55 59 62 65 68 70 73 77 80 81 81 81 82 83 85 85 84 82 78 74 74 76 77 78 79 79 78 78 74 67 62
25 27 28 30 32 35 38 42 46 48 51 54 58 61 64 67 70 74 77 80 81 81 82 83 85 86 86 85 83 80 77 77 79 79 79 79 80 79 79 76 69 63 59 56
30 32 34 37 39 42 45 48 50 53 57 60 62 66 69 73 76 79 80 81 82 84 86 87 87 85 83 81 80 81 82 81 81 80 81 80 79 76 70 65 61 57 52 47
38 40 41 43 46 48 51 53 56 59 62 65 69 73 76 78 79 80 81 83 84 85 84 84 84 84 85 84 83 83 83 83 82 82 80 75 70 67 63 58 52 47 44 42

GFSNGP_500_spd_072.txt.gz
Wind_Speed
23 22 24 22 23 23 27 24 28 19 20 16 17 18 19 20 20 22 23 25 28 29 32 33 32 34 39 37 37 37 39 39 38 36 38 38 38 39 40 51 52 53 63 72
28 24 23 24 22 24 24 25 23 21 20 18 19 20 19 19 20 24 27 27 27 29 30 32 32 32 32 30 33 35 36 36 36 37 36 39 42 43 41 48 52 60 66 64
30 25 26 25 19 21 23 23 23 23 19 19 20 20 20 20 21 22 25 27 28 28 28 30 32 33 33 32 32 33 34 35 36 38 39 40 42 45 48 52 54 58 62 65
32 30 36 16 17 20 21 19 20 20 20 24 22 22 22 23 23 24 23 23 25 25 24 25 27 30 32 33 33 33 34 35 36 38 40 42 45 49 52 55 58 61 63 64
37 32 30 19 17 18 21 19 20 23 25 24 22 23 24 25 25 23 23 22 23 23 22 22 23 26 29 32 32 33 34 36 39 41 43 46 49 52 56 58 60 61 63 65
36 36 34 16 16 19 23 15 20 28 24 23 21 21 22 24 24 24 24 23 23 23 24 25 26 27 28 29 32 34 37 39 42 44 47 50 53 56 58 60 61 62 63 64
38 38 33 22 19 22 27 15 29 27 27 25 24 23 22 22 24 24 24 24 24 24 23 24 26 28 30 33 35 38 41 43 46 48 51 54 56 58 59 60 60 61 62 65
42 40 37 21 24 25 23 27 28 28 27 26 25 23 24 22 22 21 22 22 23 24 26 27 30 32 34 37 40 42 44 47 49 52 54 56 58 60 60 60 61 61 63 66
33 37 35 31 27 24 25 27 28 29 29 28 26 24 24 22 22 24 24 25 27 28 30 33 34 36 39 41 44 47 50 52 53 55 57 59 60 60 61 61 60 61 65 69
39 35 34 39 29 26 26 26 29 31 34 32 31 29 28 27 27 28 30 31 32 34 36 38 40 42 45 47 49 50 51 53 56 59 60 60 60 61 62 61 63 67 71 76
41 36 30 33 32 32 33 34 35 38 36 35 37 34 33 32 32 32 35 37 38 40 42 44 45 48 49 50 52 54 55 57 58 59 60 61 62 62 61 64 68 72 76 79
41 39 41 41 37 37 36 36 33 39 39 36 38 36 35 35 36 38 40 41 42 42 44 46 49 51 52 53 56 58 58 58 58 59 62 63 62 61 65 69 73 76 80 82
33 34 37 37 37 40 37 31 29 28 32 33 36 37 36 39 39 40 42 43 43 44 47 49 50 53 53 52 53 56 57 58 60 63 65 63 63 66 70 73 78 81 83 83
33 38 37 38 38 36 34 35 38 36 37 34 37 38 39 40 41 41 44 44 47 48 53 56 56 55 50 52 56 56 56 58 63 65 63 64 67 71 75 80 82 83 82 81
31 35 37 36 37 41 40 39 41 41 39 37 39 41 43 46 47 46 49 49 48 51 57 60 58 54 54 57 56 57 59 63 63 64 66 68 71 76 80 83 84 83 83 83
33 34 29 32 37 40 37 37 37 40 40 41 42 45 49 48 49 52 49 49 54 57 58 58 56 55 55 56 58 61 63 64 65 67 69 72 76 81 84 86 85 83 83 85
33 34 32 29 29 33 33 34 37 40 37 40 44 44 47 49 49 46 48 47 51 56 55 55 53 53 55 58 62 64 65 68 69 71 74 78 83 86 86 85 84 84 85 85
33 31 31 30 35 34 35 33 31 32 35 40 49 47 43 45 48 51 53 48 53 53 54 55 54 55 59 62 65 67 69 71 73 77 80 84 87 87 86 85 85 85 85 82
32 33 30 29 29 31 33 36 36 37 40 38 38 48 42 46 45 51 51 52 54 55 55 55 58 61 63 66 68 71 74 77 80 83 86 88 87 86 86 86 86 84 79 75
29 31 32 31 34 38 39 39 37 36 37 39 42 43 41 46 49 48 53 56 56 57 58 61 63 64 67 70 74 77 80 83 86 88 87 87 87 87 87 85 82 77 75 77
31 31 34 37 37 37 37 36 37 39 39 39 42 44 45 47 52 54 53 55 57 60 62 65 68 71 73 76 80 84 87 89 89 88 88 88 89 87 84 80 78 79 79 79
31 30 30 30 32 34 36 38 39 40 42 45 47 48 48 50 51 54 56 59 63 66 69 71 73 76 80 84 87 89 89 89 90 90 90 88 85 82 81 81 81 81 80 80
27 28 29 32 35 38 40 41 43 44 46 47 46 46 47 49 53 57 61 64 68 70 73 76 79 83 87 89 90 90 91 91 91 89 87 85 85 84 83 82 82 82 81 79
32 34 35 36 37 38 38 40 42 45 45 45 46 49 52 56 60 63 66 69 71 74 78 82 86 88 89 90 91 92 92 91 89 89 89 87 86 85 85 84 83 80 75 69
29 30 31 31 32 34 37 40 43 45 47 50 53 55 57 60 63 66 70 73 78 82 84 85 87 89 90 91 91 91 91 91 90 90 90 89 88 86 83 79 74 69 65 62
32 33 36 38 38 39 41 43 46 48 50 53 56 58 62 65 69 73 77 80 82 83 85 87 88 89 90 90 91 91 91 91 91 90 88 85 81 78 74 70 66 61 56 50
34 35 37 39 41 43 45 48 50 53 56 58 61 65 68 73 77 79 80 81 83 85 86 88 88 89 89 89 89 89 88 88 87 85 82 77 73 68 63 58 54 50 45 41

GFSNGP_500_spd_075.txt.gz
Wind_Speed
31 29 23 21 23 25 26 25 28 19 22 16 19 18 24 23 21 21 23 24 24 25 27 27 29 31 33 33 36 38 37 39 39 40 38 43 45 41 41 40 42 45 47 50
36 35 29 30 25 25 23 22 23 23 22 18 25 26 24 21 23 24 25 26 28 27 29 28 31 32 33 33 35 36 34 35 37 38 40 41 41 42 42 44 47 49 50 53
40 33 31 38 23 28 22 23 23 23 22 19 24 25 25 22 24 24 27 28 29 29 31 30 31 32 34 35 34 34 33 35 36 37 39 38 41 43 45 47 49 51 55 57
38 38 42 33 25 22 23 23 22 22 23 24 25 25 26 24 26 26 26 27 28 29 30 30 30 29 31 33 33 31 34 34 35 36 39 41 43 46 48 50 53 56 59 61
40 39 35 33 28 22 23 24 23 25 25 27 29 23 25 26 28 28 28 27 29 30 31 30 30 29 29 30 31 32 34 34 37 39 41 44 46 49 51 55 57 59 62 64
37 39 41 32 25 22 23 21 20 26 28 31 30 28 29 26 29 28 27 28 29 32 32 31 30 31 30 30 30 32 34 37 39 42 45 47 50 52 55 57 60 61 64 65
41 40 37 29 26 25 32 13 27 26 30 32 32 29 28 29 28 28 28 28 29 30 32 32 32 30 29 31 33 35 38 40 43 45 47 50 54 57 59 60 61 63 64 65
37 40 38 30 23 27 23 29 31 30 31 30 33 32 32 32 30 30 29 30 29 29 29 30 30 31 33 34 36 39 41 44 46 49 52 54 56 58 59 62 64 63 64 66
41 40 37 37 32 31 29 27 30 32 35 33 33 34 34 34 33 32 31 32 32 31 32 32 33 35 37 39 41 44 46 50 52 54 54 56 58 60 61 62 62 63 65 67
39 36 35 30 26 31 33 31 33 34 35 32 34 34 35 37 36 35 34 35 36 36 36 37 38 41 43 45 46 48 51 53 55 56 57 59 59 60 62 63 64 66 66 65
45 41 40 40 32 34 36 42 42 37 35 37 38 36 37 37 39 40 40 40 41 42 42 44 45 45 47 47 46 48 51 55 56 59 57 58 60 62 63 64 67 67 67 68
39 35 39 40 42 35 35 36 40 40 41 40 39 38 39 39 41 43 43 42 42 43 43 45 46 48 49 52 55 56 57 58 60 60 57 61 62 63 64 67 67 68 70 73
32 33 31 33 35 40 42 36 40 41 45 44 39 34 32 37 42 43 42 42 42 43 44 45 47 50 54 54 56 60 63 62 62 60 60 61 62 65 66 66 69 72 74 77
34 32 31 34 36 36 36 37 38 42 44 42 42 40 40 41 40 42 43 43 45 49 52 54 55 55 54 57 60 63 67 63 61 58 59 62 66 67 68 72 74 77 77 81
26 30 33 35 38 40 39 39 41 42 44 42 41 44 45 46 46 44 43 47 51 54 55 54 56 57 54 62 64 59 57 57 58 60 64 67 69 71 73 76 79 81 84 87
29 31 34 38 39 38 36 36 38 41 45 44 45 46 46 42 43 43 46 49 54 57 54 51 51 49 50 57 56 60 62 60 63 66 68 70 73 76 78 80 82 85 89 91
28 34 36 36 31 30 33 34 37 39 40 40 39 39 41 41 41 45 48 55 52 48 52 50 51 52 50 54 62 64 63 66 67 70 72 74 77 80 82 85 88 90 92 92
29 30 33 33 32 32 34 35 38 38 37 39 40 34 36 42 50 45 39 45 48 48 50 60 57 55 57 60 63 65 67 69 72 74 77 79 81 84 88 91 93 93 92 92
32 33 35 36 33 34 35 36 36 34 35 35 36 41 44 45 51 56 55 56 59 57 56 59 62 61 63 64 66 68 71 73 75 77 80 84 88 92 94 94 93 93 91 88
34 36 37 33 31 31 33 35 35 35 37 39 41 43 45 47 48 50 54 54 55 56 59 61 64 64 65 68 71 73 75 77 80 84 88 92 95 95 95 94 92 91 89 88
33 31 29 31 31 31 35 37 38 38 39 40 41 42 45 46 47 50 53 55 55 56 59 62 65 68 71 74 77 79 82 85 89 93 96 96 96 95 95 94 93 92 90 88
27 29 31 32 33 35 37 37 36 37 39 42 44 46 47 49 51 52 53 54 56 58 62 66 70 73 77 81 83 86 89 93 96 96 96 96 96 96 95 94 92 91 90 88
29 30 31 32 31 30 31 35 38 41 43 44 46 48 49 51 53 54 56 59 62 65 68 72 76 79 82 85 89 92 94 94 95 96 96 96 95 94 92 91 89 88 86 84
27 28 29 31 33 36 38 40 41 42 44 45 46 48 51 54 56 58 61 64 68 72 74 77 80 84 88 91 92 93 94 95 95 94 92 90 89 88 88 88 87 84 79 74
23 26 29 32 34 36 38 39 41 43 44 47 49 52 54 57 60 63 66 69 73 76 78 83 86 88 90 91 93 93 92 91 88 86 85 86 87 88 87 84 80 73 67 61
28 30 33 34 36 37 38 40 43 46 49 53 55 57 60 63 66 69 71 74 78 81 84 86 88 89 90 90 88 86 84 83 84 86 86 87 87 85 79 72 66 59 53 49
31 33 34 36 38 41 43 46 48 51 53 56 59 62 66 68 70 73 76 78 81 83 86 87 86 85 83 81 81 83 84 85 86 86 87 84 79 72 65 59 53 47 43 40

GFSNGP_500_spd_078.txt.gz
Wind_Speed
45 42 24 25 24 29 32 31 30 23 22 19 14 20 29 29 19 20 18 24 19 22 25 23 26 28 29 32 31 33 30 32 35 35 35 36 37 39 38 41 42 43 42 44
43 40 38 34 26 24 27 30 29 27 24 22 19 20 25 27 28 30 32 30 24 23 26 33 24 29 32 32 30 31 34 33 34 35 38 40 39 39 40 40 43 44 47 48
47 39 40 45 33 32 31 29 25 25 23 24 23 23 30 37 37 27 28 25 24 29 31 36 30 31 33 34 34 33 33 34 34 35 39 39 39 37 40 43 45 47 50 52
37 42 51 42 42 40 40 28 26 25 25 25 20 25 31 38 22 30 26 26 28 30 33 33 33 33 35 36 36 35 33 32 33 34 36 38 39 42 44 46 48 51 54 57
49 45 45 44 35 35 29 27 27 23 25 24 25 32 35 28 22 31 31 29 31 33 34 33 34 35 36 36 35 35 35 34 34 36 38 40 42 44 47 50 53 56 57 60
37 49 45 41 36 31 29 36 21 26 30 30 29 34 28 27 27 28 30 30 32 33 33 33 35 35 36 35 35 35 36 36 36 38 40 43 45 47 50 53 56 58 60 60
54 46 43 39 30 29 38 30 19 30 25 29 30 30 27 29 29 30 31 32 33 34 34 34 34 35 35 35 34 34 36 38 39 41 44 46 48 51 54 57 59 59 60 63
43 47 44 29 31 36 27 24 33 33 31 32 31 30 32 30 30 30 32 35 34 35 36 36 35 35 35 34 35 37 39 42 44 45 48 51 54 57 58 60 61 61 63 64
41 35 37 37 34 30 34 39 36 37 33 35 35 34 34 34 32 33 35 35 36 37 38 39 39 38 39 39 41 43 45 47 49 51 52 54 56 57 60 62 64 66 65 64
34 37 31 29 32 32 33 33 39 42 34 38 37 34 35 35 35 35 36 38 38 39 41 42 43 44 43 44 46 48 49 50 52 54 57 60 59 61 65 68 68 67 66 65
39 33 32 28 37 22 29 32 30 33 41 42 42 40 38 39 38 38 39 41 41 42 41 43 45 45 44 45 47 47 49 51 53 58 60 61 62 65 66 67 66 65 64 66
43 39 39 38 38 35 35 34 35 38 37 38 41 40 44 44 44 41 40 40 42 42 46 48 46 44 45 46 47 51 54 56 57 56 59 63 65 67 64 64 62 64 67 70
37 38 40 42 38 43 43 39 37 39 39 40 40 45 45 46 46 44 41 39 40 42 43 45 45 46 48 50 53 56 57 58 58 58 62 64 60 60 60 62 64 68 71 74
36 32 30 33 37 32 29 29 31 35 39 40 42 46 44 46 44 44 46 46 48 45 42 44 46 51 54 55 59 59 57 55 54 55 60 62 64 68 68 68 70 72 74 77
30 24 27 31 29 26 30 34 37 38 38 40 42 43 45 43 44 45 46 47 47 42 45 47 50 53 55 62 59 53 53 52 57 59 60 63 66 68 70 73 75 77 80 81
30 27 23 27 31 33 36 38 39 40 40 39 41 42 42 41 43 44 44 44 44 46 48 49 58 57 52 48 50 53 58 61 61 59 63 67 70 73 75 77 78 80 82 85
27 29 30 30 33 36 38 38 34 32 34 38 39 39 39 38 40 40 43 41 47 53 48 47 50 50 53 54 58 62 63 62 64 63 67 72 75 76 77 79 82 86 90 93
29 29 30 32 33 34 38 39 36 35 37 38 39 39 40 40 39 39 42 47 47 44 48 53 58 62 61 61 62 64 64 66 67 70 72 75 78 80 82 86 90 93 96 98
29 31 33 35 36 37 36 34 33 34 36 37 36 37 38 38 39 43 47 52 55 58 57 59 60 62 63 63 62 63 66 70 73 76 79 81 84 88 91 94 96 98 99 98
33 36 38 39 38 36 36 36 35 29 38 35 39 41 42 43 44 45 47 48 51 54 55 56 59 61 61 62 64 68 71 75 78 81 84 88 92 95 98 99 99 99 98 96
38 40 39 39 39 37 35 33 32 34 32 39 45 45 43 42 44 46 48 50 52 54 56 58 60 62 64 67 70 74 77 81 86 89 92 95 97 98 99 99 99 96 93 89
38 37 35 33 30 28 30 33 35 41 43 43 40 41 43 46 47 49 51 53 54 56 58 61 64 67 70 73 77 82 86 89 92 94 96 97 98 98 97 94 90 88 87 87
27 24 26 26 30 35 40 41 38 37 37 40 44 46 47 47 48 49 52 55 58 60 63 65 69 73 77 81 85 88 91 93 95 96 97 96 95 92 89 87 87 87 87 86
25 26 28 31 35 35 34 35 36 39 42 43 43 45 47 50 52 55 58 60 61 64 68 72 76 80 84 87 90 93 95 96 96 95 92 89 87 87 88 87 86 87 86 84
25 25 27 29 30 31 34 36 37 39 42 44 46 49 50 53 56 59 61 64 69 72 75 79 82 86 90 92 93 93 93 91 88 86 85 86 87 87 86 87 87 85 79 71
24 25 27 28 30 33 35 37 40 43 46 48 50 52 55 57 60 64 67 71 75 80 84 86 88 89 89 89 88 86 84 83 84 84 85 85 86 87 88 85 79 71 62 54
26 28 31 34 37 38 39 42 44 46 49 51 54 56 59 63 67 70 74 77 81 83 84 85 86 85 83 80 79 79 81 82 84 84 85 87 88 85 78 70 60 52 45 40

GFSNGP_500_spd_081.txt.gz
Wind_Speed
51 44 42 43 34 28 34 34 33 20 25 23 25 24 31 31 27 28 25 23 27 17 13 15 19 23 24 24 25 27 29 30 28 29 30 33 34 35 35 34 37 37 42 42
55 46 50 36 37 27 26 29 35 35 29 26 22 22 28 23 31 28 29 27 25 25 24 20 16 20 22 27 30 29 29 30 33 34 34 33 33 37 36 38 40 37 40 41
55 58 46 49 39 35 29 27 26 32 33 33 26 25 32 34 34 30 33 32 24 27 28 28 27 25 27 29 31 32 32 33 33 32 33 34 36 38 37 38 40 40 42 43
51 55 61 56 46 38 34 32 28 30 31 29 28 28 31 32 34 36 33 24 28 27 26 30 33 33 33 33 32 33 33 34 35 33 34 35 38 40 41 41 43 43 46 50
51 48 55 57 52 47 38 38 36 36 27 28 30 29 31 31 32 32 25 28 31 31 31 32 32 33 33 34 34 35 36 35 36 37 37 38 38 40 42 45 47 49 52 54
61 60 55 46 44 48 49 45 39 31 32 34 33 36 33 32 27 25 27 28 30 32 33 31 32 33 35 35 36 36 36 36 37 38 38 39 41 44 46 48 51 53 56 59
44 46 50 37 41 47 49 44 29 29 34 37 37 35 33 30 29 26 26 28 30 32 32 32 34 35 35 36 36 37 38 38 37 39 41 44 46 48 50 52 55 58 59 60
41 40 35 32 42 42 43 41 32 34 35 39 39 33 29 31 30 28 28 29 31 32 33 34 34 35 35 35 36 38 40 40 41 42 44 47 50 52 54 56 58 60 64 66
44 44 40 42 41 40 33 39 38 43 47 45 39 36 37 33 33 33 33 34 35 33 32 35 37 37 37 37 38 40 43 44 44 45 48 52 53 55 56 58 61 63 63 65
48 39 41 37 42 39 37 28 33 41 43 46 43 42 42 39 37 37 36 37 36 33 35 38 39 40 40 40 41 43 42 43 45 48 49 51 53 56 58 59 59 61 64 67
37 37 38 41 33 32 33 36 33 32 32 35 37 41 42 42 42 42 40 39 40 40 42 41 39 39 39 40 42 44 44 47 49 50 52 55 58 60 62 64 66 63 65 63
37 35 33 30 39 39 35 23 27 33 32 33 32 34 37 39 39 39 39 37 39 41 43 43 41 39 40 41 42 46 48 49 52 54 56 60 63 62 60 61 60 60 62 65
31 36 35 33 29 31 27 28 30 30 32 35 40 42 43 41 45 46 46 46 42 44 43 42 44 47 49 45 44 47 50 52 56 58 64 62 58 55 58 63 64 65 69 72
35 30 31 33 28 30 34 36 36 36 38 42 41 40 41 41 41 42 42 42 44 43 44 46 44 46 47 47 50 52 54 57 59 58 55 53 53 60 64 66 67 69 73 77
33 31 27 26 26 27 30 30 31 32 32 32 32 34 36 38 39 41 41 41 42 42 43 45 44 45 47 50 53 55 57 56 51 53 53 58 64 68 71 70 70 72 75 79
31 31 29 25 27 28 28 32 33 33 33 34 34 35 38 39 39 39 40 40 39 37 38 38 43 48 53 54 53 50 51 57 60 60 59 61 63 66 70 73 74 78 81 83
32 30 27 26 28 28 28 29 32 34 35 35 34 36 37 37 39 41 42 42 41 42 46 46 48 50 48 50 57 61 58 57 57 61 65 65 67 70 73 77 80 83 86 89
30 28 26 28 30 32 33 33 32 32 34 35 37 38 37 37 38 37 38 39 41 42 44 47 50 55 58 59 60 61 61 63 65 66 67 70 72 75 78 82 86 90 93 96
31 32 30 32 34 33 32 30 30 31 32 34 35 36 36 39 39 41 40 42 46 48 50 51 52 54 55 57 59 62 63 65 67 69 72 75 79 83 87 90 93 95 97 98
25 27 29 32 33 34 35 34 33 32 33 35 37 33 36 43 38 39 46 50 49 49 50 52 53 54 57 60 62 64 68 70 73 77 80 83 87 89 92 95 97 98 98 97
26 28 30 32 34 35 35 35 35 36 38 37 35 34 36 36 44 51 50 49 50 52 52 54 57 59 62 65 68 70 73 76 80 83 86 89 92 95 96 98 98 97 94 92
36 35 35 35 35 34 34 36 35 33 32 34 36 39 44 47 52 50 50 51 52 53 56 58 61 64 67 70 72 75 79 82 86 90 93 95 97 98 98 96 93 90 89 89
40 38 33 30 31 31 29 28 31 33 36 38 42 45 46 46 49 49 50 52 54 56 59 63 66 68 71 74 78 82 86 89 93 95 96 96 96 93 90 88 88 88 89 88
28 27 27 29 29 27 28 31 35 37 40 42 43 44 45 47 50 51 52 55 58 60 63 65 69 73 78 82 85 89 93 94 94 94 91 88 87 86 87 88 89 88 88 88
26 26 25 25 28 31 34 35 34 36 38 41 43 46 47 49 52 55 58 59 61 65 68 72 76 80 84 88 90 91 91 90 86 84 83 84 86 87 87 87 87 85 81 75
24 25 25 26 27 30 32 34 37 39 41 42 44 47 51 54 56 59 61 65 68 71 75 79 83 86 86 86 86 84 81 80 80 82 84 86 86 85 84 81 75 68 61 51
22 24 26 28 30 33 35 36 38 40 44 47 50 53 56 58 60 63 65 68 72 76 80 82 82 83 82 80 78 76 77 80 82 84 83 82 81 77 68 61 53 44 35 28

GFSNGP_500_spd_084.txt.gz
Wind_Speed
41 37 35 50 52 44 36 35 37 31 33 24 33 30 28 27 27 32 32 35 28 20 18 19 16 18 18 17 19 22 24 25 23 24 28 30 30 27 33 33 33 33 35 37
46 39 38 54 49 49 45 38 36 34 33 28 25 32 35 33 36 37 37 32 22 22 24 20 19 20 18 20 22 25 26 25 25 27 28 29 32 34 34 34 35 37 37 39
43 35 43 50 51 53 49 46 37 36 34 27 37 28 25 31 34 34 33 33 22 18 22 25 22 22 21 24 27 28 28 28 28 30 30 32 33 35 37 39 39 40 40 41
39 36 41 49 50 51 48 42 33 30 29 29 26 32 35 37 36 34 34 32 25 28 29 29 28 27 28 29 30 30 29 30 31 32 33 34 36 37 39 41 42 42 43 44
40 39 41 42 52 50 44 43 42 35 36 28 26 27 30 31 34 32 34 34 32 29 29 30 31 32 32 34 32 30 31 31 32 33 34 36 37 38 39 40 41 44 47 50
42 31 42 39 45 50 56 44 38 39 33 33 33 33 29 30 32 31 29 29 28 30 31 30 31 34 35 34 34 34 35 36 35 35 36 37 39 41 42 43 44 47 49 53
38 42 42 35 36 50 56 54 41 43 37 39 38 36 37 38 36 31 32 30 28 27 27 29 31 34 36 36 36 36 37 37 36 37 38 40 42 44 45 46 49 52 56 60
36 39 45 38 38 43 54 52 51 51 43 43 42 41 38 38 38 35 34 30 30 30 27 29 31 33 35 36 36 38 40 40 40 40 41 43 45 47 48 51 54 55 56 58
40 43 42 41 43 45 46 45 54 47 49 50 45 44 43 43 41 40 39 37 35 32 32 32 33 33 33 34 37 40 41 43 42 42 44 47 48 50 52 54 55 56 59 62
38 33 38 39 40 28 31 36 41 40 49 51 51 49 46 45 44 42 39 39 38 38 37 38 38 37 37 38 39 41 42 44 45 47 49 49 52 54 54 55 58 59 63 66
23 25 32 40 36 37 32 32 34 36 32 39 47 48 48 48 47 43 40 36 35 35 35 37 36 39 42 41 41 41 42 44 48 49 51 50 52 53 55 59 62 65 69 71
20 23 25 21 39 36 34 35 28 34 38 37 34 32 37 34 34 33 34 36 36 38 40 42 44 45 42 44 44 42 44 46 51 51 51 55 54 57 61 64 68 68 66 63
37 33 25 18 27 26 36 39 35 31 34 34 39 37 39 39 39 38 39 37 40 42 43 41 43 43 44 45 45 47 47 48 51 54 58 59 61 64 66 64 61 62 64 66
36 36 33 25 21 22 23 27 29 28 32 29 34 36 36 37 40 40 38 39 38 39 41 41 41 42 43 44 46 48 52 54 56 58 62 65 63 59 60 62 63 65 66 69
40 35 32 28 24 19 20 22 24 26 29 32 33 33 36 37 35 33 35 38 40 41 40 40 41 43 43 44 46 47 50 54 58 57 55 56 61 64 62 63 65 69 71 72
39 41 30 27 21 18 20 22 23 25 27 29 29 32 33 33 33 34 36 37 37 38 40 41 43 44 44 46 49 52 52 53 55 61 64 61 63 65 68 70 72 74 77 80
41 40 31 28 26 23 24 26 28 27 28 30 32 34 35 35 36 37 38 39 40 41 41 41 41 41 44 46 52 58 60 61 61 61 64 66 69 70 73 75 78 80 83 87
34 31 28 29 28 27 29 31 30 30 30 30 31 32 34 34 35 37 37 39 40 42 42 42 45 48 52 54 55 57 59 61 62 64 67 69 72 75 77 80 84 87 90 93
33 30 29 26 27 31 33 33 32 31 29 29 30 31 32 33 36 38 38 41 42 42 42 45 52 57 55 55 58 59 60 63 66 68 71 74 76 80 83 87 90 93 96 97
35 34 33 31 32 32 31 31 32 31 32 32 32 33 35 37 38 41 38 41 44 44 48 53 55 56 57 58 60 63 65 68 70 72 75 79 83 87 90 93 95 96 96 96
28 37 34 33 35 34 32 30 31 31 31 32 34 36 39 38 34 36 38 43 48 53 54 54 56 58 60 63 66 68 69 72 75 79 83 87 90 92 94 95 95 95 92 90
31 35 29 28 29 28 29 30 30 31 33 34 32 32 33 32 34 40 44 48 51 52 54 56 59 62 64 66 68 71 75 78 83 87 90 92 94 95 94 92 90 88 88 89
37 37 35 32 31 32 30 29 29 31 30 29 27 29 34 38 42 44 46 48 50 54 57 60 62 64 66 70 74 78 82 85 88 90 92 93 92 89 87 87 88 89 90 89
35 36 36 37 34 29 28 28 29 32 31 33 35 36 39 41 44 46 49 52 54 56 59 62 65 68 72 76 80 84 86 88 90 89 87 85 85 87 88 88 87 84 83 80
45 43 39 30 27 27 31 27 26 31 34 35 38 40 42 44 47 49 51 54 57 60 63 66 70 74 78 81 83 85 85 84 81 80 82 84 85 84 81 79 78 74 67 60
27 26 23 25 26 25 26 29 31 33 36 38 40 43 44 46 49 52 55 58 60 64 67 71 75 79 80 80 80 78 76 76 78 80 81 79 77 75 74 70 63 55 48 41
21 23 26 27 27 28 30 31 33 36 39 40 42 45 47 50 53 55 58 61 64 69 73 75 76 76 77 75 73 72 74 76 77 76 72 71 70 65 59 52 44 38 33 28

GFSNGP_500_spd_087.txt.gz
Wind_Speed
55 51 48 49 48 50 50 49 48 43 39 31 28 29 27 31 25 32 30 26 27 22 15 17 15 15 18 19 19 20 20 20 22 24 26 27 29 31 33 33 34 33 33 31
54 53 50 48 54 53 51 48 46 50 44 33 27 33 34 30 31 33 33 32 31 32 22 19 20 20 24 24 24 23 23 22 24 27 28 29 30 32 34 35 33 33 37 36
55 50 50 51 46 53 50 48 48 50 45 39 32 32 33 31 30 37 37 32 33 31 23 21 22 24 25 28 26 27 25 26 27 28 29 30 32 33 35 36 36 37 37 39
41 47 49 49 43 39 45 54 54 49 44 41 40 34 37 35 33 30 29 30 32 34 25 22 25 27 28 28 28 29 30 32 31 30 30 31 34 36 38 38 40 41 41 41
29 38 38 50 47 40 43 47 47 46 50 41 41 37 34 35 39 29 27 27 28 32 28 24 27 28 27 29 32 33 35 37 36 35 35 36 37 38 40 41 42 42 44 46
19 33 40 38 35 33 42 42 45 44 39 42 35 41 31 29 27 24 25 27 27 27 26 27 31 31 31 30 31 34 36 37 38 39 39 40 40 41 42 44 45 46 49 50
20 25 35 41 37 36 38 40 40 46 51 44 35 37 33 36 32 28 29 30 28 28 28 30 30 30 29 29 31 34 37 39 41 42 42 42 44 46 48 48 48 51 53 54
43 36 32 36 37 37 37 29 34 48 41 39 40 39 40 36 34 32 33 33 33 33 31 31 31 32 32 32 33 34 37 39 41 41 42 45 48 50 51 52 54 56 57 58
16 23 33 38 36 29 36 25 37 40 44 43 41 43 39 38 36 36 37 39 44 41 39 39 37 34 35 36 38 39 41 42 44 46 48 49 50 51 52 54 56 57 57 58
32 19 23 27 31 34 26 32 29 40 44 30 43 35 46 43 42 44 42 41 41 41 41 40 40 43 44 43 43 42 43 46 50 51 51 51 51 51 53 56 58 59 60 64
25 17 18 20 27 35 36 29 34 32 45 45 42 51 54 45 44 47 48 45 44 42 39 38 37 38 39 40 42 44 48 52 51 53 53 51 52 53 56 60 59 60 65 69
28 10 21 17 17 17 22 33 37 34 29 32 32 37 39 45 48 46 43 39 37 37 36 39 41 41 42 44 47 48 49 50 51 52 52 54 57 59 60 62 65 67 69 69
35 29 18 20 19 16 13 25 30 31 33 31 32 37 36 39 38 34 34 35 38 39 43 44 43 43 43 43 45 45 46 46 46 47 50 53 55 58 60 62 65 69 68 67
30 24 15 12 15 12 15 19 22 31 33 32 29 33 40 42 48 45 44 45 44 46 47 46 46 44 43 43 44 45 46 46 47 48 49 52 56 59 62 65 66 70 72 70
33 29 22 23 19 17 23 19 20 20 16 21 26 16 27 35 36 43 45 42 42 42 39 38 39 40 41 43 45 45 46 45 46 49 53 56 60 63 66 67 67 69 73 75
48 38 36 32 27 23 24 24 23 25 22 23 20 24 26 27 32 37 39 36 35 36 38 40 41 41 43 43 44 46 47 48 52 58 58 60 61 64 67 69 71 74 78 80
44 40 40 36 30 29 26 29 25 23 23 21 21 21 23 27 31 32 32 33 35 37 38 39 42 44 45 47 48 49 50 56 61 62 62 63 65 67 70 74 77 80 82 85
42 40 36 31 28 29 30 30 26 23 23 24 25 26 27 27 29 30 31 33 34 36 39 41 41 42 45 48 50 54 58 62 62 63 65 67 70 73 76 79 82 85 89 92
41 38 32 29 25 28 34 34 31 26 27 28 27 27 27 28 29 31 34 35 37 40 41 42 38 44 50 54 58 61 62 63 65 68 70 72 75 78 81 85 89 92 95 97
41 34 30 25 25 28 29 32 30 29 30 28 28 29 31 32 33 36 38 39 42 44 40 41 43 47 53 56 60 63 64 67 69 71 74 77 80 84 88 91 93 96 98 99
38 32 26 24 27 31 25 20 26 29 29 29 29 30 32 35 37 38 39 39 39 39 40 44 49 53 57 60 62 64 67 70 72 75 79 83 87 89 92 95 96 96 95 94
32 22 23 32 23 26 33 35 33 29 28 29 31 33 35 36 36 37 36 35 37 42 46 50 53 56 58 61 64 68 70 73 77 81 84 87 90 92 93 91 90 89 89 88
21 19 27 29 38 39 37 29 28 28 29 30 31 31 32 33 32 33 37 40 43 46 50 53 56 58 62 65 68 70 74 79 82 85 86 88 87 85 84 85 85 84 81 80
29 27 31 33 33 32 31 31 28 31 30 30 31 34 33 33 36 39 41 45 48 52 54 56 60 62 65 68 72 77 80 82 83 84 84 80 79 80 81 80 78 77 74 68
26 29 30 31 31 32 33 31 31 29 31 33 30 30 35 38 40 43 46 49 51 54 57 59 62 64 68 73 77 79 80 80 79 75 73 75 77 76 74 73 70 64 57 50
30 30 31 31 30 31 34 30 29 28 27 30 33 36 39 42 45 47 49 51 54 56 58 61 65 69 73 75 76 76 75 72 68 69 72 72 71 69 67 62 55 48 42 37
29 28 29 28 28 26 26 26 27 30 32 35 37 40 42 44 46 48 51 53 55 58 62 66 70 72 72 72 71 68 64 64 67 68 68 65 64 62 55 48 42 38 35 33

GFSNGP_500_spd_090.txt.gz
Wind_Speed
55 55 49 50 52 51 54 57 56 49 47 39 30 26 26 25 27 21 24 24 23 26 22 14 15 17 19 17 19 19 19 20 22 22 22 24 26 28 29 30 31 34 37 39
44 44 53 50 53 53 53 53 51 50 47 40 31 29 31 31 28 28 28 28 26 26 27 28 18 18 21 21 22 26 24 23 24 25 25 27 28 30 32 34 35 37 39 40
46 45 36 48 50 53 55 56 52 51 49 46 33 34 33 37 35 33 26 23 26 26 30 27 18 17 21 26 28 29 30 29 29 29 30 30 33 35 36 36 38 39 41 41
50 43 41 44 39 42 51 53 54 51 49 45 36 36 37 35 33 30 27 24 21 24 27 26 19 18 22 24 27 30 33 33 33 34 35 36 36 36 37 39 40 40 41 43
50 27 19 34 38 37 44 48 49 53 49 42 40 40 36 34 36 29 28 26 26 28 27 23 21 20 22 24 23 25 28 31 33 34 37 38 38 38 39 40 42 43 46 49
60 27 21 7 27 37 39 48 41 43 43 45 49 40 36 38 38 26 25 26 25 25 22 23 23 22 24 25 26 28 29 31 33 35 37 38 39 40 42 43 46 48 50 52
50 49 18 14 15 30 34 37 38 42 38 40 33 33 37 40 31 32 29 27 26 25 25 22 23 24 25 27 29 31 32 33 35 36 38 39 41 44 46 47 49 51 54 55
23 37 38 14 15 21 33 30 33 36 36 31 35 39 39 33 33 34 33 33 30 29 29 27 26 30 34 35 37 38 37 37 39 40 42 44 46 48 50 52 54 56 58 58
30 18 18 30 30 24 18 30 28 32 28 31 35 32 33 41 36 40 37 35 34 30 28 32 35 33 34 38 42 43 43 44 45 46 47 47 47 49 53 56 58 58 58 59
37 32 15 14 20 26 35 33 28 29 32 31 27 30 30 36 35 29 34 38 38 32 36 36 35 39 42 44 45 45 43 43 43 43 45 48 52 54 54 55 56 58 60 61
32 35 41 19 23 24 33 30 28 27 27 26 30 34 28 31 29 29 31 31 34 40 40 38 40 41 40 40 39 40 43 43 45 48 50 51 51 53 54 55 56 57 60 63
26 36 42 21 22 25 29 33 40 24 25 26 28 32 28 28 31 32 33 38 34 34 45 39 38 39 38 38 42 45 46 46 48 49 50 51 52 52 52 53 54 55 58 61
28 35 36 23 25 21 21 27 32 35 31 30 29 36 39 34 29 29 39 38 40 41 42 39 37 40 45 47 49 50 49 49 48 46 48 50 51 51 49 48 52 57 61 65
32 41 29 23 26 24 24 20 19 18 23 31 32 31 28 28 34 32 35 39 43 42 45 46 46 48 47 48 46 42 42 44 46 47 46 47 48 49 51 56 61 62 64 66
37 46 35 29 27 22 20 17 23 19 23 19 27 27 33 34 32 35 36 31 27 32 40 46 45 44 41 40 41 43 46 46 45 46 47 50 52 54 58 64 65 67 68 71
38 40 40 37 27 17 16 16 21 17 16 25 23 23 29 35 26 22 37 27 29 37 39 38 37 37 39 41 42 44 47 50 49 50 52 55 59 63 67 69 71 72 74 77
33 41 42 37 33 26 18 18 19 20 24 21 26 25 29 34 34 33 35 35 36 32 31 33 36 37 38 41 44 48 50 48 50 54 58 62 66 69 71 73 75 78 81 85
21 38 45 42 38 28 25 24 22 21 21 25 28 28 29 24 23 22 23 25 27 29 32 36 38 40 43 46 48 46 45 49 54 59 64 69 71 73 75 78 81 85 89 92
28 37 44 47 44 34 29 28 29 29 26 26 28 31 24 22 18 25 29 30 32 34 37 39 42 44 47 48 47 48 49 54 61 65 68 71 73 76 80 84 87 91 95 98
41 39 44 43 39 37 35 33 31 30 26 27 28 27 24 26 28 30 33 35 36 38 41 43 43 43 43 44 46 52 57 61 64 67 70 73 77 81 85 90 93 95 97 98
40 44 41 40 38 36 32 29 27 23 21 28 29 27 29 29 29 31 34 37 40 41 41 42 41 42 45 49 53 58 61 64 67 71 74 79 83 87 90 92 94 94 93 91
39 38 35 32 33 30 29 28 24 20 30 26 30 28 29 28 33 36 37 37 38 38 37 40 43 47 51 55 57 61 64 68 72 76 80 84 87 89 91 90 88 85 85 84
30 24 24 29 25 25 22 24 30 28 33 31 31 27 27 35 37 36 37 37 36 38 41 45 49 52 55 58 61 65 69 73 77 81 84 86 87 86 83 80 78 79 77 74
30 26 35 27 31 24 33 33 30 28 28 29 28 29 36 36 35 39 37 36 40 43 46 49 53 56 58 62 66 70 74 77 80 82 83 83 81 76 73 74 74 71 68 62
20 12 19 21 20 24 27 26 28 31 33 31 31 33 33 36 34 34 37 41 44 48 51 54 56 59 63 67 71 74 76 78 78 78 77 73 69 70 71 70 66 63 59 53
20 14 15 21 21 24 26 27 28 25 27 29 30 31 31 32 35 38 42 46 49 52 54 57 61 65 67 70 71 73 74 74 73 70 66 65 67 68 66 62 60 56 52 47
14 17 19 21 23 23 23 24 26 26 26 26 27 30 33 37 41 44 47 49 52 55 59 62 64 66 67 68 70 70 70 67 62 61 63 65 65 63 58 56 54 50 46 43

GFSNGP_500_spd_093.txt.gz
Wind_Speed
51 48 47 41 43 43 48 45 51 48 49 47 45 29 29 27 26 26 27 27 28 26 23 25 18 19 21 22 21 18 21 23 25 22 21 20 21 22 25 28 29 31 32 33
53 50 50 49 45 44 46 50 51 48 50 50 48 32 31 32 28 30 28 22 21 22 20 22 20 21 21 23 25 24 21 22 25 26 25 26 26 26 28 30 31 33 36 38
50 49 46 50 42 41 46 49 48 49 46 49 47 40 36 35 34 34 32 30 25 19 19 25 23 19 18 23 25 26 25 26 29 31 31 30 31 33 33 33 35 37 39 40
41 42 43 45 37 33 34 43 46 47 46 47 43 42 37 39 36 34 30 32 30 25 22 21 19 21 19 19 23 25 26 27 29 32 36 36 37 38 38 38 38 39 40 42
33 29 37 39 38 36 39 26 35 46 47 45 40 43 36 36 35 34 32 29 26 28 24 24 23 24 18 18 21 21 21 23 24 27 30 32 35 38 39 41 41 41 43 45
31 36 30 28 37 34 28 30 38 39 44 43 39 42 31 36 35 33 33 36 30 24 28 29 28 24 20 22 21 21 21 22 24 26 28 32 34 36 38 40 42 44 47 49
20 30 30 33 27 19 29 26 34 35 37 39 38 36 34 37 40 34 32 34 26 27 31 32 28 24 22 22 23 25 26 27 27 30 32 35 38 40 42 45 47 47 49 50
9 18 21 31 30 28 16 29 30 36 36 33 34 36 31 30 34 34 38 40 33 32 33 33 31 29 27 28 30 31 34 34 34 35 37 39 42 45 47 48 48 48 49 52
12 10 12 22 27 26 19 7 32 31 35 28 27 31 29 28 31 37 43 40 38 40 40 38 35 31 33 34 36 33 32 36 40 42 43 42 42 43 44 45 48 51 54 55
7 19 22 8 10 25 15 14 15 27 25 24 24 25 30 34 32 37 44 41 43 44 43 40 37 36 34 30 35 36 38 38 38 38 37 42 44 45 47 49 51 52 53 55
10 10 24 29 15 9 14 17 19 22 24 25 28 27 24 30 32 31 43 40 43 34 33 31 39 41 44 37 38 38 37 36 36 39 43 45 47 48 50 50 51 51 52 53
9 13 12 26 24 25 20 18 18 24 25 23 23 21 22 24 21 26 29 31 30 32 29 26 32 44 38 38 36 36 37 40 44 47 49 49 49 48 48 49 50 50 51 52
14 15 11 23 26 29 22 16 23 22 26 26 32 26 25 28 30 28 31 35 28 30 36 35 34 39 42 46 43 42 42 46 49 49 48 47 47 49 49 49 50 52 54 58
20 16 13 20 28 32 27 24 24 19 19 30 30 27 30 25 29 29 32 33 31 35 37 39 39 41 32 44 47 47 51 48 46 47 47 49 50 51 52 53 54 56 59 64
23 20 19 22 33 32 28 25 22 25 21 23 27 31 32 36 32 26 29 29 30 33 33 35 33 39 39 38 42 45 42 42 43 45 47 49 52 53 53 54 57 61 66 71
27 23 23 21 42 34 29 28 24 20 18 15 20 29 34 33 34 32 30 34 36 36 43 42 39 40 40 43 44 39 39 40 43 45 48 52 51 52 54 58 63 68 72 75
26 24 26 28 42 47 33 25 21 16 13 14 19 16 16 21 28 32 35 41 39 26 30 35 38 41 38 36 36 39 42 44 47 50 51 50 52 55 61 66 69 72 76 80
22 20 20 23 37 45 36 30 21 15 15 16 14 20 22 24 27 29 37 29 33 35 33 36 31 31 33 37 41 44 46 47 48 48 49 53 58 62 66 69 73 77 81 86
22 19 25 23 30 44 38 33 23 18 20 21 19 20 23 23 24 28 28 20 22 25 31 30 32 36 39 42 45 45 44 44 47 50 55 60 63 67 71 74 79 84 89 94
22 22 24 22 21 35 36 35 27 22 23 24 22 22 24 25 26 27 25 24 29 31 31 35 39 42 43 43 43 42 45 49 53 57 61 65 68 72 77 81 86 91 95 99
24 23 24 23 27 30 30 27 26 26 27 26 24 22 24 27 24 25 26 29 29 30 36 40 40 41 42 41 43 46 51 55 59 62 66 69 74 78 83 87 91 94 96 94
25 27 27 26 31 32 29 29 30 29 28 25 23 26 32 23 25 28 31 27 29 37 40 40 41 42 43 45 48 52 56 60 64 67 70 75 79 83 86 90 91 90 86 81
20 19 17 22 27 27 29 31 32 30 30 30 25 28 28 29 30 30 26 31 38 39 39 42 42 42 46 49 53 57 61 64 67 71 75 79 82 85 87 87 83 79 76 75
14 18 17 17 23 28 26 29 32 30 34 35 39 39 35 32 32 28 33 38 39 40 40 39 42 46 50 55 58 61 64 67 71 74 77 80 82 82 80 76 73 72 72 69
20 23 23 23 20 28 29 31 36 31 25 26 28 31 33 32 31 31 35 40 39 37 39 43 48 52 56 59 61 63 67 70 72 75 78 78 76 73 70 68 69 68 65 60
16 16 19 15 15 18 19 19 18 18 21 24 25 26 27 29 32 35 37 36 38 41 45 49 53 56 58 60 64 66 68 70 73 75 74 71 67 64 64 66 65 62 56 53
20 21 15 12 12 11 12 12 13 16 19 22 24 28 30 31 33 34 36 39 43 47 50 53 55 58 61 63 65 66 69 70 70 67 63 60 60 61 62 61 58 54 50 51

GFSNGP_500_spd_096.txt.gz
Wind_Speed
47 42 42 36 36 40 43 43 46 40 43 43 40 35 30 29 26 26 27 28 27 24 22 20 21 22 24 19 17 18 20 21 24 26 25 26 25 24 23 25 27 29 29 30
47 43 41 43 41 40 41 45 49 46 44 37 37 34 27 29 30 31 32 32 32 27 26 24 23 26 29 24 21 19 22 24 22 24 25 25 25 26 26 27 29 30 32 34
38 39 40 45 41 42 42 45 47 50 46 41 41 37 31 29 29 32 32 30 30 34 31 25 26 31 27 24 23 22 22 24 27 27 25 28 30 31 31 33 35 36 37 38
29 27 36 36 41 38 39 40 45 50 47 45 42 40 40 28 36 35 35 34 32 39 28 26 27 31 29 24 24 24 23 25 26 27 30 31 32 33 35 38 40 41 42 44
19 17 23 30 30 31 32 39 39 44 47 45 44 44 43 34 34 39 40 40 35 37 34 33 30 31 29 25 23 25 25 26 26 26 27 27 28 28 32 35 39 43 45 46
19 18 21 21 29 28 31 37 39 39 40 39 44 47 44 37 34 38 38 45 39 38 34 34 31 33 35 28 25 25 27 26 26 26 25 25 26 28 30 33 36 39 42 44
15 19 23 24 26 29 28 35 35 35 40 41 38 41 42 38 34 37 36 31 35 41 37 35 35 34 36 37 30 29 29 28 29 28 28 30 32 34 37 39 41 44 46 49
13 8 6 16 26 28 28 32 34 30 31 35 38 36 34 33 33 34 35 33 34 34 38 43 40 38 40 35 35 34 32 33 33 34 37 35 35 39 43 45 47 48 48 50
8 8 9 14 17 15 21 27 20 34 37 33 37 31 27 29 28 31 29 31 34 38 37 33 36 40 38 39 41 39 37 37 34 37 35 38 42 44 43 41 42 44 47 49
2 1 9 15 18 18 13 12 17 17 33 30 31 29 25 25 25 30 32 36 37 40 42 40 46 44 43 45 45 41 41 33 34 39 40 40 40 40 41 43 47 49 51 53
6 3 1 5 10 10 6 11 15 14 22 30 26 24 24 26 25 28 30 39 32 39 46 49 51 46 48 50 47 43 41 43 42 40 39 38 39 42 45 48 50 51 51 52
5 5 4 9 13 15 13 11 7 10 19 27 27 24 29 26 22 28 31 30 37 43 48 55 53 50 49 39 37 40 44 44 43 45 46 44 46 49 51 50 51 51 53 54
11 10 6 10 14 22 20 18 14 11 15 20 23 22 22 27 28 25 26 25 24 31 43 43 36 37 37 37 34 35 48 48 54 53 50 50 53 56 52 50 51 52 54 57
15 15 10 12 13 19 21 23 20 14 13 17 25 24 28 26 29 25 32 31 30 40 38 34 33 31 36 41 43 45 48 51 51 49 52 51 53 49 47 49 51 54 56 55
18 16 13 15 15 19 25 27 25 19 16 17 21 22 29 27 34 32 23 23 31 43 43 42 42 42 41 45 47 44 47 48 46 47 45 46 45 46 50 54 56 55 55 57
21 20 19 17 17 17 25 29 30 23 20 16 21 21 22 27 36 33 31 31 26 29 27 27 30 35 38 40 44 47 47 48 47 46 42 43 47 50 53 54 53 54 59 64
25 24 22 19 21 23 23 30 35 29 22 19 16 16 22 24 36 33 32 34 34 32 30 30 36 40 43 45 44 44 47 46 42 40 45 48 50 51 50 53 57 62 65 68
28 26 24 22 24 24 26 35 39 34 26 23 9 15 17 15 19 27 27 31 20 26 30 26 26 28 32 36 38 34 34 37 41 45 49 50 49 51 55 59 63 66 70 74
32 28 26 26 24 25 26 30 43 39 33 20 13 22 14 14 12 13 16 17 19 25 25 25 27 32 34 35 35 35 38 42 45 47 47 49 52 57 61 64 68 72 76 81
32 29 28 26 24 24 25 30 34 48 27 31 22 21 20 20 19 20 19 20 22 26 27 31 35 36 34 36 39 41 44 45 46 48 51 54 58 62 66 69 73 77 81 85
29 28 27 27 25 21 21 32 30 40 37 28 28 25 18 22 22 20 21 23 25 26 27 31 35 33 35 41 44 45 46 48 49 51 55 59 63 67 70 73 77 80 86 90
25 26 27 26 28 26 26 22 26 31 30 30 26 27 23 23 17 20 30 28 28 30 35 38 32 35 41 43 45 47 48 48 52 56 60 64 67 70 73 76 81 85 88 88
23 25 25 25 26 29 29 27 27 24 27 30 31 29 23 22 30 32 30 30 33 34 35 35 38 42 42 45 46 46 49 53 57 61 64 67 70 73 77 81 83 84 82 78
24 24 21 23 20 22 25 26 25 24 27 30 33 29 26 29 33 34 37 41 40 40 39 41 42 44 44 44 46 50 54 58 61 64 67 69 72 76 78 78 77 75 72 69
22 24 22 16 17 14 20 25 20 23 22 25 28 29 34 35 38 39 36 39 41 40 40 42 44 44 44 47 51 55 58 61 64 66 68 71 73 73 72 71 69 66 64 64
22 20 21 21 18 22 27 36 27 26 28 30 32 33 35 35 33 34 40 42 39 40 42 42 43 46 49 52 55 58 61 63 65 67 70 70 69 67 65 62 60 60 61 61
21 19 19 27 24 15 15 23 27 29 29 29 29 30 30 31 33 36 37 37 38 38 40 43 47 51 53 56 58 60 61 64 66 67 65 64 62 60 57 56 57 58 59 57

GFSNGP_500_spd_102.txt.gz
Wind_Speed
50 36 35 36 40 39 41 38 18 20 34 30 25 25 25 33 34 29 27 14 18 22 25 25 25 25 23 23 22 20 19 17 16 13 14 14 17 21 23 22 22 22 21 21
49 47 46 43 32 44 45 44 42 39 35 30 23 37 26 20 21 23 24 31 15 25 26 26 24 24 24 24 24 23 21 20 19 18 16 18 17 17 19 21 23 22 23 23
37 35 42 53 42 35 43 35 35 39 36 36 36 35 34 29 35 34 28 24 34 18 28 30 31 30 27 27 27 26 23 19 22 21 21 20 21 22 21 22 24 25 26 27
23 25 32 36 45 44 40 37 36 39 37 34 33 36 36 29 31 36 32 32 31 33 33 22 27 32 32 30 30 28 25 24 23 24 24 24 21 20 24 25 26 28 28 30
24 21 17 21 25 30 39 38 45 41 39 36 37 33 27 24 34 34 34 41 39 37 38 40 35 35 34 35 36 35 30 28 26 29 23 25 24 25 25 25 25 26 28 29
18 18 20 22 24 33 32 32 32 32 36 37 34 28 25 26 31 37 37 40 35 40 39 41 43 39 39 38 38 36 35 32 30 26 28 27 26 27 28 29 30 32 32 32
20 17 21 31 27 32 32 31 27 28 30 32 33 30 25 28 25 32 36 41 39 40 40 40 39 40 38 37 40 46 39 37 36 31 36 35 29 29 30 31 34 34 34 37
17 19 16 24 23 24 27 29 27 33 36 37 34 34 33 33 31 30 26 32 35 39 41 41 43 43 43 41 43 39 36 39 42 41 41 41 37 34 35 35 37 37 38 38
9 11 6 15 22 22 28 35 37 34 34 37 37 33 34 36 33 34 32 31 33 38 41 41 40 42 46 46 44 45 45 45 42 43 47 45 41 41 41 44 45 45 43 47
8 11 11 17 21 20 25 28 35 33 33 32 31 28 31 33 33 33 34 35 35 36 40 41 41 42 43 44 46 50 50 48 46 49 50 49 47 48 45 50 51 51 51 55
19 13 14 18 21 19 20 14 20 21 21 22 24 19 14 24 29 27 30 31 34 37 38 41 42 43 46 46 46 46 51 51 51 51 52 48 54 51 50 51 52 54 61 62
14 13 19 16 11 14 21 15 19 25 23 12 25 25 29 21 29 32 28 29 31 35 41 45 44 43 44 45 46 46 49 53 55 56 55 59 60 59 51 55 58 59 56 57
20 22 13 5 7 6 15 9 18 27 26 12 8 9 19 29 28 26 30 36 33 35 38 37 37 36 38 43 47 49 51 53 56 57 53 58 59 59 57 55 54 54 56 59
17 18 17 13 11 9 6 3 13 18 16 12 8 5 11 21 23 25 34 18 21 29 29 35 33 28 36 28 46 49 53 49 53 52 51 49 48 47 48 53 55 58 64 67
19 20 18 16 12 10 8 6 6 11 17 15 11 7 2 14 20 22 23 19 13 24 15 26 34 29 39 43 44 39 40 38 40 42 45 48 50 53 55 58 62 64 62 57
22 20 18 18 15 14 12 8 6 8 10 21 18 12 4 9 14 12 17 17 14 15 20 26 19 24 37 39 42 46 47 47 50 51 49 48 48 52 55 50 46 45 45 46
24 23 25 23 23 18 19 16 14 9 10 11 22 22 13 15 12 13 15 13 15 16 16 19 24 25 25 22 23 27 30 33 36 37 40 44 41 35 37 38 40 43 46 50
26 28 31 30 28 27 24 22 21 19 14 11 13 22 26 20 17 17 17 16 15 20 15 19 24 28 25 24 26 30 28 26 28 31 31 32 33 35 37 40 43 46 49 51
34 34 33 32 32 32 27 26 27 24 22 19 18 17 25 26 18 17 17 17 22 19 23 23 19 19 18 26 29 31 33 33 32 34 36 37 37 38 41 43 47 51 54 56
35 41 42 40 38 36 32 31 30 28 28 27 25 21 22 32 37 20 16 18 18 20 18 21 22 25 24 26 31 35 34 34 32 34 36 38 40 44 47 50 53 54 56 59
35 38 47 48 45 41 38 35 33 32 32 31 28 27 24 29 33 35 27 23 19 22 25 22 20 18 21 25 24 26 28 31 35 38 40 42 46 48 51 53 54 56 60 65
29 34 35 45 46 44 41 38 36 35 35 33 31 29 24 27 20 21 27 35 32 28 22 27 29 32 35 36 32 30 32 36 39 42 45 47 49 51 53 55 58 62 65 68
22 24 26 29 35 40 39 37 36 35 34 33 32 28 27 27 35 29 22 31 33 32 30 31 33 35 34 36 41 40 41 44 46 48 48 51 52 53 56 59 62 66 69 71
26 24 26 28 29 30 34 33 33 34 34 35 34 34 31 28 28 29 28 34 34 32 34 32 30 33 33 34 39 43 46 48 50 50 51 52 54 56 60 64 66 68 70 72
22 22 22 23 29 29 28 29 32 33 34 36 37 37 37 36 35 37 37 35 35 34 35 38 38 41 41 45 45 45 49 51 50 50 52 54 57 61 64 66 68 69 71 71
17 16 16 17 25 27 28 28 29 31 32 30 31 36 36 31 32 34 34 36 35 36 38 40 43 42 41 42 44 48 49 50 51 52 54 57 61 64 66 67 69 69 70 68
18 13 11 15 15 18 23 26 28 27 26 26 21 24 29 33 32 32 34 37 38 39 41 42 40 40 41 43 44 47 49 50 51 54 57 60 63 65 66 68 67 66 64 62

GFSNGP_500_spd_105.txt.gz
Wind_Speed
38 37 34 45 52 57 31 28 35 23 31 32 16 30 21 32 51 23 27 31 32 28 32 27 27 27 27 23 20 19 19 17 17 14 11 11 14 14 18 20 21 20 19 19
39 32 32 44 40 52 41 37 40 41 15 38 28 31 19 20 23 29 36 30 31 27 30 33 27 27 28 24 23 21 19 19 18 18 15 13 13 17 16 19 21 22 23 23
26 26 33 47 42 40 49 47 45 39 34 30 28 28 33 32 21 32 38 37 32 33 30 31 31 28 28 25 25 22 22 20 17 17 18 17 17 16 18 19 21 21 21 22
14 11 23 20 35 40 38 36 46 44 39 38 35 35 38 31 29 26 30 27 28 37 28 19 18 33 31 27 27 27 25 22 16 18 19 17 18 18 19 21 22 24 25 25
11 17 12 19 20 35 44 47 35 40 43 38 36 31 34 29 24 29 34 36 33 34 33 34 32 29 23 33 29 27 26 25 22 20 18 20 23 22 21 20 20 23 24 25
15 19 17 22 24 29 34 37 32 31 35 35 35 32 36 31 28 32 33 34 37 39 37 35 39 40 31 24 21 27 28 29 31 30 27 25 26 26 25 25 24 25 26 27
20 21 24 20 28 27 29 39 42 42 39 34 31 29 28 29 31 33 35 38 36 38 41 42 39 38 39 35 31 35 35 36 35 34 34 33 31 30 33 33 32 31 30 31
25 25 13 18 26 24 22 29 34 36 37 34 29 27 24 30 32 34 37 39 41 43 44 46 43 39 37 36 39 40 40 38 36 40 41 37 37 33 37 43 42 38 38 40
10 8 8 13 21 28 27 26 29 33 36 35 33 32 30 29 30 32 31 32 38 42 43 45 45 43 43 41 42 42 41 42 41 42 39 37 40 41 47 43 43 44 42 44
7 7 8 3 14 19 27 28 28 31 36 36 34 33 36 39 35 35 34 35 35 37 41 44 45 46 47 47 45 44 44 45 45 45 43 44 44 46 44 50 44 48 52 50
2 11 4 11 12 16 18 24 23 27 32 37 36 36 31 31 34 34 37 37 39 42 41 40 41 44 47 47 48 46 46 46 47 47 49 51 53 50 52 46 50 55 56 53
11 13 13 11 17 17 19 18 16 12 15 21 16 22 25 29 27 24 28 38 39 39 40 43 44 44 47 49 48 47 48 48 48 50 50 54 52 53 54 52 56 57 59 61
16 16 14 15 8 10 5 7 16 12 20 20 21 15 23 29 26 27 21 33 35 35 34 34 38 43 45 45 48 49 48 48 48 50 49 49 49 52 58 60 62 60 62 61
21 23 21 17 11 8 2 3 9 12 11 22 20 12 15 21 25 22 27 24 32 30 32 35 34 34 35 35 37 38 38 35 42 45 49 53 54 54 60 57 54 56 57 59
21 23 19 15 14 12 8 6 9 7 8 19 18 14 11 15 16 15 15 25 28 28 22 28 39 30 24 28 27 39 39 42 46 39 38 43 46 49 51 52 54 55 54 54
15 19 17 16 15 17 12 8 9 8 4 3 14 14 12 15 16 11 17 20 20 21 21 20 14 13 14 17 33 38 36 36 41 40 43 44 46 47 48 48 49 50 47 42
17 18 18 18 20 19 16 12 13 10 8 8 6 9 18 13 10 5 7 10 12 15 12 18 17 18 19 20 24 35 36 36 38 42 41 38 34 29 29 30 32 35 33 36
22 21 21 23 24 23 24 19 21 17 15 14 12 10 8 19 22 17 10 13 13 15 13 16 22 25 26 29 27 25 25 24 25 27 27 27 27 30 33 33 32 34 36 40
24 28 29 28 27 27 29 26 27 26 22 20 18 17 14 15 17 24 24 16 16 16 19 19 21 19 20 21 23 26 28 29 30 33 35 34 38 37 32 33 35 39 43 47
26 27 30 33 35 33 32 31 31 30 29 27 24 23 21 19 19 21 24 29 16 15 16 13 19 22 24 25 25 29 32 31 33 32 32 30 29 31 34 37 40 44 47 52
28 30 33 36 37 40 42 39 37 34 33 32 30 28 25 24 22 22 24 27 27 30 23 23 22 19 20 23 26 31 32 28 28 29 31 32 34 39 42 45 47 50 52 54
24 25 29 34 40 42 43 45 43 40 37 35 34 32 31 30 27 25 23 24 20 24 26 31 25 24 26 27 28 29 32 36 36 36 38 40 41 44 47 48 50 52 55 56
24 25 24 22 27 34 36 36 40 43 39 37 35 34 33 33 31 27 25 28 25 24 23 28 31 32 36 32 31 30 29 33 33 36 38 43 45 47 49 50 53 55 57 60
21 23 22 23 22 24 26 27 28 30 34 35 36 35 33 32 33 31 29 29 35 31 30 32 32 31 33 33 35 35 34 35 38 42 46 47 47 47 50 53 55 56 57 60
24 23 22 22 20 20 22 28 29 28 28 30 32 32 31 33 34 33 35 35 32 34 34 33 33 35 37 36 36 37 38 40 40 41 43 45 46 48 51 52 54 57 59 62
25 23 22 17 16 17 18 23 27 28 25 26 29 30 31 31 33 35 36 35 32 32 35 37 40 41 39 38 38 38 39 39 40 42 43 45 47 50 53 55 57 60 62 66
26 24 21 18 15 14 12 13 19 23 25 26 26 26 26 28 29 23 25 29 29 32 33 33 35 36 35 34 35 35 36 38 41 43 45 47 49 52 55 57 59 63 66 66

GFSNGP_500_spd_108.txt.gz
Wind_Speed
43 43 40 38 38 38 50 46 46 26 34 32 31 33 26 25 23 49 48 45 37 29 42 40 38 35 33 30 27 24 21 19 16 13 10 11 12 15 18 20 19 19 19 19
44 42 39 40 38 40 49 53 48 41 24 34 24 34 20 16 20 38 29 42 48 39 23 42 37 35 33 30 27 26 23 21 19 16 13 12 13 12 16 17 20 23 25 24
37 34 36 38 30 37 44 44 44 51 47 26 22 25 29 12 15 15 41 27 25 32 27 23 25 38 35 33 30 28 26 23 21 18 15 15 15 14 13 13 18 20 22 24
31 25 31 16 26 37 40 34 40 50 44 34 27 30 27 26 20 20 16 39 24 26 31 31 29 31 39 36 34 31 28 26 24 19 17 15 15 16 15 14 15 16 18 21
30 22 18 14 22 21 31 37 39 43 44 39 35 33 33 29 25 27 22 21 28 29 34 35 32 35 39 39 38 35 33 30 26 23 17 17 17 18 18 18 17 16 15 16
26 22 20 14 17 11 18 35 36 35 38 37 35 33 31 27 28 23 26 22 27 28 37 36 41 31 30 29 31 33 32 29 25 23 23 25 20 22 23 22 22 21 21 23
18 24 17 12 10 23 11 16 29 39 31 28 26 30 32 27 24 27 27 30 31 33 38 41 37 36 33 32 33 22 32 31 29 31 29 29 29 29 30 30 30 29 29 33
25 21 8 10 18 16 21 24 25 30 34 31 29 28 29 32 29 33 32 34 38 38 38 42 42 39 35 33 34 32 31 33 27 31 31 34 32 31 32 34 39 35 33 33
18 15 10 13 17 22 18 24 28 28 32 35 34 33 31 27 28 31 33 37 34 36 37 39 41 38 37 39 39 34 34 32 30 34 36 36 38 33 37 37 42 44 38 40
13 16 13 10 15 18 13 22 24 24 26 29 32 35 34 33 31 31 36 36 38 42 41 41 44 44 44 45 44 42 40 38 37 40 40 40 38 41 39 40 43 42 45 45
8 15 10 12 8 13 15 15 23 26 25 29 34 37 37 37 34 36 35 36 39 38 37 41 46 45 46 45 45 44 43 44 44 44 44 44 45 45 47 47 46 39 55 54
6 5 9 9 6 11 13 16 18 21 21 22 24 27 33 36 37 41 39 41 42 43 43 41 41 43 44 46 48 48 49 49 48 46 44 45 46 47 49 47 49 50 47 53
9 8 9 13 11 12 9 13 11 12 11 11 11 17 20 20 26 34 34 38 42 44 44 45 46 46 46 46 46 47 47 50 50 48 48 48 48 48 46 40 51 49 52 53
15 13 17 14 13 12 8 8 3 8 12 14 16 18 19 21 20 25 30 32 30 34 35 39 39 38 40 42 45 49 49 48 45 43 45 46 43 41 47 57 54 55 56 59
21 20 20 21 19 15 7 10 6 4 4 11 17 22 23 21 19 21 23 30 29 27 24 30 34 32 38 40 38 37 36 36 35 38 38 39 41 53 54 63 62 53 48 48
18 18 20 20 18 16 15 10 10 8 5 2 7 17 26 21 18 19 25 22 19 25 29 27 32 25 24 33 34 31 32 31 33 40 42 44 43 38 34 36 36 40 42 41
17 16 16 19 18 16 14 11 14 15 10 6 5 7 8 13 20 17 9 12 17 27 27 26 28 27 21 25 23 24 26 28 28 30 29 31 33 33 27 27 25 28 32 34
20 20 20 19 19 19 18 16 17 18 15 13 11 9 8 8 13 15 16 8 11 10 20 19 17 16 20 21 24 22 23 26 26 25 26 28 27 24 25 29 29 34 39 38
18 20 23 25 25 25 24 23 21 23 22 20 18 17 15 13 12 13 13 15 19 18 16 16 14 16 18 21 22 24 22 23 25 27 28 28 30 33 35 35 32 32 34 35
22 23 24 24 26 28 30 30 27 26 27 27 25 23 22 21 19 18 16 15 15 16 18 20 18 17 19 22 23 21 24 27 31 32 32 33 33 31 30 30 32 36 38 40
23 24 26 28 30 31 33 33 34 33 32 31 30 29 27 26 24 24 23 21 20 21 20 24 24 22 21 23 21 22 25 27 30 33 34 35 36 38 39 39 41 43 45 46
26 26 26 27 26 30 34 38 38 38 38 38 36 34 33 31 29 28 26 26 24 23 23 22 25 28 29 27 30 30 30 29 30 32 33 35 37 39 39 41 43 46 48 50
19 22 21 21 21 22 23 24 31 37 38 38 37 37 36 33 32 30 29 28 27 26 25 27 27 27 26 28 31 32 33 36 38 35 34 33 35 37 42 45 48 51 52 52
19 18 21 21 20 21 23 23 23 24 27 28 29 31 32 32 33 32 30 29 28 28 28 30 35 35 32 32 33 36 36 37 39 38 38 39 40 42 43 44 46 48 51 53
24 24 24 23 21 20 22 24 23 24 24 24 26 28 29 29 30 30 31 32 32 31 30 33 35 35 34 33 34 35 39 39 40 41 41 41 42 42 43 45 48 49 51 53
30 29 27 25 23 21 21 23 24 23 23 24 26 26 27 27 29 29 30 30 31 33 34 36 37 38 38 37 39 39 40 40 40 40 40 41 42 43 45 47 48 51 53 54
38 34 30 27 24 20 20 18 19 18 21 25 25 27 25 25 27 28 29 28 30 29 31 34 36 35 34 34 36 35 35 36 38 38 38 41 43 45 47 49 51 52 55 58

GFSNGP_500_spd_114.txt.gz
Wind_Speed
39 41 45 47 36 37 44 46 51 46 47 45 46 44 36 36 38 30 18 22 22 45 50 49 49 45 46 48 38 36 33 30 28 25 22 18 15 12 12 16 17 14 12 9
36 35 35 42 44 41 46 51 53 51 52 36 44 45 34 28 19 24 21 13 14 40 53 51 49 48 53 50 42 39 36 34 32 28 25 21 19 15 11 12 18 20 18 16
46 39 38 44 40 43 47 43 46 46 38 42 39 41 37 24 19 26 24 17 17 15 54 55 48 47 49 44 45 41 40 38 35 31 28 25 22 18 15 14 14 20 20 20
41 49 49 44 43 45 49 41 41 37 28 34 37 35 37 37 29 24 17 18 15 15 50 57 55 51 42 44 41 41 43 41 39 35 33 29 24 22 20 18 16 15 17 20
30 34 41 41 43 38 36 24 29 28 27 31 33 32 33 32 37 28 17 15 14 15 47 57 60 61 57 54 45 42 47 45 44 39 34 30 28 27 24 22 19 17 18 18
14 19 20 22 28 24 20 12 17 19 22 28 28 26 26 30 33 25 21 14 11 15 30 47 51 54 52 47 34 50 46 43 42 41 38 35 32 32 28 26 24 22 19 19
15 16 15 12 17 19 22 15 12 12 14 18 18 22 23 26 30 32 15 10 11 12 5 25 45 44 11 37 44 32 35 35 38 35 35 37 39 37 34 30 28 25 24 22
6 4 5 12 12 14 11 9 9 6 11 13 19 20 20 25 25 17 14 12 11 12 8 17 32 48 47 25 25 26 35 36 36 38 36 42 40 39 40 37 34 31 28 29
3 7 13 12 14 15 5 11 9 15 13 6 10 18 21 22 20 16 15 15 13 11 14 15 22 34 53 30 31 30 28 25 28 35 29 38 45 43 42 41 34 33 31 30
8 4 8 13 15 18 3 4 6 5 8 10 7 11 17 20 22 20 18 16 16 16 16 17 22 25 34 32 29 29 30 27 22 33 28 26 43 51 48 39 35 33 34 40
4 2 5 6 15 11 8 10 8 7 10 9 9 13 14 22 25 24 23 21 18 20 18 18 22 24 26 27 29 29 29 27 26 30 35 34 27 37 41 36 40 42 43 45
7 6 1 4 5 12 11 5 9 12 16 15 11 14 17 20 24 26 27 26 20 21 20 23 23 25 27 29 33 33 32 32 34 35 36 38 40 43 41 39 41 44 43 38
11 13 11 10 4 5 3 7 13 12 11 13 8 11 13 16 21 23 28 26 27 24 26 26 27 27 28 30 30 35 38 34 34 35 38 38 37 37 36 43 42 43 39 40
8 6 3 7 8 9 6 5 12 12 11 12 6 9 11 11 13 17 21 24 22 29 29 30 32 31 30 30 30 31 33 34 34 33 33 34 35 35 34 35 36 38 36 37
9 9 9 10 11 14 17 17 13 15 15 11 8 8 11 14 15 15 14 13 15 20 24 24 25 29 33 33 32 32 30 31 34 35 35 36 36 35 35 36 38 39 38 46
13 12 12 12 13 13 14 16 17 17 14 11 9 7 8 11 12 12 13 12 11 12 15 20 23 24 23 21 22 26 28 28 31 32 32 34 35 34 35 35 35 36 35 38
16 15 14 14 14 14 15 17 16 16 14 12 11 11 7 5 5 7 14 16 17 15 13 12 15 17 19 24 23 21 24 27 26 28 30 33 34 33 30 33 35 35 36 39
17 19 19 18 17 16 16 15 15 16 16 17 13 13 11 8 6 5 3 7 13 15 11 13 13 17 18 21 22 24 26 24 25 25 27 31 29 31 33 34 34 30 30 31
14 14 16 17 18 18 18 17 17 16 18 21 20 17 16 14 12 11 9 7 4 5 11 10 9 7 12 15 17 20 20 22 24 21 20 22 24 25 26 27 29 30 30 31
17 19 20 20 22 22 22 22 22 21 20 19 21 23 22 21 20 19 17 16 13 9 7 7 11 11 11 12 13 14 16 16 18 19 20 22 25 26 26 26 28 31 33 35
22 23 24 25 26 26 27 26 26 26 26 26 26 25 26 27 26 26 25 24 21 19 17 14 12 12 13 18 19 18 17 18 17 19 22 24 26 29 31 34 35 37 38 38
21 21 21 22 23 25 24 23 23 24 24 24 26 28 29 30 30 31 30 30 28 26 24 22 21 19 19 18 16 18 23 25 25 25 25 28 30 32 33 35 36 38 41 42
25 24 23 23 23 21 20 20 20 21 21 21 21 22 23 25 27 32 35 35 34 32 31 30 28 26 25 24 23 22 22 23 25 27 30 31 35 37 39 40 41 42 44 45
27 27 27 28 27 24 23 22 21 21 22 23 25 26 25 26 26 26 31 35 37 36 35 34 33 31 29 28 28 28 29 30 31 32 32 33 35 39 42 44 47 48 48 47
31 33 34 34 33 31 29 30 27 25 24 25 26 27 28 28 27 28 28 33 36 37 37 38 37 35 34 34 33 34 35 36 36 38 39 40 42 43 45 46 47 48 49 50
42 44 45 46 45 43 40 37 35 32 29 27 28 27 25 26 27 27 27 27 29 33 35 36 38 37 37 37 37 38 38 39 41 42 43 45 46 47 47 47 47 47 48 48
44 44 45 46 46 45 43 40 39 37 32 30 29 27 24 23 21 23 24 23 24 25 27 31 34 36 36 36 37 37 38 40 41 42 42 43 44 44 44 44 45 45 45 46

GFSNGP_500_spd_117.txt.gz
Wind_Speed
35 38 33 39 42 41 43 41 42 42 51 55 50 48 49 50 54 56 40 40 40 31 30 32 34 42 51 49 47 46 42 40 38 36 29 24 21 18 13 13 15 16 13 8
37 35 36 34 33 32 36 36 42 44 52 43 48 51 46 48 53 53 43 42 29 35 24 28 31 49 51 51 51 47 44 43 40 38 31 26 23 21 16 15 14 16 15 12
32 39 36 46 30 30 32 33 33 45 49 48 51 53 57 55 44 39 33 33 30 40 23 28 30 47 53 51 53 49 46 44 41 39 33 29 26 22 20 18 16 13 14 14
13 24 43 45 37 38 37 35 38 45 47 52 52 48 42 36 38 38 33 35 23 34 24 29 34 47 49 48 49 49 45 45 42 40 36 32 27 25 24 22 18 16 14 15
12 13 14 16 27 44 51 50 52 50 34 31 30 33 30 28 26 37 38 32 24 25 23 27 43 49 55 51 53 46 45 45 46 43 39 35 30 30 28 25 23 19 19 17
14 14 9 9 12 18 21 17 18 28 26 22 21 26 31 28 26 30 33 28 23 19 20 23 44 56 49 57 51 51 47 43 48 38 43 41 36 33 32 29 26 25 23 21
10 12 8 10 18 13 13 11 20 16 10 9 9 11 18 24 23 23 26 25 14 18 18 21 35 54 57 38 47 47 45 46 41 39 41 41 40 36 36 34 30 28 27 27
8 6 7 9 1 8 9 12 2 5 2 5 7 13 16 22 22 22 23 28 22 15 14 17 34 46 49 57 47 42 51 47 42 43 43 40 36 30 36 34 35 33 33 31
7 3 5 5 6 8 8 7 1 1 4 1 9 14 15 15 16 18 18 18 15 10 13 12 24 38 41 42 50 34 46 44 39 33 36 32 30 27 31 34 37 38 39 38
11 10 5 2 1 8 8 2 1 1 1 3 6 7 10 14 15 18 18 20 8 9 9 7 14 22 42 42 42 36 36 34 38 40 35 31 37 30 30 35 39 46 42 43
11 6 6 6 2 4 10 9 5 4 5 7 10 11 10 12 15 16 17 17 12 10 11 11 11 12 26 42 38 38 36 15 30 26 26 34 25 34 31 35 40 31 44 43
20 17 9 5 10 7 3 4 2 7 10 10 12 16 16 16 15 16 19 18 16 15 15 13 14 12 15 17 21 38 41 43 32 20 33 25 25 28 24 25 42 48 47 38
10 10 7 14 11 5 4 7 11 11 10 10 17 13 14 16 17 16 20 23 22 22 20 14 16 14 14 16 18 20 22 27 26 25 19 29 29 29 29 24 26 27 40 54
5 2 3 1 4 7 8 9 11 7 12 16 16 12 10 14 17 18 19 22 21 22 21 23 17 15 18 19 19 21 24 25 28 26 28 34 33 33 34 30 39 36 40 45
8 10 9 9 12 14 16 18 19 20 16 18 13 11 9 12 13 13 17 20 20 21 21 22 25 19 19 21 23 22 24 28 30 30 31 31 32 32 32 33 34 36 38 38
11 10 10 11 12 14 18 20 19 18 16 15 14 10 10 10 11 13 14 17 19 19 19 24 22 22 19 19 22 25 27 28 30 30 30 31 33 33 34 34 34 35 37 37
13 13 13 13 13 12 14 14 15 14 14 15 12 9 10 8 7 7 9 12 15 14 13 12 17 19 21 22 22 21 21 23 26 29 31 32 32 31 32 33 35 37 35 34
11 12 13 14 14 14 15 14 14 12 12 14 14 12 11 10 9 6 4 4 11 11 10 6 8 13 18 20 20 19 20 22 23 26 29 29 31 31 30 32 33 34 38 41
13 14 14 15 16 17 17 17 16 15 13 13 15 15 14 12 12 11 8 7 5 4 8 11 10 8 10 15 20 23 20 23 24 26 26 27 26 32 36 35 35 35 35 35
14 16 17 18 19 20 20 20 20 20 19 18 17 17 17 17 16 16 16 14 11 9 8 7 8 11 10 10 11 13 17 20 22 24 26 26 27 28 29 29 31 32 32 32
19 20 22 23 22 22 23 23 22 22 22 22 21 21 21 21 21 21 21 21 20 18 16 15 14 13 12 15 17 16 16 17 19 20 21 22 24 26 28 29 30 32 33 33
24 23 22 23 23 22 21 22 22 20 20 21 20 20 20 21 22 23 24 25 25 25 24 23 22 22 21 20 18 18 19 24 25 23 24 24 25 27 30 32 35 37 38 38
24 24 25 27 26 26 24 24 22 21 20 19 18 18 20 22 22 21 22 24 28 30 30 30 29 28 27 27 26 25 24 23 24 26 28 30 32 32 33 34 36 39 41 43
28 30 30 30 29 29 30 29 27 26 25 24 22 21 20 21 23 24 24 23 24 28 32 34 35 35 34 34 33 33 31 31 30 30 31 32 32 33 35 36 37 40 43 45
35 36 36 36 36 37 38 38 35 33 30 28 26 24 23 22 23 23 25 26 26 26 26 29 34 37 38 37 36 36 36 36 36 36 37 38 39 39 40 41 43 44 45 46
40 40 40 38 37 39 42 43 42 41 38 33 32 30 28 27 25 24 24 26 27 27 26 26 28 31 37 37 37 37 37 37 37 37 38 38 39 40 41 43 44 44 45 46
31 26 26 31 38 33 34 32 34 36 37 36 34 33 32 31 28 26 24 25 23 24 24 24 26 26 28 30 32 34 35 36 37 37 38 38 39 39 40 40 41 41 42 43

GFSNGP_500_spd_120.txt.gz
Wind_Speed
27 34 34 28 38 37 37 38 39 38 42 41 38 45 48 47 49 51 50 51 50 43 43 44 47 47 44 47 41 44 51 51 46 40 39 35 33 32 27 22 21 23 25 21
23 28 35 45 36 30 37 38 37 37 41 36 43 44 49 50 49 47 50 51 49 45 42 44 43 45 37 37 39 46 52 51 46 42 40 36 35 33 27 23 22 20 21 21
17 21 31 40 43 34 38 42 39 38 36 41 41 42 45 47 48 48 48 47 48 42 41 42 42 37 33 35 38 50 54 52 47 44 41 37 37 34 28 25 24 19 15 18
10 11 18 20 36 39 42 35 33 35 36 43 45 45 47 48 46 46 46 47 46 41 40 40 41 42 34 33 39 50 54 54 49 46 43 38 38 35 31 27 25 21 16 14
2 4 4 5 14 27 40 42 42 42 40 41 43 46 48 52 44 35 38 37 40 42 37 37 40 34 35 34 39 54 58 56 50 46 45 39 39 37 34 30 27 22 19 16
12 12 10 1 6 10 12 19 34 43 48 51 47 32 33 32 32 31 30 32 34 35 32 34 38 31 34 39 50 45 55 55 51 44 44 39 41 40 36 33 29 25 21 19
7 8 8 7 8 12 10 9 13 14 13 15 16 19 20 20 21 24 28 30 27 33 27 27 30 34 42 45 49 53 51 50 41 43 44 41 39 42 41 37 32 30 25 24
6 5 7 8 3 4 4 4 5 2 6 4 9 14 8 14 14 20 25 27 21 31 27 24 27 35 36 42 51 43 55 57 46 41 44 47 42 42 43 42 36 32 29 28
12 9 7 5 6 7 3 4 5 6 3 1 6 9 10 12 13 19 24 23 22 26 32 24 29 33 39 47 41 50 41 47 45 46 43 43 39 39 43 47 41 37 34 32
8 6 7 7 4 7 9 7 6 6 5 5 6 10 11 11 14 19 21 21 18 23 16 18 20 26 37 39 51 41 35 56 56 47 50 48 45 40 38 33 32 33 32 33
19 17 5 5 4 3 9 7 3 2 3 7 12 16 17 15 12 14 20 21 22 19 11 9 10 13 28 41 43 42 44 36 50 47 39 46 44 41 30 31 32 32 34 36
12 12 16 13 10 8 3 1 3 4 7 9 10 17 18 20 17 15 18 15 18 18 11 11 10 10 11 18 43 44 52 46 36 39 38 35 33 44 40 38 35 41 40 39
7 9 6 4 3 7 7 7 5 9 11 13 16 20 18 11 13 18 16 13 16 14 14 15 12 12 11 11 12 29 35 38 33 29 37 38 38 39 42 39 40 38 31 38
7 3 1 0 5 8 10 12 13 14 13 15 19 21 18 12 10 13 18 17 18 18 20 15 15 12 15 14 12 10 22 29 35 36 23 31 33 31 35 32 36 25 22 31
6 8 9 8 9 13 16 19 21 21 24 25 19 18 13 12 10 11 11 15 18 20 19 20 16 17 15 14 17 16 15 17 17 18 20 26 24 29 18 24 27 25 30 32
8 9 10 11 12 13 15 18 19 21 20 19 18 15 12 11 9 9 13 16 18 18 20 21 21 19 16 19 18 19 20 21 21 20 21 25 29 29 33 33 39 41 38 44
10 10 11 11 11 13 13 13 14 13 12 14 13 10 10 10 9 9 7 8 14 16 16 16 21 22 20 20 21 23 24 24 26 27 29 31 32 34 36 36 39 44 41 40
9 10 11 11 12 12 13 12 12 12 12 11 11 12 8 8 9 9 9 8 7 12 14 14 14 20 21 23 24 25 27 27 27 28 29 32 33 34 35 36 36 38 37 35
10 11 13 14 15 16 17 17 16 15 14 14 13 13 11 10 10 11 10 9 6 5 9 14 13 11 15 21 21 21 26 28 27 27 27 29 32 33 34 36 37 36 35 37
13 15 17 19 20 21 20 20 20 20 19 18 17 16 16 15 14 13 14 14 13 12 10 10 11 14 17 17 20 25 27 27 27 28 27 29 31 32 33 36 37 38 40 43
17 19 21 22 22 22 22 21 21 21 20 19 19 20 20 19 19 19 18 18 18 19 18 18 17 16 15 18 16 17 18 19 23 26 28 29 30 33 34 36 37 38 37 37
17 18 20 21 22 22 23 24 25 24 21 20 19 19 19 21 21 21 21 22 23 23 23 23 24 24 23 22 21 21 23 24 24 24 24 26 28 30 31 32 33 33 34 35
23 25 25 25 27 26 27 27 27 27 26 24 22 20 19 19 19 20 22 22 23 24 27 28 28 29 29 30 30 30 29 28 27 27 28 31 32 31 31 32 32 33 35 37
28 28 30 32 33 34 34 33 33 32 32 30 28 24 22 20 19 18 18 19 22 23 23 25 28 32 34 34 35 35 35 35 35 34 33 32 33 34 36 38 39 40 42 42
32 34 35 36 37 36 33 33 34 37 39 38 35 31 27 24 21 20 18 19 20 21 23 24 24 25 27 29 33 37 39 40 40 39 39 39 40 39 39 40 41 43 44 44
34 36 37 31 25 25 27 35 35 34 35 38 41 37 33 30 26 24 23 22 22 22 23 24 25 26 25 25 29 31 33 36 40 39 40 41 41 42 42 42 42 42 43 44
35 32 27 25 24 24 25 30 29 27 19 23 32 37 34 32 31 30 29 27 26 25 25 25 25 25 25 23 24 27 29 30 32 35 37 37 38 39 40 40 40 41 42 42

GFSNGP_500_spd_123.txt.gz
Wind_Speed
22 25 27 24 24 26 40 36 34 29 21 20 18 21 24 33 38 42 43 42 42 42 43 43 42 43 44 42 48 43 42 41 40 39 44 46 40 38 35 31 31 31 28 27
17 18 23 37 32 23 30 32 34 30 39 35 36 26 43 44 43 41 41 45 47 48 48 48 41 42 45 42 43 44 43 43 41 42 46 47 42 39 36 33 32 31 27 24
16 13 21 24 35 37 30 30 33 37 33 30 38 40 43 43 42 45 48 49 49 51 52 51 44 42 42 43 40 43 43 44 42 44 49 48 43 41 38 34 33 32 26 24
9 8 11 8 14 25 34 42 30 31 32 35 42 46 42 42 49 52 51 49 48 48 50 51 45 43 41 41 40 42 43 40 40 47 50 48 45 45 39 36 34 32 27 23
10 7 7 3 6 13 30 43 42 38 37 46 50 43 43 51 47 45 44 46 48 46 45 46 43 40 41 40 41 40 35 36 42 47 51 49 46 45 40 38 36 34 28 22
5 6 8 11 6 10 7 14 39 51 47 48 50 50 52 48 44 37 30 33 37 41 43 41 38 39 39 42 43 37 37 38 41 48 53 50 45 45 39 39 38 36 30 23
4 4 5 9 8 8 8 9 15 19 22 18 19 14 15 19 21 22 24 25 27 34 37 37 37 36 40 43 42 40 43 44 39 50 52 50 47 46 45 43 40 38 33 27
4 6 6 8 3 2 5 6 7 6 5 5 3 6 9 14 14 20 19 21 22 24 28 28 28 32 38 44 40 43 45 49 41 51 54 48 49 44 46 42 45 40 36 31
9 6 3 2 5 7 1 5 9 6 2 2 3 6 9 12 13 16 18 20 21 22 26 26 29 29 34 39 42 42 44 43 54 55 61 49 46 45 38 43 44 42 38 35
11 3 2 2 4 5 15 8 4 4 4 5 7 11 15 17 18 17 18 20 20 24 29 25 26 34 31 36 36 38 41 38 48 55 48 47 43 39 40 39 41 39 40 40
10 8 2 1 2 7 8 7 1 3 4 8 12 11 15 20 20 20 20 19 22 25 29 24 24 31 30 31 34 39 37 40 47 51 56 56 45 43 41 38 38 41 43 44
5 8 7 4 4 1 0 2 6 4 8 11 12 14 19 22 18 15 18 21 20 24 24 25 19 17 17 18 30 34 27 45 48 44 51 58 48 47 45 44 42 46 42 32
3 6 5 2 2 3 6 9 12 12 13 13 14 16 23 23 18 13 11 16 18 12 10 18 18 12 14 11 16 32 28 37 31 43 43 52 51 49 52 50 47 49 45 36
7 5 3 4 7 11 13 15 18 20 22 23 25 27 26 22 14 13 10 9 15 13 16 12 14 13 12 17 9 19 33 38 39 37 35 39 45 45 45 47 40 40 38 41
6 7 8 10 12 14 17 20 22 23 25 25 25 24 21 17 13 12 11 10 10 13 15 15 15 15 13 13 17 10 20 32 31 37 36 35 37 39 41 39 39 41 46 55
8 10 11 11 12 14 16 18 20 21 21 20 19 17 17 11 12 11 9 9 11 13 15 18 18 17 15 14 15 18 15 11 18 27 23 24 28 31 34 30 27 23 28 30
11 12 13 13 12 14 15 16 16 16 16 17 17 15 14 15 8 11 9 7 8 11 12 16 17 15 14 15 15 18 20 19 16 14 19 24 26 26 27 32 29 38 30 33
14 13 13 13 14 15 17 17 18 18 18 17 17 16 15 15 9 11 11 9 9 8 10 12 14 15 15 14 17 18 19 21 23 24 22 21 22 25 33 29 32 29 29 32
13 13 14 15 17 19 20 20 21 21 21 20 19 18 18 15 14 13 12 11 10 9 7 9 13 14 14 15 16 18 19 21 22 23 24 25 27 29 31 34 35 36 37 39
13 15 18 20 22 24 25 25 24 23 23 23 22 21 20 20 18 17 17 15 13 13 12 12 10 11 15 15 15 18 21 21 22 23 23 24 24 24 24 25 28 31 34 37
17 19 20 21 21 21 22 22 22 24 25 26 26 25 23 23 22 22 21 20 19 17 17 18 17 15 14 13 15 17 18 22 25 25 26 28 29 30 30 30 31 31 32 33
21 22 23 25 27 27 27 27 27 28 28 28 27 26 25 25 24 23 24 25 24 23 23 23 22 22 22 21 20 19 20 20 21 21 21 22 24 26 28 29 30 30 30 30
25 27 27 28 28 29 31 32 32 32 33 33 32 31 29 27 25 23 23 23 26 27 26 25 25 26 27 27 27 27 27 27 26 25 26 27 27 28 29 28 28 28 29 30
27 26 27 29 31 31 34 36 36 35 36 36 38 39 37 33 28 26 24 22 22 22 23 25 26 27 28 29 32 33 33 33 34 34 34 34 33 33 33 33 34 37 37 37
31 29 31 32 33 35 32 27 26 28 29 37 38 36 39 40 34 29 25 23 22 20 20 20 23 24 26 27 28 29 31 34 36 39 39 39 39 39 39 38 38 39 39 40
34 35 34 34 34 29 27 25 24 24 29 34 31 28 30 36 37 34 30 26 23 21 20 20 21 22 24 26 27 27 28 29 30 31 33 36 40 42 43 41 41 42 43 44
37 38 36 34 29 27 25 25 24 25 26 30 26 19 15 24 34 34 33 30 28 27 27 25 24 25 26 27 28 28 27 28 28 27 29 33 35 36 37 40 42 43 41 42

GFSNGP_500_spd_126.txt.gz
Wind_Speed
13 19 18 20 18 15 22 21 33 30 33 11 20 37 29 8 26 32 33 27 26 31 39 35 33 33 30 31 32 31 32 37 40 38 42 42 39 35 31 35 36 34 32 32
16 18 18 29 30 25 22 22 32 37 38 20 4 17 10 16 30 29 24 28 31 37 38 38 36 35 33 33 31 30 31 33 41 44 40 41 38 36 32 35 37 35 33 33
13 15 13 11 11 17 27 22 24 27 26 30 24 21 24 22 27 30 32 36 34 39 44 47 47 45 40 36 34 31 32 35 39 39 41 39 38 36 36 36 38 36 35 34
12 11 8 5 5 15 19 26 23 30 24 21 30 28 30 30 30 33 36 37 44 49 53 56 56 53 47 40 36 34 32 36 39 37 39 37 38 39 38 38 41 40 37 36
4 3 2 2 5 8 10 24 31 32 40 37 30 25 31 29 31 36 42 51 54 61 64 66 63 55 50 44 38 35 33 34 38 38 38 37 38 41 38 39 43 41 39 37
1 2 4 9 7 8 6 5 14 25 36 44 42 34 36 37 43 49 48 51 55 57 63 60 54 48 43 40 40 36 34 34 36 37 36 36 38 38 39 43 46 44 42 38
3 8 9 7 7 6 4 10 15 13 20 22 26 33 38 35 30 24 24 25 27 30 34 40 43 45 42 39 38 37 36 35 34 36 34 38 39 40 42 47 48 47 44 39
6 8 6 1 7 7 10 8 11 10 14 10 8 5 10 14 15 17 20 22 22 23 26 29 31 34 39 39 38 38 38 38 38 36 37 50 37 36 47 50 51 47 42 40
6 8 8 8 4 10 5 5 5 5 8 2 2 2 5 9 14 17 19 21 26 27 25 28 29 28 28 33 35 37 40 40 39 38 42 45 46 45 51 51 50 45 44 44
3 2 5 10 8 8 9 11 6 3 5 5 6 9 8 11 16 19 21 22 24 25 25 26 28 27 28 29 29 32 37 38 39 41 40 42 42 46 53 57 49 45 47 47
3 2 3 5 6 8 6 6 7 4 7 9 9 11 13 17 20 24 23 22 24 26 24 27 27 26 29 25 33 31 32 33 37 46 39 44 49 54 54 52 47 48 45 46
5 5 6 5 7 10 10 6 9 12 11 10 14 15 17 19 25 25 25 22 23 22 22 19 18 25 31 28 28 27 29 32 31 36 41 39 48 73 56 54 50 44 41 38
6 4 8 5 5 6 10 12 17 18 19 22 24 25 25 25 26 23 21 19 18 16 18 14 16 15 18 13 19 24 24 27 24 31 41 43 42 53 56 57 48 42 44 44
7 7 8 7 9 11 13 16 19 22 24 24 25 25 23 21 22 20 18 18 16 14 13 14 15 11 14 11 14 12 15 25 32 20 27 41 39 52 55 60 55 48 49 42
7 8 10 9 14 15 16 18 20 22 23 23 23 22 22 19 19 15 16 16 16 15 14 13 13 11 6 10 10 13 10 18 26 25 19 27 44 49 53 53 59 58 54 47
9 9 11 12 13 15 17 18 20 21 21 21 21 21 21 19 19 17 13 14 14 13 12 11 13 12 9 12 11 8 13 7 26 24 18 21 18 30 43 42 47 51 46 46
12 13 15 17 18 19 20 20 21 22 23 23 23 22 22 19 20 10 12 13 13 12 9 7 10 9 9 10 10 11 6 12 11 20 18 24 27 26 21 33 46 53 56 42
15 16 17 18 19 20 20 21 22 24 25 25 25 24 23 21 19 17 15 14 13 13 11 8 8 9 8 7 8 8 8 9 10 16 11 8 14 19 24 24 27 26 29 36
18 18 18 18 19 21 22 24 26 27 27 26 25 25 24 23 22 20 19 18 16 14 12 10 9 9 8 8 8 8 8 7 8 11 14 17 15 13 13 20 23 26 23 26
19 20 20 21 22 23 25 26 26 26 25 25 26 26 26 26 24 23 21 21 20 18 16 14 12 10 9 8 8 9 9 10 12 14 14 14 15 15 16 20 22 24 26 27
23 23 24 26 26 27 29 30 31 31 31 31 31 30 29 28 28 27 25 23 23 23 21 19 18 16 14 13 11 9 9 11 12 13 13 16 18 20 20 21 22 24 26 27
25 26 28 30 31 32 32 33 33 33 34 35 35 35 34 33 31 30 29 27 25 25 25 24 23 22 20 19 18 17 16 14 13 14 15 15 16 17 20 23 24 25 25 26
25 27 29 30 31 31 31 33 35 35 36 37 35 34 34 35 36 36 34 30 27 25 25 24 24 24 24 24 23 23 23 22 22 22 21 20 20 21 22 22 23 23 23 24
27 28 31 33 34 33 35 35 35 35 31 26 28 29 31 36 38 37 38 35 30 27 25 24 23 23 23 23 24 25 25 26 28 28 28 29 29 29 28 28 28 29 28 29
31 34 36 37 36 37 36 35 35 30 27 27 26 29 35 35 34 33 34 35 32 28 25 23 21 21 21 21 22 23 23 24 25 26 28 30 32 35 36 36 35 34 35 35
36 39 40 40 40 39 38 35 31 27 26 25 26 30 33 31 25 18 23 29 32 29 26 24 22 21 20 20 21 21 23 25 26 26 27 27 28 28 30 32 34 35 36 38
39 41 42 39 39 36 32 29 25 24 24 25 26 27 27 27 22 14 15 23 29 30 29 26 25 24 23 24 24 24 25 27 27 29 29 28 27 27 27 27 28 30 32 35

GFSNGP_500_spd_129.txt.gz
Wind_Speed
8 12 13 15 18 14 13 26 28 19 28 27 10 21 25 35 34 36 34 43 41 40 41 40 33 27 26 24 25 28 30 33 34 34 34 36 40 37 36 30 29 31 31 32
11 14 17 18 19 21 22 20 21 26 30 28 23 19 19 21 21 29 43 47 48 42 35 38 39 33 33 31 26 22 26 30 33 31 32 35 40 39 34 30 32 34 32 33
8 10 8 9 15 4 11 22 23 21 24 33 16 14 18 10 8 24 18 20 17 22 29 35 37 38 38 36 32 27 23 28 32 32 34 39 43 39 31 33 36 35 34 35
6 7 6 3 3 5 11 23 26 25 24 24 18 15 15 18 17 17 18 22 27 29 33 37 37 39 40 39 39 38 35 31 32 35 36 36 42 42 39 39 38 37 35 37
3 2 2 7 1 1 7 11 16 21 26 29 23 25 25 18 23 26 28 29 32 35 37 43 46 46 47 48 52 47 42 33 33 35 38 37 38 44 42 41 40 38 37 39
6 3 5 5 8 9 10 11 3 8 14 16 21 25 29 32 29 29 31 31 33 42 46 47 48 53 55 59 65 61 46 33 33 35 39 42 38 40 41 41 38 36 39 40
9 4 6 11 14 10 8 10 14 13 15 9 14 10 11 14 25 35 38 37 27 26 36 45 50 57 66 70 71 59 45 37 33 34 39 43 41 41 42 39 44 36 38 40
7 7 4 8 10 3 8 11 5 9 9 7 6 4 3 1 1 7 12 16 18 23 28 34 47 56 45 37 42 49 46 40 37 35 39 42 40 42 43 37 36 34 38 43
9 10 8 10 11 11 12 5 1 6 3 6 8 7 7 7 8 10 15 20 21 24 27 30 33 37 37 37 36 37 40 41 42 40 41 42 40 41 44 39 42 41 45 45
8 10 10 8 10 8 9 11 9 3 4 6 7 7 6 7 11 17 20 20 21 25 28 33 33 35 36 35 35 35 34 34 38 41 43 43 42 44 44 48 38 42 43 46
8 8 10 8 7 8 8 5 8 9 8 10 11 12 14 16 18 21 22 25 25 27 28 32 32 31 33 30 28 29 30 30 28 36 43 43 43 42 40 48 54 43 42 51
7 6 8 9 6 7 7 8 8 13 13 14 16 19 20 21 22 25 27 26 26 30 28 26 21 23 22 22 21 31 30 26 28 32 36 40 42 43 42 46 52 42 43 45
8 7 7 9 9 10 13 15 16 17 18 21 22 22 21 21 21 20 22 24 25 25 23 20 17 18 19 14 24 21 18 24 23 27 29 35 41 40 43 42 48 53 54 54
8 7 7 10 9 11 14 15 17 18 19 21 22 22 23 23 22 21 22 20 20 21 19 21 14 16 15 17 9 9 13 14 23 26 26 29 33 36 41 45 49 57 50 47
9 8 8 9 12 14 15 17 18 20 22 22 22 22 22 23 23 23 22 20 19 18 18 17 13 13 12 8 5 7 12 1 4 16 23 24 28 32 37 41 44 52 52 53
9 9 9 11 12 14 16 19 21 22 23 24 24 25 25 24 23 23 23 17 16 16 16 17 12 12 11 10 6 4 8 11 12 2 14 15 19 27 32 37 37 50 52 47
12 12 14 15 17 19 19 19 20 22 24 26 28 29 28 26 24 21 21 20 16 18 17 18 14 11 10 5 8 7 4 7 8 6 11 14 10 8 28 41 45 55 52 47
15 17 18 19 20 20 20 21 23 25 26 27 28 28 28 27 26 25 23 20 19 18 18 16 16 11 8 6 4 6 8 6 2 6 8 5 9 10 4 22 39 44 48 51
17 18 18 19 20 21 23 24 26 28 29 30 30 29 28 26 25 24 23 23 21 20 19 17 15 14 11 7 5 3 6 7 9 8 4 7 7 6 3 3 13 23 30 32
20 23 22 22 24 26 28 29 31 33 33 34 33 30 29 30 30 29 29 25 23 23 21 20 18 16 14 11 7 5 5 7 8 8 13 9 5 4 4 7 5 5 11 17
20 23 25 26 27 29 31 34 35 35 33 33 35 34 33 32 33 31 31 29 27 24 23 23 21 19 17 15 13 10 7 7 6 7 7 7 10 13 11 10 12 13 14 14
23 26 27 30 30 32 32 34 35 33 33 36 36 35 35 32 28 28 28 29 30 29 27 24 23 21 20 18 17 15 13 12 10 9 9 9 9 10 11 14 17 19 21 22
25 28 30 31 31 32 34 36 36 36 36 37 36 33 27 25 26 26 31 36 37 34 31 27 24 22 20 19 19 19 18 17 16 15 15 14 14 14 15 15 15 16 17 18
29 31 32 33 35 37 39 39 37 36 36 35 35 29 26 25 28 33 36 37 37 34 32 29 23 21 20 19 18 18 19 19 18 18 18 19 20 20 21 21 22 23 22 22
31 31 32 35 37 39 40 40 39 37 35 31 30 27 26 26 28 32 33 29 24 22 26 27 23 20 20 19 18 18 18 19 19 19 19 20 20 21 22 23 25 26 27 28
32 33 35 37 39 39 37 35 36 31 26 24 24 25 25 25 26 27 28 25 17 14 19 24 24 21 21 21 21 20 19 18 19 20 20 21 22 23 24 25 25 24 25 26
34 36 38 39 40 36 33 33 31 29 26 25 26 26 26 26 25 25 24 23 19 15 16 22 25 25 24 23 23 22 21 21 21 21 22 22 23 25 26 27 27 27 27 28